GFSSGP_925_spd_000.txt.gz
Wind_Speed
10 6 7 8 4 6 13 6 15 9 8 12 15 12 18 18 11 8 17 14 23 19 17 14 15 13 12 11 11 11 11 10 9 8 7 6 6 6 7 10 12 13 13 13 13 13 14 13 9
8 10 7 4 6 11 4 9 13 16 14 9 10 4 17 17 16 16 17 19 24 23 19 15 15 13 12 11 11 11 10 9 8 7 6 6 4 6 7 10 11 12 12 12 10 10 9 10 10
10 6 3 4 7 14 8 12 14 12 8 8 4 15 15 13 17 16 18 17 28 23 17 16 15 12 11 10 10 9 10 9 8 7 6 5 6 6 8 9 10 10 11 12 12 11 11 10 10
8 6 5 8 14 11 16 16 15 9 3 5 12 11 13 19 21 19 18 18 18 20 19 16 16 14 11 10 10 9 8 7 6 6 5 6 5 6 7 9 9 9 11 11 11 11 11 11 11
11 4 8 10 7 12 14 14 9 6 3 7 3 17 18 23 21 18 17 18 21 17 15 15 14 13 10 8 7 6 6 6 6 6 5 6 6 6 7 7 8 9 10 10 11 10 10 10 10
6 3 7 12 11 12 11 7 3 16 8 9 6 15 15 20 18 17 16 18 19 19 12 13 12 11 9 8 6 6 6 7 7 7 6 5 5 7 7 7 7 9 10 10 9 9 9 9 9
9 6 14 10 8 9 9 5 2 1 5 5 7 15 12 17 17 16 16 17 18 16 15 12 10 10 8 7 7 7 6 5 6 5 6 6 6 9 8 6 9 10 9 9 10 10 9 9 9
10 9 14 8 8 10 9 3 6 3 15 11 4 5 13 20 16 16 16 15 16 15 14 14 8 8 7 9 8 6 6 6 8 7 9 7 6 9 8 8 12 13 11 12 11 12 12 10 7
16 13 8 8 10 10 10 6 2 7 9 4 4 8 21 24 18 16 17 14 14 14 11 13 12 10 9 8 8 9 9 8 9 6 9 5 6 5 3 10 10 10 11 14 9 11 14 10 8
9 8 10 9 10 11 9 8 8 6 10 4 5 9 25 21 18 15 14 14 16 14 11 11 11 8 6 9 7 6 6 7 6 4 4 6 5 2 6 9 9 9 11 12 8 14 12 9 12
9 3 9 9 7 4 9 4 5 6 7 10 11 9 17 19 15 14 14 16 16 15 13 15 10 8 3 8 5 7 8 5 3 4 2 3 5 4 9 12 11 12 13 7 14 13 13 10 18
3 9 7 11 2 1 7 3 4 7 7 10 12 13 16 12 13 14 13 17 16 17 18 17 13 9 5 4 3 4 4 5 2 3 2 3 5 5 7 7 10 10 12 12 10 11 12 15 12
7 5 8 8 6 1 6 3 5 6 9 4 5 12 13 12 14 13 13 16 17 18 22 19 17 13 8 7 4 2 3 4 2 2 1 2 3 5 6 8 10 11 11 11 10 13 14 13 15
8 8 9 9 6 4 4 6 4 7 9 9 6 8 12 13 16 17 14 12 18 19 22 24 20 15 11 6 7 4 4 2 2 1 3 4 4 6 7 10 12 13 13 12 15 18 18 16 15
7 9 7 7 8 5 5 8 11 10 5 9 9 8 9 13 14 17 15 16 14 16 18 22 17 16 12 9 6 3 6 2 0 1 1 2 4 7 9 10 12 13 15 14 18 19 18 20 20
9 10 10 12 9 6 7 12 15 10 10 8 10 11 10 11 14 16 18 15 18 14 8 4 31 18 12 11 8 4 4 1 4 5 2 5 2 7 9 12 16 17 19 19 20 22 23 22 21
9 10 9 9 7 1 8 5 11 8 4 8 9 10 7 7 13 16 17 12 12 16 5 13 24 14 12 12 6 3 1 3 7 8 6 6 7 8 9 14 18 20 22 23 24 25 25 22 21
10 11 6 4 9 6 10 9 9 4 6 10 11 10 11 10 6 18 18 14 7 4 1 5 12 10 9 13 2 3 4 4 4 8 7 11 13 10 13 17 19 20 21 21 22 23 25 27 28
10 7 7 14 7 3 9 8 10 6 5 5 5 7 7 16 23 24 18 13 9 9 2 12 18 10 6 5 4 8 10 11 10 10 10 13 13 13 17 21 19 20 22 21 22 25 27 27 26
6 5 6 6 5 5 8 10 11 6 9 10 9 9 14 14 14 16 14 13 16 16 23 17 16 10 9 7 9 8 8 5 8 11 16 15 19 22 25 21 18 16 18 21 23 24 27 28 28
3 6 9 8 7 8 10 6 14 11 10 11 13 14 14 12 12 11 17 18 18 20 19 20 17 14 12 10 10 9 8 9 10 13 17 21 28 25 19 17 18 18 16 19 23 24 23 20 25
3 6 5 8 7 7 13 3 13 14 12 12 12 11 10 9 10 12 18 16 18 19 19 16 12 10 8 8 3 3 1 3 8 10 20 21 13 16 15 18 19 20 17 19 22 20 22 21 21
6 5 6 8 9 10 10 6 13 16 14 13 10 9 9 10 11 11 14 15 15 13 12 8 6 5 2 1 1 2 9 14 15 11 12 14 12 17 19 18 19 19 21 22 24 20 21 15 12
6 9 9 8 9 3 11 2 6 2 12 12 9 7 7 7 8 9 12 14 12 10 7 5 5 2 5 6 4 10 9 9 12 13 12 16 17 18 18 20 21 18 18 20 21 14 15 14 10
8 8 4 2 2 3 5 2 10 11 12 12 8 10 8 6 6 4 7 10 7 5 3 5 12 15 12 7 6 7 7 10 12 14 15 18 18 16 20 19 19 17 18 17 15 14 11 10 10
5 6 3 3 4 2 4 3 8 14 11 10 9 5 5 6 4 5 6 4 5 7 9 9 9 14 16 10 8 8 10 13 14 15 16 15 15 17 20 18 19 15 12 12 12 11 11 11 12
7 5 3 1 2 1 5 17 14 11 8 9 5 0 3 4 5 3 5 7 1 4 8 7 8 10 15 8 7 9 11 13 13 11 11 14 13 13 18 20 19 18 16 14 14 14 16 17 20
5 1 2 3 2 3 8 5 7 4 6 5 7 6 6 4 3 4 9 11 13 17 19 17 13 9 10 11 10 9 16 10 10 12 15 10 15 19 19 17 18 20 18 16 19 20 18 19 18
0 2 2 3 1 2 3 2 4 7 5 5 5 6 7 7 6 1 14 21 22 24 18 12 12 12 14 12 12 14 13 12 13 13 12 15 16 18 19 20 20 20 20 20 18 20 17 16 19
3 5 3 1 1 2 1 6 7 8 11 6 7 7 10 12 13 14 18 19 19 17 19 18 17 13 13 13 14 17 15 15 17 14 15 16 16 15 17 19 20 20 20 20 19 20 18 20 19

GFSSGP_925_spd_003.txt.gz
Wind_Speed
11 7 7 4 3 2 4 5 7 7 7 12 13 14 14 8 5 8 23 25 24 24 22 21 19 18 17 16 16 16 15 14 12 11 10 10 10 11 11 12 13 12 13 11 10 12 12 11 11
5 6 2 2 2 2 4 13 12 8 5 16 18 15 19 14 14 15 17 26 26 21 23 22 20 19 17 16 15 15 14 13 13 11 10 11 10 10 11 11 12 12 11 11 12 13 13 12 11
4 2 2 3 2 5 5 12 7 3 5 7 6 15 7 10 8 10 29 33 26 23 23 21 19 18 17 16 16 16 15 13 13 11 10 8 8 9 10 10 10 11 12 12 13 12 11 11 10
2 4 4 1 8 7 10 8 8 6 7 15 14 9 10 17 10 27 27 24 22 25 23 21 19 17 17 16 16 14 13 11 10 10 9 9 8 9 8 9 9 9 10 10 10 10 9 9 9
2 2 1 3 5 1 8 9 7 5 4 16 19 10 9 22 27 26 31 25 28 25 22 21 19 17 15 14 13 12 11 11 11 11 9 8 7 7 7 7 7 8 9 9 10 10 9 9 9
2 3 2 2 5 4 5 7 6 8 4 13 20 15 7 24 24 27 28 26 24 23 22 20 17 15 14 12 12 12 11 12 11 10 8 7 7 6 6 6 8 9 8 9 9 9 9 9 9
3 3 4 6 2 4 6 7 6 9 7 7 13 11 7 17 23 23 27 22 18 20 18 17 16 14 12 12 11 12 11 10 9 9 7 8 10 9 8 8 9 9 8 9 10 11 11 11 11
4 3 4 3 2 1 3 5 11 10 5 9 11 7 7 14 25 24 22 21 20 18 16 15 14 14 14 13 11 11 10 10 10 10 9 9 7 7 7 8 8 9 9 10 8 13 13 12 10
6 1 5 8 10 5 3 7 5 6 7 6 5 14 18 28 26 23 23 21 23 21 14 17 15 13 13 13 11 12 12 11 10 9 9 7 4 4 6 8 7 9 9 8 8 13 11 10 9
5 4 5 6 8 7 5 7 5 6 7 6 12 19 26 28 24 23 18 21 19 19 21 22 16 11 11 10 8 9 9 9 8 6 7 7 4 3 4 7 7 10 10 7 10 11 13 13 15
5 6 6 7 10 9 6 7 5 8 6 10 18 14 15 24 20 19 20 22 22 19 24 19 15 16 9 6 7 8 10 9 8 6 4 5 2 0 1 6 8 11 10 10 11 12 13 14 16
4 8 8 4 6 7 7 7 3 4 6 12 17 22 17 11 14 20 22 24 24 22 25 18 14 16 13 9 10 11 12 11 9 6 6 3 3 2 3 3 6 7 11 11 11 10 13 16 14
8 7 7 6 5 7 6 6 3 5 7 8 13 18 16 14 20 25 23 25 26 24 28 21 15 13 12 10 11 12 8 9 7 6 6 1 3 3 2 4 6 9 10 11 9 13 20 20 21
6 9 8 5 3 2 1 2 5 3 7 9 10 16 13 14 20 21 16 22 24 25 31 24 17 9 8 8 9 7 8 7 5 9 2 2 3 2 4 9 11 12 14 14 14 19 21 22 22
9 6 8 6 8 5 4 4 7 5 9 9 8 9 10 15 24 24 22 20 14 20 25 27 17 3 4 9 8 8 7 6 1 3 5 6 2 5 7 9 12 15 16 18 21 22 24 26 26
4 5 5 6 9 6 9 7 6 9 8 9 11 9 9 10 21 29 24 22 14 21 28 24 27 15 9 9 9 11 12 3 1 3 3 4 10 8 8 12 16 18 20 23 25 24 26 27 25
2 5 5 6 11 6 5 3 10 10 9 8 7 9 9 7 9 26 24 21 17 15 20 23 17 22 15 13 11 9 5 3 3 8 8 10 10 9 12 16 17 17 19 19 21 21 23 27 29
5 6 7 8 5 4 4 1 4 7 7 7 3 6 13 21 17 29 25 18 22 18 22 28 27 21 21 16 13 11 13 13 12 10 10 10 9 10 12 17 21 16 19 19 18 21 23 26 28
5 5 12 5 5 2 4 6 8 13 10 15 15 19 17 17 20 30 37 33 37 29 27 24 21 11 17 14 13 11 9 8 8 9 5 6 10 11 13 24 15 10 11 15 18 22 26 29 29
4 6 6 3 4 3 1 5 9 14 10 11 17 16 15 14 16 24 34 35 33 31 28 26 24 24 20 16 15 11 7 4 3 6 6 9 12 19 17 13 11 13 14 16 17 18 21 21 25
7 5 5 3 6 6 2 3 9 9 14 18 15 11 11 13 14 14 23 29 29 28 25 22 19 17 15 9 5 2 2 4 8 11 14 19 13 12 11 12 13 14 13 14 16 19 23 25 25
4 6 5 6 3 3 5 2 6 14 15 15 15 15 15 15 12 14 19 22 23 21 18 16 12 10 7 7 6 8 9 10 13 15 11 11 11 12 14 15 17 18 17 16 16 18 19 19 14
3 0 3 3 4 3 7 5 1 14 12 10 8 10 11 10 11 9 18 17 14 12 12 10 7 8 9 10 4 2 6 8 4 10 5 7 13 18 17 18 22 22 19 18 19 17 16 16 12
5 4 5 3 2 2 6 5 2 5 8 5 9 9 8 9 9 16 20 14 8 5 4 5 6 4 9 11 6 6 8 5 3 3 5 11 17 16 19 20 17 16 14 14 11 12 12 12 11
4 5 3 4 4 3 5 6 2 6 6 8 10 9 9 9 8 9 14 15 9 4 3 2 2 6 6 4 9 5 4 6 6 8 12 16 14 16 16 12 13 15 15 14 13 12 10 10 11
5 4 4 1 1 4 8 4 2 11 10 9 8 9 9 8 7 7 9 7 5 4 8 4 6 8 7 7 8 11 12 10 10 14 17 13 15 7 10 15 14 12 14 13 16 18 20 21 22
4 5 2 5 4 3 2 4 4 9 8 8 7 3 8 8 8 6 9 8 18 14 13 12 8 6 11 11 9 8 11 12 18 17 14 12 9 12 13 15 16 18 19 20 22 25 26 24 19
5 2 6 4 2 2 1 2 3 3 4 7 6 7 7 6 8 9 19 17 17 22 22 20 19 18 14 12 11 13 12 14 11 8 8 10 14 18 17 18 19 20 21 20 21 21 20 20 20
5 3 4 3 4 4 1 4 4 7 7 7 8 9 10 10 8 7 12 15 18 20 20 20 19 17 14 14 16 13 13 8 3 4 5 8 12 17 16 16 18 19 18 17 18 19 21 21 22
2 3 4 4 3 1 4 5 3 8 10 8 11 8 7 8 7 9 16 19 19 19 25 22 20 13 10 16 13 13 13 9 10 8 5 6 7 8 8 13 16 17 17 19 18 15 10 9 14

GFSSGP_925_spd_006.txt.gz
Wind_Speed
6 0 2 3 2 2 3 4 3 15 6 9 12 9 9 8 1 6 15 22 30 27 23 20 20 19 19 18 18 18 17 15 15 13 13 12 11 11 12 12 13 14 14 14 14 13 13 12 10
2 3 4 2 3 2 3 1 17 13 9 8 14 14 14 7 7 12 14 26 28 28 23 21 20 19 19 19 19 18 16 15 14 12 12 10 10 10 11 13 13 13 13 13 13 12 12 11 10
2 3 3 3 3 5 3 3 17 13 11 6 6 6 5 8 13 8 25 29 27 27 24 22 21 20 19 19 18 17 17 15 13 11 10 9 9 10 11 12 11 11 12 11 12 11 10 10 9
2 3 4 2 5 7 8 6 13 17 15 11 11 7 5 9 6 21 27 29 30 27 25 22 21 19 19 18 18 16 15 12 10 10 10 9 9 9 9 9 9 9 9 9 10 10 9 9 9
1 2 3 2 6 4 3 4 6 9 8 12 14 5 5 8 31 34 28 29 30 27 23 21 19 19 18 16 15 13 12 11 11 10 9 9 9 8 8 8 8 8 8 9 9 10 10 9 9
2 2 2 3 2 10 5 4 8 15 19 16 17 12 5 22 33 31 27 29 29 27 25 22 19 17 15 14 13 13 12 11 11 9 9 8 8 8 8 9 8 7 7 8 10 11 10 11 10
5 3 4 4 5 4 3 3 4 10 7 5 9 7 4 16 30 31 30 28 27 26 24 21 18 16 15 13 12 12 12 11 10 9 9 9 10 11 9 8 10 9 9 10 9 12 12 11 9
4 2 2 2 10 4 3 3 5 8 4 8 11 6 9 16 34 32 29 26 24 22 21 20 19 15 13 14 12 11 11 11 10 10 10 9 8 9 9 7 9 8 8 9 8 12 11 12 12
3 3 2 3 4 7 6 10 4 4 8 2 1 8 22 34 34 31 29 27 25 23 23 20 18 15 14 13 13 12 12 12 12 10 8 6 6 6 5 5 5 6 7 8 7 9 11 11 13
4 3 5 7 5 6 3 7 6 6 7 6 9 12 25 35 33 28 24 24 27 25 23 20 17 17 15 14 13 12 11 10 9 7 7 4 3 2 3 4 6 7 9 9 9 9 9 9 12
2 4 5 5 9 8 7 5 3 10 3 12 19 13 16 23 25 24 25 30 29 27 24 21 17 16 15 14 12 11 10 10 8 5 6 3 1 2 2 3 6 7 9 11 11 11 11 12 13
2 3 3 4 4 4 9 7 5 4 7 17 23 23 17 13 17 22 24 28 28 31 28 23 19 17 14 11 12 12 12 11 8 6 6 4 3 1 0 3 5 7 10 11 12 13 16 19 21
7 4 5 8 7 5 5 4 5 2 10 16 18 18 16 15 21 28 31 30 31 35 32 26 22 15 12 10 10 13 12 10 11 11 8 3 5 2 3 2 4 7 10 12 10 12 17 20 22
5 8 6 6 4 3 5 1 4 3 8 15 18 15 15 16 23 24 27 32 33 35 31 25 22 20 16 12 14 12 15 12 13 10 9 4 2 4 2 3 6 9 12 15 16 19 22 25 25
9 6 4 1 3 2 5 3 3 6 11 18 16 16 15 16 23 25 31 33 37 38 36 31 25 20 14 15 14 13 12 9 10 13 11 7 4 2 2 5 9 12 15 18 19 20 20 19 18
5 6 3 4 5 2 5 6 6 6 11 13 14 13 12 11 20 27 26 23 31 37 36 35 23 19 14 12 10 11 10 8 6 8 7 8 6 3 4 7 11 13 15 18 20 17 14 15 18
7 3 3 3 7 3 3 4 6 8 9 10 5 9 8 8 15 10 5 9 25 39 38 31 17 18 10 13 12 15 9 7 8 11 8 6 5 7 9 11 14 16 14 15 16 15 15 19 20
5 4 5 7 6 4 5 3 5 4 13 11 12 14 16 15 12 23 24 18 23 28 26 20 18 14 14 14 14 12 11 12 10 8 5 5 5 6 10 16 15 10 8 10 13 15 18 20 23
3 3 7 3 5 5 7 7 6 8 17 15 16 17 16 15 20 30 33 29 28 22 20 16 18 14 14 18 17 13 11 7 8 9 6 6 10 15 17 14 9 9 10 12 14 15 16 18 22
4 7 5 5 7 5 9 10 7 9 9 16 17 15 14 14 17 24 32 34 31 29 26 20 17 16 15 15 10 5 3 6 5 5 5 10 12 10 10 11 13 14 14 16 17 19 19 16 18
5 7 3 2 2 8 15 7 9 7 10 11 10 10 11 14 15 15 22 28 26 23 19 19 17 14 12 10 5 4 2 1 5 10 11 9 5 6 9 14 17 18 18 16 16 18 19 16 15
2 2 4 3 3 6 1 4 3 6 12 13 12 11 12 13 12 15 19 21 20 17 16 15 12 8 5 4 5 5 3 4 6 4 4 1 7 12 15 16 16 14 12 14 15 17 17 18 15
3 1 2 1 3 3 2 7 5 5 8 9 7 9 8 9 12 9 17 18 14 12 10 6 4 4 4 4 5 4 3 5 2 2 1 7 11 14 16 18 16 15 17 16 15 15 15 14 10
1 1 6 4 3 3 4 5 6 4 6 5 5 7 7 8 8 12 13 12 11 7 5 3 0 3 5 6 7 7 5 4 5 5 8 14 15 14 11 10 11 13 15 15 14 14 16 19 19
8 5 4 4 4 4 4 7 1 1 5 11 9 8 8 8 8 7 8 7 5 2 1 3 4 7 8 8 7 5 3 10 9 12 19 18 16 9 6 7 11 11 12 13 16 19 22 24 21
3 5 5 4 2 3 5 3 2 6 12 10 8 8 7 8 7 6 6 3 11 18 21 14 12 14 11 12 16 14 9 7 11 16 16 16 7 4 6 6 8 10 13 14 15 15 14 16 18
3 4 4 6 3 3 1 4 3 5 6 10 7 9 6 8 7 8 10 25 26 27 24 19 15 13 10 8 9 12 17 17 18 21 14 9 8 2 4 8 12 13 16 14 14 14 15 15 16
5 2 4 4 2 1 3 3 4 5 5 7 6 8 9 9 8 9 17 21 21 17 15 13 11 11 10 13 16 17 12 14 12 17 11 11 7 3 5 13 12 9 11 12 12 13 14 15 16
5 3 5 4 3 4 2 5 5 6 8 10 7 8 9 8 7 7 14 15 14 14 13 13 14 11 14 19 20 20 19 18 14 7 6 5 4 8 8 8 7 9 9 9 10 11 10 9 6
1 3 4 4 2 2 4 4 3 6 10 13 10 9 9 9 7 9 12 10 10 13 16 19 19 21 24 23 22 22 22 18 16 11 8 12 13 5 6 9 9 11 11 10 11 12 7 5 6

GFSSGP_925_spd_009.txt.gz
Wind_Speed
6 7 4 6 2 3 2 3 2 3 5 6 2 5 7 4 1 2 12 12 28 28 25 22 21 20 19 19 19 18 16 14 14 13 12 11 12 12 13 13 13 13 13 13 13 13 12 11 10
3 4 0 2 3 1 3 3 10 7 7 6 5 5 6 4 4 10 13 23 29 28 26 23 21 20 20 19 18 16 15 13 13 12 11 11 11 12 12 12 12 13 12 13 13 12 11 11 10
3 3 2 4 3 4 2 5 7 11 8 6 3 6 1 7 7 12 16 31 28 27 25 23 21 20 20 19 18 16 14 12 11 10 10 10 10 10 11 11 11 12 12 13 13 12 11 10 10
3 3 3 3 5 6 4 5 5 3 6 17 2 3 5 2 7 14 33 30 28 26 24 22 20 19 18 18 17 15 14 12 10 10 9 9 9 9 10 10 10 11 12 12 13 13 12 12 11
2 2 2 2 3 4 3 4 9 7 5 5 6 6 2 3 18 32 30 29 29 25 23 21 20 19 18 17 16 14 12 11 11 10 8 8 8 9 9 10 10 10 11 12 13 13 13 13 13
2 2 4 2 2 6 4 6 5 4 4 9 9 6 1 18 27 25 27 25 25 25 22 20 18 18 17 16 13 12 12 11 9 8 9 9 9 9 9 11 11 12 12 13 16 15 16 15 14
4 3 2 3 5 5 4 4 4 11 9 4 9 5 4 3 23 26 26 23 22 23 22 20 19 17 15 14 14 13 12 10 9 9 10 11 11 10 10 11 11 11 12 11 14 15 16 16 14
4 3 1 3 5 3 7 2 4 10 3 6 8 6 7 7 24 27 26 24 24 23 22 21 18 17 16 16 14 13 11 10 10 9 10 9 9 8 9 8 8 8 8 8 9 11 14 15 15
2 4 2 3 8 11 12 5 3 2 9 1 2 5 17 31 30 30 24 22 23 22 21 20 19 18 17 15 13 12 11 11 11 10 8 6 6 6 3 4 4 4 6 5 5 7 8 11 13
4 4 9 6 9 8 7 7 8 5 3 5 7 12 26 30 31 24 20 21 25 24 23 22 19 18 18 16 15 13 12 11 10 7 6 6 3 1 2 3 4 4 5 6 6 7 7 9 11
3 4 3 3 10 9 8 4 3 11 2 8 15 15 17 22 22 22 21 30 30 27 24 24 21 19 18 18 17 14 13 10 9 6 5 3 1 0 1 3 4 5 7 9 9 9 11 12 15
2 8 1 4 7 6 8 6 5 3 8 9 22 23 19 13 18 23 24 29 28 28 28 26 23 20 18 17 16 16 14 12 11 9 6 4 1 1 1 3 4 6 9 11 12 11 13 17 18
3 3 1 6 8 6 7 4 6 4 7 11 16 18 19 16 19 25 35 33 31 31 30 28 25 23 19 19 18 16 15 14 12 10 7 3 5 3 2 2 3 5 7 9 10 11 14 17 19
7 1 4 4 6 5 6 2 1 3 7 11 17 17 15 16 23 21 24 28 33 34 33 30 28 22 20 18 18 18 15 13 14 12 9 9 8 7 4 2 1 4 8 10 12 13 14 13 13
7 5 4 2 1 3 4 2 4 5 10 16 17 16 12 12 19 23 27 27 33 32 32 29 25 19 16 15 15 15 16 13 12 12 12 8 5 3 3 1 5 8 11 13 14 13 13 14 11
5 5 3 5 2 3 5 7 3 9 12 12 8 2 6 5 6 4 4 22 29 30 31 24 19 14 4 12 12 15 12 10 10 8 5 7 6 2 3 6 10 14 17 15 14 14 13 12 13
6 3 2 4 6 2 3 4 6 5 5 8 7 7 7 7 12 11 6 12 23 26 25 19 15 12 10 3 7 9 11 14 13 12 9 6 2 1 5 11 16 16 11 11 13 13 14 13 14
3 2 3 6 5 4 2 5 8 6 11 8 8 8 9 9 7 12 14 12 19 20 17 19 11 8 8 7 13 16 16 13 9 8 6 3 2 5 9 12 11 9 10 13 16 18 18 19 21
2 3 5 4 1 8 5 8 10 7 14 11 9 11 12 12 10 20 22 17 17 14 12 9 10 12 14 15 15 12 11 9 8 5 5 6 9 10 9 9 9 12 14 15 18 20 23 23 25
5 4 2 4 8 11 12 12 9 8 5 8 11 11 13 11 12 19 28 27 23 22 18 13 15 16 14 11 10 6 4 4 5 5 6 7 8 9 10 10 11 12 14 16 18 20 20 18 20
4 2 3 6 8 6 12 9 8 6 8 9 7 7 8 13 10 7 19 24 22 18 16 16 14 12 8 4 2 3 3 2 3 3 4 6 7 9 11 13 14 11 10 11 13 13 14 13 15
3 2 3 9 5 4 4 3 2 3 4 5 5 7 7 6 9 9 16 20 21 18 14 12 9 7 6 5 4 5 7 6 3 1 4 6 8 11 12 13 11 9 10 14 16 13 13 12 13
3 2 2 2 4 4 4 6 3 6 3 4 5 6 7 6 8 8 17 19 16 14 11 8 5 2 2 3 6 7 5 3 3 6 8 13 12 10 10 15 13 11 8 12 14 11 9 10 10
2 5 6 4 3 3 2 5 6 8 7 6 3 4 7 8 6 11 16 13 10 5 4 4 4 5 4 5 6 7 4 2 7 8 13 18 17 21 29 24 5 3 9 12 10 10 12 14 11
5 5 3 3 4 4 3 2 5 12 10 9 11 8 8 8 7 7 9 12 11 8 4 4 4 8 7 7 8 10 11 6 2 10 17 25 28 24 17 8 4 6 8 8 9 9 10 9 11
3 4 5 5 3 2 4 2 4 5 9 10 7 7 5 3 5 7 15 20 20 20 17 15 14 14 13 13 11 9 13 15 17 18 21 21 22 18 11 4 5 12 8 7 8 8 9 9 10
1 3 3 6 3 3 3 3 5 5 7 9 10 6 6 7 7 10 19 19 16 14 13 12 12 11 12 13 14 15 17 17 19 19 22 19 12 8 7 2 11 8 10 9 9 8 9 10 11
4 4 3 4 3 1 2 3 4 8 9 4 5 9 7 8 8 8 14 13 13 13 13 12 12 13 13 12 13 15 17 18 21 22 23 15 11 10 7 12 14 6 13 11 10 12 11 14 16
4 2 6 5 3 4 2 5 5 9 7 7 7 8 10 8 7 7 11 12 11 12 14 15 13 11 11 13 15 16 17 19 21 23 20 16 12 6 6 5 8 14 11 9 13 14 17 17 14
1 2 4 4 3 1 3 5 3 8 9 11 9 8 7 7 7 9 10 10 12 13 13 12 10 10 12 14 17 19 20 21 23 23 16 8 9 5 7 9 16 16 14 12 14 16 15 10 11

GFSSGP_925_spd_012.txt.gz
Wind_Speed
4 3 4 2 4 4 2 5 2 2 4 3 7 6 7 2 2 2 11 9 24 26 24 24 23 23 22 21 20 19 16 15 15 13 11 12 12 13 13 13 15 15 15 16 15 14 13 12 11
4 1 1 2 4 2 3 4 7 10 8 6 7 9 9 2 3 8 8 17 28 25 24 23 23 23 22 21 20 17 15 14 13 12 10 12 11 12 13 14 14 15 15 15 14 14 13 12 13
2 1 3 5 3 4 4 5 6 4 2 8 6 4 3 2 7 11 12 25 26 24 23 22 22 22 21 20 19 17 15 13 12 11 10 11 10 11 13 14 13 14 15 15 14 14 13 13 13
5 5 4 4 4 5 3 6 9 2 5 11 8 1 2 7 7 10 24 26 25 23 22 21 21 21 20 19 18 17 15 13 11 10 10 10 10 12 13 12 12 13 14 15 15 15 14 13 14
3 3 3 2 3 4 4 7 9 5 4 11 9 5 3 4 11 27 29 25 24 22 21 21 20 20 19 18 17 16 14 12 11 10 9 10 10 12 12 12 13 14 15 17 16 17 17 16 17
3 3 3 1 3 5 2 7 6 3 5 4 4 4 2 15 24 25 25 24 24 24 22 20 18 18 18 17 16 15 13 12 10 10 9 10 12 12 13 13 13 15 15 16 17 17 17 16 17
5 4 4 3 2 4 3 4 5 5 6 5 5 3 2 5 21 24 24 23 23 21 21 19 18 17 17 15 14 13 12 11 10 10 10 11 11 12 12 12 12 13 12 12 14 16 16 16 17
4 4 4 3 2 3 4 3 3 2 5 4 6 5 7 6 23 25 22 20 18 18 17 18 18 17 16 14 14 13 12 10 9 11 11 12 10 9 9 8 8 9 8 8 8 10 13 15 15
3 4 1 4 7 4 14 2 1 1 5 4 4 4 12 25 24 21 21 19 18 17 18 18 18 17 16 16 15 13 12 11 12 13 10 9 9 8 6 5 5 5 5 5 4 5 7 9 11
4 3 7 5 6 6 22 6 6 4 4 5 4 11 24 23 25 22 20 18 18 18 20 21 19 18 18 16 15 14 14 13 11 11 9 9 7 5 5 3 3 3 3 4 5 5 6 8 10
3 5 5 5 10 7 6 6 2 11 1 6 14 13 15 18 17 20 19 22 28 26 23 21 19 19 17 16 15 16 14 14 11 10 10 8 5 4 4 4 2 3 4 5 6 5 7 9 12
1 7 6 9 10 4 9 7 4 4 5 9 18 21 17 13 16 19 21 29 29 27 24 23 20 18 17 16 16 15 13 12 10 9 8 5 3 3 4 2 3 3 4 6 8 8 10 12 13
5 4 0 4 7 5 9 5 5 3 5 11 12 17 15 13 16 18 28 30 26 26 26 24 21 19 17 16 15 13 11 9 8 7 5 5 4 2 2 1 2 3 6 8 9 10 12 12 13
6 2 3 5 7 4 7 4 3 1 7 12 15 15 12 14 19 18 18 24 23 24 23 21 19 15 12 9 10 10 11 10 9 9 7 5 4 4 2 1 1 5 9 12 13 14 12 10 11
4 6 5 5 2 4 7 4 1 3 7 14 14 8 5 6 6 7 15 23 24 21 19 19 17 12 10 9 8 12 13 13 13 12 10 6 3 1 2 2 3 8 11 12 10 9 8 9 9
6 5 4 3 2 4 5 5 8 1 11 7 7 6 7 5 3 3 6 19 18 15 17 16 16 10 10 8 7 9 12 10 3 2 4 6 7 4 3 6 11 13 11 9 8 8 9 11 13
6 2 2 2 2 3 4 2 8 6 7 6 6 6 6 5 7 4 2 9 14 14 15 15 15 16 11 13 5 4 7 9 11 9 6 6 6 7 11 12 12 9 8 7 9 11 13 13 15
5 3 0 3 2 11 8 5 7 9 7 6 7 6 6 6 6 8 4 7 12 18 21 19 18 12 8 4 12 16 12 10 7 5 4 5 7 9 10 11 9 8 8 9 11 12 13 15 17
4 3 3 2 3 8 4 6 8 8 8 8 7 7 7 6 6 11 17 19 23 22 20 16 14 11 15 19 14 10 8 5 4 3 3 3 5 7 8 6 7 8 11 11 11 14 16 17 19
5 5 3 4 5 8 8 9 7 8 4 4 6 7 7 6 7 14 19 26 27 23 17 16 17 19 16 12 6 4 6 6 4 3 4 4 5 6 6 8 11 13 12 11 11 13 15 11 12
4 5 2 6 7 6 6 6 6 5 6 6 6 3 4 6 8 8 17 21 24 24 24 22 19 16 10 6 7 5 3 3 2 1 4 6 6 7 8 10 14 14 11 8 8 12 15 8 7
2 3 3 8 4 4 3 2 1 1 2 3 1 2 4 7 6 7 15 18 20 19 18 17 14 11 9 5 3 1 3 2 1 2 5 4 8 12 13 19 22 16 10 5 8 8 11 9 8
2 5 5 3 5 5 3 5 3 4 4 6 6 5 5 4 5 12 12 13 14 13 12 9 8 6 3 2 3 4 2 2 4 5 3 9 19 22 17 17 21 11 2 6 7 7 10 11 9
3 5 7 5 3 2 3 5 4 7 8 5 4 6 5 4 3 11 12 10 7 9 8 7 5 6 7 6 9 10 7 5 2 6 11 14 21 21 25 18 7 1 6 10 11 15 12 9 9
6 6 3 4 3 4 3 3 6 11 7 10 12 8 6 2 4 4 6 14 10 9 9 10 13 19 18 18 17 15 12 10 12 16 18 18 23 22 23 10 2 5 9 10 12 13 11 8 6
2 5 5 5 3 3 3 4 4 6 8 10 6 5 7 6 4 5 9 17 21 20 19 18 17 16 14 13 11 9 10 11 14 18 20 23 26 23 17 10 9 5 11 9 9 10 10 9 10
2 2 3 6 2 2 3 4 4 4 6 7 8 7 7 6 6 7 11 16 17 17 16 16 14 11 9 10 11 12 12 14 16 19 22 24 25 23 10 11 6 16 5 9 12 11 13 12 13
2 5 3 3 2 2 3 4 4 5 8 8 7 8 8 7 8 7 13 15 16 17 17 15 11 10 10 10 12 13 15 17 18 20 22 22 20 11 10 8 12 6 7 11 16 14 12 14 16
2 2 6 5 3 4 1 5 5 10 11 10 8 8 11 11 8 6 11 13 15 18 16 12 9 6 6 8 11 13 14 15 17 20 20 19 17 14 14 14 14 10 13 16 17 16 15 16 16
2 3 4 4 3 1 3 5 3 8 8 8 9 7 6 7 7 8 11 13 13 14 12 10 5 3 4 7 10 11 12 14 17 19 19 18 15 15 18 15 11 15 19 15 16 17 17 17 14

GFSSGP_925_spd_015.txt.gz
Wind_Speed
2 3 1 1 3 1 2 1 1 5 5 8 8 8 8 9 4 2 8 11 28 24 21 22 23 25 24 24 22 20 18 17 16 14 13 13 12 12 13 14 15 15 15 15 14 14 14 14 13
1 3 2 1 2 2 0 1 16 12 11 9 9 7 9 5 4 5 8 13 26 24 21 22 23 23 23 22 21 19 18 16 14 13 13 12 12 12 14 14 14 14 14 14 14 14 15 15 15
3 4 1 2 2 4 2 12 17 14 10 5 5 3 1 2 4 6 7 19 27 25 25 24 23 22 23 21 19 17 16 15 13 13 13 12 12 13 14 14 13 14 13 13 13 14 14 16 16
3 1 3 2 3 3 5 12 16 10 5 4 7 7 4 2 10 12 16 20 23 23 23 23 23 23 22 20 18 16 15 14 13 12 12 12 12 13 13 13 13 15 15 16 16 17 17 17 17
3 1 1 1 2 1 2 14 5 9 7 3 1 7 5 6 9 20 24 23 23 22 21 22 22 21 20 18 16 15 14 13 12 11 11 11 13 13 12 13 14 16 17 17 18 17 17 16 17
2 1 1 1 5 2 3 12 12 8 12 3 1 5 4 12 16 18 22 24 23 23 22 20 20 19 18 17 16 14 13 13 11 11 11 13 13 13 13 12 13 13 15 16 16 16 16 16 16
2 2 3 4 5 9 5 7 4 10 11 8 6 3 4 8 18 21 22 18 17 19 20 19 19 18 17 16 15 14 13 12 11 11 12 14 13 13 12 11 11 11 10 12 13 14 14 14 13
3 2 4 2 5 6 7 3 10 13 2 7 4 5 6 12 20 19 19 17 15 16 16 17 16 16 16 15 13 13 12 11 12 12 13 15 13 11 9 8 7 7 7 7 7 7 8 9 10
3 2 4 6 10 4 7 5 5 2 4 4 2 4 12 24 22 18 18 18 18 18 17 14 16 16 16 15 14 12 11 11 11 11 12 11 10 9 7 5 4 4 4 4 4 4 5 6 8
2 2 7 3 14 19 15 12 7 3 5 2 6 11 24 23 22 19 17 16 16 16 17 16 16 17 15 13 13 12 11 11 12 10 10 8 7 5 4 2 2 2 2 4 5 5 6 7 9
4 3 4 5 9 13 13 3 4 10 8 6 11 18 19 20 20 19 18 18 19 14 14 19 17 15 13 12 12 10 9 10 10 9 8 6 4 3 2 2 2 3 4 5 7 6 8 10 11
3 4 5 3 5 13 9 8 5 9 2 4 15 22 21 18 19 21 20 18 16 16 17 18 15 13 11 10 8 8 8 8 5 5 5 5 4 3 3 2 1 2 4 6 8 9 11 12 11
3 4 4 1 6 6 9 6 5 7 1 14 17 17 17 16 15 14 12 12 15 16 15 14 13 11 10 7 7 6 6 5 4 4 5 5 3 2 2 1 1 3 5 8 9 10 10 8 9
2 4 4 4 7 4 6 3 3 2 8 14 17 15 12 13 15 11 12 12 15 12 13 12 12 10 9 6 3 3 6 8 6 4 5 7 4 3 2 2 2 4 8 10 11 9 6 6 5
4 4 4 4 3 4 5 5 5 8 7 14 13 9 9 9 11 13 11 9 10 10 11 13 13 11 10 4 7 3 8 11 8 10 8 7 3 2 3 2 4 7 9 9 6 5 5 4 5
2 3 4 1 3 3 2 4 6 11 7 11 11 9 9 6 5 3 0 8 11 10 12 15 15 15 16 11 13 13 8 6 3 3 5 6 5 4 2 4 5 6 4 4 5 5 5 5 8
7 4 3 4 7 4 5 2 8 9 7 7 7 8 7 6 7 7 4 3 7 11 15 16 18 18 14 6 12 7 4 5 7 8 7 5 3 1 2 3 3 3 4 6 6 6 6 6 9
4 5 2 5 5 11 9 4 7 7 7 7 6 6 6 5 5 5 7 8 10 13 16 19 18 12 8 6 6 9 10 8 7 7 5 3 2 3 4 3 4 5 6 6 7 7 6 6 10
5 3 4 3 2 7 6 5 8 6 6 5 5 6 7 5 5 7 11 14 18 19 19 19 15 12 10 18 17 13 8 6 6 4 2 1 2 3 4 5 7 9 11 11 12 12 10 8 12
4 6 4 4 3 6 6 9 6 6 3 2 6 7 8 8 9 9 12 14 15 17 16 15 15 18 20 18 14 7 8 6 6 3 2 1 3 5 8 9 12 14 12 11 9 6 7 7 8
2 6 4 5 7 7 6 3 3 5 5 4 4 6 8 11 13 12 15 17 14 14 17 19 20 19 15 9 8 7 7 7 3 1 1 4 9 15 16 16 14 15 12 6 3 6 8 10 8
4 2 8 12 2 3 2 3 1 2 3 4 6 7 9 12 12 14 14 14 19 16 18 17 17 13 10 7 4 4 3 2 2 2 4 6 10 12 12 14 13 15 6 1 3 5 7 8 10
3 6 8 3 4 4 1 2 2 6 7 9 9 7 8 8 9 12 16 18 20 22 19 16 12 11 8 8 9 10 10 9 6 5 6 9 12 15 16 16 17 13 4 1 2 3 5 6 6
9 5 6 3 2 1 1 3 5 9 14 14 10 8 9 9 6 10 10 13 16 14 16 18 19 21 20 19 18 17 15 11 8 8 11 12 17 20 21 19 15 6 4 1 1 4 6 7 4
3 4 1 1 0 4 1 3 5 14 11 17 16 14 12 8 7 6 8 8 8 13 16 20 20 20 18 16 14 12 10 8 9 12 13 18 18 19 18 20 11 9 5 2 5 7 5 4 5
2 3 4 5 3 1 1 5 2 2 11 16 16 13 11 9 8 7 7 9 11 15 19 18 17 17 15 14 13 11 10 9 10 14 17 18 19 20 22 16 13 9 3 7 12 8 6 7 8
3 2 2 6 2 0 2 3 5 1 8 12 14 14 14 12 9 9 11 12 13 14 17 17 15 16 15 13 9 8 8 9 11 15 19 21 23 23 19 12 14 11 10 9 10 10 10 10 10
1 6 3 2 3 3 2 5 6 5 12 13 15 16 14 11 10 10 12 11 11 14 16 14 15 15 12 9 7 7 8 11 14 19 21 22 21 20 13 12 13 12 13 8 11 13 12 13 13
3 2 5 4 1 2 2 4 4 9 14 16 17 15 14 12 12 11 11 11 11 14 13 14 12 9 6 5 5 7 9 11 15 18 20 20 20 19 15 13 13 12 10 12 18 14 14 15 14
1 3 4 3 4 1 0 5 1 6 8 9 12 10 11 13 13 13 13 13 13 12 14 12 6 3 2 0 3 6 8 11 13 16 18 19 19 17 15 15 14 11 15 20 17 10 12 13 13

GFSSGP_925_spd_018.txt.gz
Wind_Speed
5 2 2 6 6 6 8 6 4 9 10 8 8 10 12 13 6 1 13 14 24 24 25 24 24 24 24 23 20 18 17 16 14 13 13 12 12 13 14 14 14 13 13 13 13 13 13 14 14
4 4 5 2 7 8 6 1 5 12 14 11 13 9 9 7 6 8 12 17 25 23 25 23 24 23 23 21 19 17 16 15 13 13 12 12 13 14 15 14 13 12 11 11 12 13 14 14 14
5 5 4 4 7 10 2 10 13 16 12 9 6 8 3 3 5 13 7 20 21 22 23 23 25 24 22 20 17 16 15 14 13 12 12 12 14 14 14 13 12 11 12 12 13 15 15 16 17
7 6 4 8 8 3 2 15 13 13 11 7 14 9 3 6 6 5 10 19 22 22 20 23 24 22 21 19 16 16 14 13 12 12 12 12 13 13 13 13 13 13 14 15 17 15 16 16 17
6 4 7 8 3 3 5 16 5 2 6 10 10 14 11 7 9 13 13 14 20 23 19 23 21 20 19 16 16 15 13 12 12 12 11 12 13 13 13 13 14 15 15 15 16 15 15 15 16
6 4 6 10 5 4 7 16 7 11 5 9 7 12 6 7 12 16 20 23 19 20 17 17 18 18 16 16 14 13 11 10 10 11 11 12 11 13 13 14 12 14 13 14 14 14 13 13 14
9 8 6 3 8 7 7 11 4 13 5 4 7 7 4 8 10 14 20 16 16 18 17 17 16 14 15 12 12 10 9 8 8 8 10 11 11 11 11 11 10 9 9 10 9 10 10 10 11
4 5 6 7 10 12 11 7 4 1 2 1 2 5 6 13 16 16 15 15 15 14 14 15 15 13 11 10 10 9 8 7 7 8 10 10 10 8 7 7 5 6 6 4 4 4 5 7 8
3 6 8 8 11 11 12 12 6 7 2 1 2 0 11 21 19 17 16 14 14 14 13 13 13 12 11 9 7 6 7 7 8 8 8 7 5 4 3 4 4 3 2 1 1 2 4 7 11
7 6 5 5 11 17 16 12 9 6 11 6 6 10 20 21 20 18 17 16 15 13 13 12 12 12 11 8 8 7 6 6 6 5 5 3 2 2 2 1 1 0 1 3 3 3 6 9 11
6 6 4 7 11 6 7 15 9 8 10 7 11 20 19 19 17 17 15 14 15 13 11 10 10 11 9 8 7 6 6 5 4 4 4 2 2 3 2 2 1 0 1 2 4 4 5 8 10
9 7 2 11 13 10 14 11 8 8 9 4 15 20 22 17 17 17 17 15 14 14 12 10 10 9 9 7 7 5 5 4 4 4 3 3 3 3 3 2 2 1 2 3 4 5 6 9 9
12 2 3 5 6 11 9 7 2 6 6 12 20 19 18 15 15 15 14 14 13 12 11 11 11 10 9 8 7 5 4 2 2 2 3 3 2 1 3 3 3 2 2 3 6 7 10 10 10
2 4 1 4 11 6 7 5 4 9 5 14 18 16 15 15 15 14 11 12 11 11 12 12 12 11 10 8 7 6 2 2 5 6 4 5 2 6 5 4 4 3 3 5 7 9 11 11 11
7 7 5 6 12 6 6 9 6 5 5 12 15 13 12 12 12 10 10 10 11 11 12 13 14 13 13 14 12 9 10 9 9 11 10 8 13 10 5 4 4 4 4 6 7 8 9 11 12
7 7 8 6 11 4 9 12 6 3 9 13 14 12 11 9 9 7 6 9 10 11 13 14 14 16 17 12 11 6 16 9 3 1 3 7 7 6 3 2 2 4 5 6 7 9 11 13 13
7 8 8 9 2 7 7 9 5 2 10 11 11 11 10 9 9 7 6 8 11 13 15 15 15 15 15 16 15 17 7 3 6 6 5 5 4 3 1 2 4 5 6 7 8 9 10 13 14
8 8 13 12 4 8 7 6 4 4 10 11 12 10 11 11 8 6 5 7 10 12 14 15 16 14 12 10 9 7 7 7 6 5 4 5 4 4 4 4 4 5 7 8 10 11 13 14 15
6 6 11 8 4 5 5 7 4 5 8 10 11 11 11 10 8 8 8 10 12 14 16 16 16 17 14 12 13 12 9 6 5 5 6 5 5 5 5 5 6 8 10 11 12 14 17 17 14
5 9 8 5 3 4 9 6 5 4 5 6 10 11 11 9 10 11 12 12 13 14 13 14 14 13 13 12 9 7 8 6 6 5 5 5 5 6 6 7 8 10 13 15 13 11 12 13 10
4 4 10 6 7 3 9 7 8 4 5 6 6 6 8 10 10 11 14 14 14 14 14 16 16 16 11 8 7 7 7 6 4 2 3 3 4 6 7 8 10 12 14 15 10 7 7 11 11
5 1 9 13 12 8 7 7 9 7 7 7 8 9 9 11 12 14 15 15 16 16 16 16 15 11 8 6 7 5 4 4 4 3 3 3 5 8 10 11 12 13 13 11 9 7 7 8 12
3 7 9 7 4 5 10 7 8 8 9 12 11 12 13 14 14 13 15 17 15 15 15 13 13 12 10 10 10 9 9 8 5 3 6 8 10 12 14 15 15 15 13 9 7 6 6 10 15
11 10 6 3 2 6 4 7 6 8 15 15 15 14 14 14 14 15 16 15 14 12 12 12 13 14 13 13 13 13 10 7 6 8 10 12 16 17 18 17 17 15 12 9 7 5 10 14 12
6 9 4 5 6 8 2 6 11 3 4 17 19 17 16 15 14 14 16 16 15 13 13 15 15 15 12 13 12 11 10 8 7 10 12 15 17 18 19 19 17 15 12 9 6 8 12 10 9
7 6 4 5 5 4 3 6 1 1 5 11 17 18 18 17 15 14 16 15 15 16 14 14 14 14 11 10 10 9 9 7 7 9 12 14 16 18 19 18 16 13 11 8 9 12 10 10 10
5 6 2 2 1 3 6 5 10 4 8 13 19 19 19 18 16 14 15 15 17 18 16 14 14 13 11 10 8 5 7 6 6 9 12 14 16 17 17 16 13 11 12 11 12 13 13 13 12
3 8 3 3 3 4 3 6 4 6 10 15 20 20 19 18 16 13 15 16 17 17 15 14 14 13 10 7 5 3 3 4 6 9 13 14 16 17 17 16 14 15 16 16 15 17 16 15 14
4 4 1 0 2 3 3 1 3 1 8 16 19 20 19 17 16 14 16 17 17 17 15 15 13 9 8 9 7 5 2 2 6 9 13 14 16 17 17 16 16 16 16 17 19 20 19 16 15
3 4 7 4 4 0 2 4 3 1 3 10 16 18 17 16 16 15 18 19 19 18 17 15 12 11 8 7 6 3 1 4 7 10 13 14 16 17 17 16 16 16 18 21 22 18 13 13 15

GFSSGP_925_spd_021.txt.gz
Wind_Speed
10 8 10 10 7 8 16 19 3 9 9 12 7 2 11 13 11 3 19 20 28 27 26 25 26 26 25 22 21 20 17 15 14 13 12 12 12 12 13 13 13 13 12 13 13 14 14 14 13
9 7 11 9 8 13 13 12 6 12 12 14 9 8 8 11 9 10 11 21 26 26 25 23 25 25 24 21 19 17 15 14 12 12 11 11 12 13 12 12 12 12 12 12 13 15 16 16 15
7 11 10 7 13 14 10 10 16 11 13 9 5 9 3 5 8 10 10 15 22 25 24 22 24 24 22 19 17 16 14 13 11 11 10 11 12 13 12 11 11 12 12 13 14 16 17 19 19
9 8 8 10 17 8 7 9 14 13 8 2 10 7 4 4 4 6 15 16 18 23 23 23 23 21 19 17 15 13 13 12 11 10 11 11 11 12 12 11 12 14 14 13 14 15 16 16 17
14 9 11 14 18 2 6 8 13 4 9 3 8 7 5 2 9 9 16 12 17 17 21 25 22 20 17 14 14 13 12 11 10 10 10 11 10 12 12 13 13 13 13 12 13 13 13 14 15
8 11 13 14 14 7 7 20 10 8 8 4 12 11 5 11 11 12 14 24 24 16 18 22 19 17 16 13 14 12 11 10 10 9 10 10 10 10 11 11 12 11 11 11 10 11 11 13 14
15 11 16 16 8 5 7 22 5 11 7 4 9 9 5 11 10 10 14 20 27 30 23 20 18 16 14 14 13 12 10 9 9 9 10 10 10 10 8 7 6 7 7 7 8 8 8 10 11
12 12 20 8 8 10 6 3 8 14 4 1 3 2 6 10 9 16 12 18 30 35 28 23 17 15 14 13 12 10 9 8 8 9 9 9 8 8 6 5 2 3 4 3 4 5 6 6 8
12 10 14 11 6 12 13 9 3 7 6 5 3 5 9 16 15 20 17 14 17 18 18 18 16 14 13 12 10 9 8 9 9 9 9 8 5 3 1 1 2 2 3 4 5 5 6 9 7
11 12 16 5 8 3 14 13 13 10 10 8 8 10 19 19 15 17 18 16 17 18 14 12 13 13 12 12 10 8 7 8 8 7 6 4 3 0 2 1 3 4 5 5 6 5 6 9 11
14 14 5 3 19 17 15 7 10 6 8 14 12 15 17 17 14 13 14 16 17 16 14 12 14 12 11 10 10 9 8 7 6 5 3 2 1 0 3 3 3 4 5 6 7 7 9 10 12
13 12 4 4 4 7 5 13 16 23 7 6 15 17 16 13 13 15 14 15 18 15 14 11 12 10 9 10 9 9 9 6 4 4 1 2 4 2 5 8 7 6 6 8 9 11 10 11 12
10 3 3 4 5 12 8 7 20 16 14 15 18 17 16 14 15 16 15 15 15 15 15 13 13 12 11 10 11 10 9 6 6 3 2 1 1 3 2 6 12 10 9 10 11 12 13 15 15
8 8 5 7 7 13 7 3 12 9 14 15 17 17 15 14 16 15 14 14 13 15 16 16 15 14 13 13 13 11 9 7 6 4 4 5 5 6 20 14 11 8 8 9 11 11 13 15 16
5 6 9 9 10 8 6 9 9 7 13 15 16 15 14 13 14 13 12 13 14 14 16 16 16 16 15 16 16 12 12 10 11 6 9 9 10 13 4 6 6 7 7 9 11 12 14 16 17
8 9 10 8 15 6 14 11 9 7 12 16 17 15 14 14 14 14 13 15 15 15 16 16 16 17 16 16 12 7 14 8 7 7 4 1 3 3 1 3 3 5 7 8 10 12 13 16 18
6 13 13 9 13 9 14 13 11 10 11 15 14 14 13 13 13 11 11 13 14 14 16 16 16 17 15 14 13 10 12 9 4 3 3 3 3 2 1 1 2 5 7 9 10 12 15 18 20
16 17 12 13 11 12 11 12 9 11 14 14 15 15 14 13 13 12 9 9 12 14 16 15 16 17 14 12 10 5 4 7 7 5 5 5 3 2 1 1 3 6 8 11 13 15 17 19 22
10 6 10 12 5 10 10 8 11 11 13 14 15 15 15 14 12 10 9 9 10 12 14 15 15 14 13 11 11 10 11 10 8 7 6 4 3 3 3 3 6 8 10 13 15 18 19 21 20
3 5 12 8 9 7 9 10 10 12 14 15 14 13 14 13 11 10 11 12 12 13 14 16 13 14 12 12 13 12 11 9 9 7 5 3 3 3 4 6 9 10 14 16 17 17 18 17 17
4 5 7 10 12 14 10 14 14 11 8 8 10 13 14 14 13 11 13 13 12 13 13 14 14 14 13 12 10 9 9 8 8 5 3 2 4 5 7 9 11 14 15 17 17 15 14 18 16
9 2 8 4 12 14 17 12 17 16 15 13 14 12 11 13 12 12 15 16 15 15 15 15 17 14 11 10 10 8 4 6 5 3 3 3 5 7 10 12 13 15 17 17 16 15 12 15 15
13 4 6 8 13 7 17 9 11 17 15 15 13 14 13 13 14 15 16 18 18 17 17 16 14 12 11 9 8 6 6 5 4 2 3 5 7 10 12 15 16 16 18 17 15 14 14 13 17
4 4 5 7 11 7 15 12 13 13 14 15 14 13 14 16 16 17 20 21 19 17 16 16 15 14 12 12 11 11 8 5 3 3 5 7 10 11 12 14 16 17 17 16 15 13 12 15 17
8 8 7 8 6 9 2 7 12 9 7 10 17 17 16 16 16 17 17 19 19 18 17 16 15 15 14 13 12 11 9 7 5 6 6 9 10 11 13 15 16 18 17 16 14 10 15 18 15
9 12 7 6 7 11 6 7 2 9 3 5 17 17 17 17 16 17 18 18 18 18 18 16 16 15 14 13 12 10 7 4 2 2 6 7 10 11 14 15 17 17 15 14 10 14 17 14 14
5 9 6 5 1 6 11 17 11 6 5 8 16 17 18 18 17 17 18 18 18 18 18 18 17 15 14 13 9 7 7 5 1 2 5 7 9 12 14 15 16 16 14 16 15 17 18 17 14
8 3 4 6 5 9 7 7 0 6 5 9 15 18 18 18 17 15 17 17 18 19 19 18 17 16 13 9 9 10 8 5 2 3 6 9 10 12 14 15 16 17 17 17 19 19 21 21 15
7 9 7 5 3 4 4 2 8 3 2 9 12 17 18 18 18 16 16 19 20 21 21 20 19 16 12 11 12 10 7 6 5 6 7 9 12 13 15 16 16 16 17 17 19 22 21 21 18
10 8 10 5 6 2 3 7 3 4 2 7 9 13 16 18 17 16 19 20 22 23 23 22 19 13 12 13 12 10 9 8 8 8 9 11 13 14 16 17 17 17 17 16 18 21 19 16 15

GFSSGP_925_spd_024.txt.gz
Wind_Speed
10 11 11 17 6 8 16 20 22 10 9 7 3 7 14 11 7 3 8 30 33 30 31 30 28 27 26 24 22 21 20 18 17 17 17 16 17 17 18 18 17 16 16 16 17 17 17 17 17
9 14 16 6 8 12 15 9 17 13 12 11 13 9 9 13 12 14 15 24 32 29 30 31 28 26 25 23 21 21 19 18 17 16 16 16 16 16 16 17 16 16 16 17 19 20 21 22 21
10 12 7 7 13 15 15 8 11 13 10 11 7 9 2 10 12 9 20 26 31 29 25 27 26 25 24 21 19 20 19 17 17 16 15 15 16 15 15 16 16 17 17 18 18 20 21 21 21
7 9 7 9 19 22 18 15 11 11 5 7 11 8 5 9 9 14 25 24 31 24 22 26 22 22 21 19 17 18 18 17 17 16 15 14 14 14 14 16 17 17 17 17 17 18 18 18 20
15 7 10 14 19 22 8 17 9 13 13 1 1 9 6 8 14 21 22 20 27 27 25 20 17 17 17 17 17 17 17 16 16 15 15 14 13 14 14 16 16 16 16 16 15 15 15 17 19
8 10 12 15 23 22 2 21 24 13 5 15 6 10 11 12 19 15 19 26 26 31 28 21 18 17 16 17 17 16 16 15 15 14 14 13 13 13 13 14 14 14 13 13 12 12 13 14 17
14 12 16 20 16 5 10 20 15 15 10 10 9 4 14 13 26 24 24 29 28 24 22 22 21 20 19 18 16 15 14 15 13 13 13 13 12 11 10 9 10 9 9 8 8 9 10 10 11
12 12 21 19 18 12 15 4 13 9 2 6 8 2 3 20 27 30 27 25 24 20 22 23 22 20 21 18 15 14 14 14 13 13 13 13 12 11 8 9 6 6 6 6 7 7 8 7 6
17 11 13 21 17 6 15 22 10 13 10 5 5 2 21 26 26 26 28 29 20 22 20 17 18 19 18 18 15 14 13 13 12 13 13 12 9 6 6 5 4 4 6 6 7 7 8 12 16
12 11 20 1 10 7 6 21 22 2 8 11 18 20 22 22 25 22 29 25 35 29 19 19 19 19 18 16 16 13 16 14 13 12 8 8 7 3 2 1 2 3 5 5 5 7 10 10 12
16 16 12 6 18 8 8 17 5 11 8 9 2 19 17 20 15 19 30 37 39 26 21 23 22 19 21 18 18 14 14 12 11 9 5 7 5 4 2 4 2 4 5 4 8 13 6 12 10
15 16 15 5 11 12 9 12 19 11 8 10 7 18 18 17 14 15 21 31 27 22 19 19 22 16 17 16 15 15 14 12 11 9 5 5 3 8 6 2 3 10 8 10 8 11 11 11 14
13 13 4 7 4 19 20 16 13 13 14 9 10 13 13 15 20 21 21 28 28 26 21 21 19 17 17 16 18 17 15 13 9 7 10 7 4 4 5 5 9 8 6 8 12 14 15 16 14
8 11 6 5 7 3 14 17 10 11 13 14 16 14 13 13 19 15 20 26 23 27 22 20 18 18 17 19 18 16 13 12 8 4 4 3 6 3 3 8 7 6 5 9 10 13 12 14 17
5 7 3 5 11 7 19 13 10 19 19 15 16 13 10 12 18 13 19 19 24 27 25 23 22 21 20 22 19 18 13 6 5 4 4 7 6 3 3 3 6 6 6 8 10 11 14 13 16
7 2 8 10 5 5 6 2 9 13 15 15 17 14 13 11 15 13 14 16 20 26 25 23 21 21 23 22 22 12 3 7 1 4 0 1 3 1 4 5 2 5 6 7 8 10 12 16 18
3 7 12 9 17 11 10 7 10 8 13 14 14 14 13 11 13 16 15 17 18 28 27 22 22 22 20 20 11 1 3 2 2 6 7 8 8 7 4 2 3 5 6 8 9 10 14 16 18
9 12 11 11 11 14 15 13 12 12 15 15 15 12 11 11 12 13 14 19 16 26 28 25 19 20 16 16 12 3 2 4 10 8 6 8 6 5 4 2 3 5 6 8 11 13 14 15 17
15 13 15 12 12 10 11 14 13 13 11 13 11 14 14 11 14 15 10 10 15 26 28 26 23 21 19 16 10 11 9 11 12 11 9 7 7 5 4 3 5 6 7 10 12 14 14 14 16
15 10 8 8 5 7 11 11 15 14 15 14 13 15 16 16 15 15 13 11 9 19 24 22 19 17 16 15 16 15 17 14 15 11 9 7 6 3 3 3 4 7 10 12 13 14 15 12 13
13 3 8 6 9 9 9 13 15 13 14 15 15 14 15 16 16 13 15 15 13 18 23 20 17 17 18 18 18 16 18 16 14 9 13 8 4 2 2 5 7 9 10 12 14 14 15 8 11
6 11 4 11 11 7 6 6 6 16 12 14 12 13 14 14 15 14 14 15 18 22 21 17 21 20 15 16 14 13 13 14 13 13 9 5 1 3 5 6 8 8 11 13 14 13 13 11 11
3 15 12 16 8 4 11 6 10 20 11 15 12 11 11 13 13 14 15 21 19 18 22 24 20 16 14 8 15 11 16 14 12 10 6 2 3 6 7 8 11 13 15 15 16 16 15 12 12
12 10 13 9 8 2 15 11 7 14 19 8 10 11 10 9 11 13 19 21 20 18 19 19 18 16 13 13 12 16 15 14 15 9 4 3 6 6 7 9 11 13 14 16 16 14 10 6 11
8 9 6 6 6 4 14 7 9 17 10 17 24 16 12 10 12 13 14 19 19 18 18 18 19 18 17 16 16 16 15 13 10 5 4 2 4 7 9 11 12 13 15 16 16 11 10 11 17
17 11 2 4 3 11 9 5 3 17 14 21 20 14 13 12 11 13 17 19 20 20 20 21 21 20 19 18 18 18 13 9 10 10 6 2 3 6 9 10 13 14 16 16 13 14 14 14 15
6 2 3 9 14 3 4 17 6 8 9 5 17 15 14 14 13 14 18 21 21 20 21 21 22 21 20 20 16 12 11 13 12 7 4 2 4 6 9 12 13 15 17 18 15 17 17 18 17
6 7 3 2 2 4 8 13 4 6 5 3 11 13 14 13 15 13 16 19 20 20 21 20 21 23 22 19 16 12 15 13 10 7 4 2 4 6 10 12 13 14 15 16 18 15 15 16 17
6 6 7 8 4 1 3 3 7 7 5 5 5 14 14 15 14 13 15 21 20 20 20 19 20 23 20 16 15 15 15 14 10 7 5 3 6 8 10 13 14 16 17 17 13 14 17 16 18
8 9 10 3 4 2 1 7 4 5 4 3 4 6 15 15 14 14 17 19 18 19 20 20 20 20 19 16 16 16 16 13 13 8 5 6 7 9 11 13 16 16 18 15 15 16 17 13 14

GFSSGP_925_spd_027.txt.gz
Wind_Speed
9 8 7 3 2 2 5 9 5 2 4 3 6 11 10 7 4 6 11 29 35 35 26 25 28 27 26 25 24 23 23 23 24 23 23 24 23 22 21 21 21 21 21 21 23 24 24 24 22
9 4 5 2 3 2 6 9 3 7 4 7 10 5 7 6 6 14 16 30 39 39 35 29 27 27 26 25 23 23 23 23 23 23 23 23 22 21 21 22 22 22 21 21 22 24 25 24 22
9 8 1 4 4 5 8 1 7 6 7 6 4 9 5 4 9 11 29 35 36 33 35 35 28 26 24 23 23 23 21 23 22 23 22 21 21 21 22 23 22 21 20 21 23 24 24 25 23
2 4 4 1 10 17 10 4 7 5 9 10 8 5 4 9 9 17 31 37 39 34 37 35 28 24 23 22 23 22 22 21 21 23 21 20 21 22 22 22 21 20 20 21 21 22 23 26 23
5 1 2 3 12 14 3 7 6 6 5 3 4 3 4 10 21 34 32 26 41 38 35 33 30 23 22 20 22 21 21 20 21 21 21 21 21 22 22 21 20 20 19 18 18 18 19 22 22
3 2 1 7 11 5 7 10 6 9 4 3 3 6 4 19 21 19 26 25 32 41 35 32 30 23 20 20 21 20 19 19 20 20 20 20 22 22 19 18 17 16 15 15 14 15 15 16 20
5 1 8 10 15 5 4 2 5 4 5 4 4 6 6 21 29 30 36 27 31 30 30 29 26 21 21 21 21 20 19 18 19 19 19 20 20 19 16 14 13 12 12 12 11 11 11 11 13
5 4 7 10 14 4 3 4 5 7 4 4 1 5 8 9 31 36 36 34 31 24 19 21 20 22 23 22 20 19 19 19 19 19 19 18 18 15 14 10 9 9 8 9 10 11 10 13 12
1 2 9 13 5 2 5 3 5 9 5 3 6 4 23 29 35 37 36 30 24 30 20 25 19 20 23 22 20 19 18 19 20 19 20 17 15 12 8 9 7 7 7 8 9 9 9 10 12
4 4 7 2 7 6 6 5 11 5 5 5 19 18 29 26 30 28 25 24 28 30 25 26 24 24 23 22 19 19 20 20 20 18 17 13 12 9 5 6 7 6 5 4 8 8 6 8 9
6 8 11 2 6 8 4 5 11 11 4 4 13 15 20 26 24 21 23 36 34 28 21 22 25 26 25 22 22 22 21 20 17 12 14 14 9 8 3 3 3 3 4 6 6 11 10 10 11
4 12 14 9 5 4 4 2 4 4 7 14 10 12 6 20 28 35 24 23 27 27 22 24 26 26 25 25 24 22 20 19 16 13 13 13 11 10 12 12 7 10 8 11 12 11 9 10 11
6 8 6 9 17 9 11 7 4 4 11 11 12 9 12 20 33 28 33 28 28 23 27 27 27 26 23 21 20 22 23 21 19 14 10 8 9 7 6 3 6 6 7 6 6 8 9 7 7
7 7 2 2 24 15 8 4 4 3 7 4 4 12 11 16 31 31 30 31 27 31 30 25 23 23 24 28 30 25 22 16 11 10 7 8 6 5 2 2 4 4 5 6 4 6 8 7 9
5 5 2 4 10 7 15 4 2 3 8 7 6 8 12 15 30 29 34 33 34 31 31 23 26 23 24 24 22 19 15 13 10 8 4 7 7 4 1 3 5 4 5 4 5 4 5 5 7
4 4 2 2 7 6 7 3 7 11 11 9 11 9 8 10 16 31 31 34 34 34 31 25 23 18 25 22 21 20 11 8 1 2 2 5 5 4 7 7 4 3 5 5 3 4 7 10 12
2 0 5 6 9 6 4 4 16 11 13 11 11 9 10 9 15 27 34 36 36 37 33 28 26 27 26 24 22 10 6 4 6 10 12 14 13 8 10 3 2 4 4 3 5 7 11 13 11
3 5 8 5 7 5 5 6 10 10 12 13 10 9 9 10 9 26 29 35 37 39 38 34 31 29 26 25 16 8 9 5 13 14 15 13 12 10 7 4 4 3 1 4 8 11 11 11 13
9 6 10 9 6 9 8 8 9 9 7 9 8 6 12 10 14 25 26 33 33 40 38 38 34 29 27 27 17 12 14 17 15 18 16 11 8 8 6 7 4 3 4 7 10 9 11 14 10
13 9 14 5 7 5 3 8 10 9 7 15 12 10 9 8 10 17 16 24 31 34 37 38 34 28 25 27 19 16 19 19 21 17 13 11 10 6 4 1 3 7 11 12 9 11 14 12 7
4 4 8 3 2 3 3 5 6 3 8 13 14 17 15 15 13 9 16 26 31 32 38 35 32 27 23 25 23 22 22 24 19 16 15 12 7 5 1 4 5 7 8 9 11 12 11 4 8
4 6 5 4 5 1 4 1 4 4 3 2 9 10 16 12 14 13 17 20 30 28 32 29 26 24 26 26 23 29 29 26 20 21 16 11 9 8 5 3 1 3 6 9 11 12 14 11 4
7 4 3 2 2 1 1 5 6 4 8 5 5 7 10 16 18 16 16 24 30 31 26 26 22 23 23 23 29 31 25 23 26 22 18 15 9 6 5 4 6 10 13 11 12 15 14 9 3
7 2 3 3 2 2 5 5 3 5 20 4 5 9 7 10 11 11 23 27 28 24 21 24 21 22 20 26 25 27 31 29 26 20 16 11 6 4 0 3 8 10 11 13 13 13 5 3 6
5 5 3 5 6 4 10 2 11 13 8 15 19 13 3 10 13 12 13 17 22 23 23 27 27 22 22 23 27 29 29 25 20 16 11 9 7 3 2 6 8 10 11 12 14 10 10 13 12
4 5 4 4 2 4 11 4 6 18 14 15 14 4 5 9 10 13 15 20 27 27 27 25 26 25 22 22 23 23 20 18 13 12 11 9 6 2 2 5 7 10 12 13 13 15 14 14 15
4 1 6 6 4 4 5 8 6 10 7 4 6 5 8 9 9 12 17 24 27 23 21 22 25 23 21 20 21 18 15 12 14 13 9 6 3 2 2 7 8 10 13 15 15 14 16 12 11
4 3 1 3 4 4 4 3 2 5 5 9 8 9 9 9 10 11 16 23 28 25 22 19 25 25 24 23 20 15 11 13 14 11 9 6 3 4 5 6 9 11 14 15 17 11 7 10 9
1 3 2 3 5 4 1 4 3 5 5 10 10 13 15 14 13 13 16 25 31 30 29 23 25 27 26 23 18 11 13 13 13 10 10 6 5 4 6 8 10 13 15 17 9 12 13 13 10
4 5 5 5 5 2 4 5 3 6 5 7 8 12 13 15 15 14 21 25 28 32 33 29 26 30 27 21 15 11 14 14 13 11 9 7 7 5 6 7 9 13 14 15 16 15 12 9 7

GFSSGP_925_spd_030.txt.gz
Wind_Speed
7 5 2 1 3 5 3 8 4 6 2 3 2 11 8 4 2 3 18 19 33 33 35 35 35 30 28 26 24 23 24 24 26 26 27 27 26 26 25 25 26 26 27 27 28 27 26 24 25
5 2 2 2 4 3 5 5 10 2 3 2 5 5 5 4 4 11 13 32 38 37 37 36 37 34 30 27 25 24 23 24 25 25 26 25 26 26 27 26 26 27 27 27 27 26 25 25 28
3 4 3 4 4 5 5 3 2 2 1 2 4 4 4 3 11 10 20 32 37 33 34 36 36 34 30 27 26 25 24 25 26 24 24 24 25 28 28 27 26 27 26 26 26 27 25 26 28
1 4 3 3 6 5 5 6 1 3 2 5 2 7 5 15 11 13 36 33 31 32 35 35 35 34 31 28 27 26 26 25 24 23 23 24 26 28 28 27 26 25 25 24 24 25 24 24 25
1 3 1 2 3 4 6 5 5 4 6 4 4 4 5 9 24 30 32 30 32 30 35 35 33 31 29 28 27 26 26 25 24 22 23 26 27 27 26 25 24 22 21 21 20 22 23 22 23
3 3 1 2 1 2 2 2 2 1 4 4 5 5 5 14 26 23 22 25 25 29 33 34 30 30 30 28 26 24 24 24 24 23 24 25 26 26 24 22 21 19 18 18 18 17 18 20 21
4 2 3 3 3 3 1 6 2 5 2 5 5 4 4 11 23 23 22 30 28 25 20 26 28 27 25 22 22 22 23 23 23 23 24 25 24 23 21 19 17 16 15 15 15 14 15 12 15
3 4 4 3 3 3 4 3 4 4 5 4 2 3 6 5 24 28 27 33 27 25 25 29 23 18 17 20 20 21 21 22 22 23 22 21 20 19 18 16 14 13 13 13 13 11 12 12 11
4 1 1 5 4 2 5 7 5 2 12 6 6 6 15 18 27 31 30 28 27 22 25 34 26 18 21 22 21 21 21 21 21 22 21 20 19 15 14 13 11 10 10 11 9 9 9 9 10
3 3 5 6 4 5 8 6 5 4 9 9 16 21 23 13 19 27 21 22 21 25 27 31 31 24 23 21 21 21 23 23 23 21 20 16 16 13 12 11 9 7 6 5 4 6 7 8 9
3 6 4 4 4 5 4 2 1 6 3 8 21 15 19 17 12 17 17 32 32 20 36 28 23 26 25 22 22 22 23 23 21 17 16 13 9 9 9 8 6 6 7 7 11 13 9 9 9
3 8 7 4 6 6 5 5 3 4 5 10 16 23 22 11 11 20 20 20 23 19 34 27 24 27 24 23 23 23 24 21 16 13 13 12 14 11 13 12 11 11 12 12 10 8 8 8 10
6 14 3 9 11 6 5 6 6 4 8 13 22 22 21 19 20 15 29 32 31 24 27 28 25 28 26 28 26 24 23 19 16 14 14 15 15 14 13 10 9 10 8 7 4 4 4 4 6
6 3 8 10 6 4 6 4 3 3 10 11 19 23 22 21 24 14 17 21 22 25 26 28 29 29 27 27 23 22 20 19 18 15 13 13 13 10 8 8 9 8 5 4 3 4 4 6 5
4 3 12 6 7 3 5 2 5 10 13 14 16 17 21 24 23 26 28 26 30 26 26 29 31 29 29 25 23 24 24 22 16 13 13 14 11 9 8 7 7 5 5 4 1 2 2 4 8
6 5 5 9 8 9 2 3 5 7 13 8 10 16 22 21 26 26 28 29 31 30 32 25 31 32 29 30 27 24 20 18 14 10 13 14 12 11 8 9 8 7 5 4 4 5 8 11 13
5 1 2 3 9 7 4 3 5 6 9 8 6 14 18 20 23 27 30 32 34 38 34 28 30 33 32 29 25 20 16 12 10 10 11 13 14 13 12 9 8 6 5 4 6 8 11 11 8
2 2 3 3 4 5 7 7 7 8 9 11 9 9 14 20 21 31 33 34 37 41 37 33 31 32 30 27 22 16 12 12 14 15 16 16 14 14 12 10 8 4 3 5 8 10 10 10 12
2 5 7 13 9 5 8 7 9 10 8 10 9 10 12 18 22 32 35 34 32 34 40 37 36 35 33 30 23 17 15 17 16 15 14 14 12 13 11 7 3 2 3 6 9 8 10 12 8
5 7 8 12 8 6 6 6 8 9 11 14 13 12 14 11 14 22 32 32 34 39 38 40 40 39 35 32 26 17 15 19 16 18 16 14 12 10 7 3 1 3 5 7 8 9 10 9 5
6 5 6 5 4 6 5 5 1 3 5 8 12 17 14 19 20 18 27 33 32 31 37 40 38 36 35 31 24 17 19 18 23 22 18 15 10 7 5 5 5 3 2 3 4 7 7 6 7
7 6 5 6 4 0 3 2 4 4 7 13 7 6 13 15 16 14 24 27 34 36 36 37 37 36 31 32 29 26 28 27 27 26 20 15 11 8 7 7 5 3 1 3 5 6 9 10 9
9 4 2 2 4 3 3 3 5 2 6 10 12 13 11 13 17 15 20 29 32 37 40 39 35 32 30 31 30 29 31 31 28 25 21 16 13 10 9 8 3 2 5 6 8 9 9 8 6
5 3 6 5 3 2 4 4 5 4 10 6 6 9 14 11 9 7 18 25 26 32 33 32 33 30 27 28 28 30 34 30 28 25 21 18 14 10 5 3 4 7 8 8 9 9 4 2 6
3 5 3 4 4 5 5 4 8 7 8 11 12 7 8 11 12 11 14 20 24 28 34 34 30 25 25 28 30 32 34 32 30 26 22 17 14 9 4 2 5 7 7 8 10 7 7 9 11
5 5 5 4 2 4 4 5 6 7 10 8 3 9 7 9 11 14 15 22 26 29 31 28 29 25 23 27 28 30 30 30 28 23 18 15 11 7 4 4 7 7 8 10 11 11 10 10 9
4 2 4 6 4 2 4 5 6 5 5 2 6 7 7 8 10 12 14 21 26 28 32 34 33 28 26 26 27 27 26 23 19 15 12 11 8 5 1 4 6 8 9 12 12 15 13 8 8
6 4 1 3 3 3 4 4 4 2 4 4 2 6 7 7 8 10 14 21 27 30 32 33 31 30 27 26 26 24 19 15 15 15 12 10 7 5 2 7 4 7 10 12 14 14 7 9 10
2 0 2 4 4 4 1 5 5 7 7 8 9 9 11 14 14 15 17 26 32 34 34 33 32 32 31 31 29 24 20 17 17 14 12 11 8 5 7 6 6 7 10 12 13 13 14 13 9
4 6 6 5 4 1 4 5 4 7 8 7 8 8 9 13 16 16 22 26 28 33 35 39 39 38 37 34 30 25 20 19 20 17 15 14 9 12 9 8 8 9 11 12 14 15 13 12 10

GFSSGP_925_spd_033.txt.gz
Wind_Speed
1 1 1 3 3 5 2 6 3 7 6 5 1 2 6 4 3 2 12 17 27 31 34 33 31 30 29 28 26 26 25 26 27 29 29 28 28 29 30 32 33 31 26 25 26 28 28 27 23
2 4 3 2 4 3 5 4 5 7 2 2 5 3 7 4 4 7 9 23 34 32 35 34 33 33 29 30 28 26 25 26 27 27 26 27 27 30 31 33 33 31 29 26 27 29 30 30 28
3 3 3 4 3 4 4 4 2 1 2 2 0 5 3 3 5 7 12 28 32 32 33 34 35 35 30 31 29 26 26 27 26 26 25 27 28 30 31 32 32 31 28 27 28 30 29 29 26
4 4 4 3 5 5 4 7 8 1 6 11 6 5 3 10 9 9 24 25 26 30 31 35 35 34 32 30 29 29 28 27 25 25 25 27 28 28 31 30 29 28 28 27 26 27 28 27 27
4 3 2 1 4 4 3 5 4 3 6 5 8 4 4 6 11 23 22 22 21 26 31 35 35 35 32 30 29 29 28 25 24 25 26 28 29 28 29 28 26 26 25 25 23 22 24 22 22
4 3 3 1 4 4 3 0 1 3 1 3 6 1 4 10 19 17 19 16 19 26 25 27 29 30 31 29 29 28 26 24 22 23 26 27 27 26 25 25 23 22 21 20 19 18 19 19 19
5 3 4 2 5 5 2 2 4 3 5 2 5 3 2 7 20 20 20 17 17 20 22 21 23 29 29 26 24 25 24 22 22 23 24 25 24 23 22 21 20 19 17 16 16 15 12 15 13
4 3 2 2 3 5 3 1 7 5 1 2 5 7 6 3 25 23 25 31 27 26 27 33 31 23 24 26 24 20 19 21 22 23 24 23 22 20 19 17 16 16 15 14 13 12 12 11 11
3 4 1 3 3 5 3 3 2 3 6 4 3 3 14 18 28 32 29 27 25 30 30 26 19 20 19 16 16 18 19 20 22 23 22 21 18 17 16 14 14 14 11 11 10 9 8 8 9
3 4 5 5 3 5 3 3 3 4 5 5 11 14 18 21 26 23 19 24 32 40 34 29 33 26 19 17 18 20 20 22 22 21 19 17 15 14 13 12 11 10 8 7 7 8 8 7 7
4 4 3 6 5 4 5 3 5 10 3 5 16 13 14 15 16 16 15 18 29 25 22 30 29 19 18 19 19 21 21 21 21 19 17 16 13 12 11 10 8 8 7 7 9 9 8 7 8
2 8 6 5 6 5 6 5 4 3 1 12 12 14 13 10 11 17 18 21 26 24 21 34 23 19 20 18 20 21 22 21 21 18 16 13 13 12 10 7 9 9 9 10 9 10 10 10 9
4 5 5 5 8 4 5 5 6 4 9 15 14 13 11 11 12 11 16 22 23 21 25 30 23 21 21 19 19 21 21 20 18 17 14 13 13 13 15 13 11 11 9 8 8 8 8 7 7
2 6 4 2 8 5 8 4 5 3 12 15 13 12 11 11 15 12 13 17 26 25 30 28 26 23 22 22 22 22 22 18 14 16 15 17 15 15 14 12 11 10 9 8 7 7 6 6 6
4 3 3 3 1 4 8 4 6 12 13 18 13 11 11 12 15 18 24 25 31 30 30 27 23 22 25 25 23 22 20 18 16 17 17 15 13 13 13 12 10 10 9 8 6 6 4 4 6
4 4 3 2 2 3 1 3 4 15 14 14 14 11 10 13 17 17 22 25 30 28 28 26 24 23 26 26 24 22 20 21 18 16 15 15 14 12 13 14 12 10 9 5 4 4 4 7 9
6 2 3 1 5 2 1 6 7 12 14 13 15 13 12 12 12 15 20 27 31 29 27 27 26 27 28 26 22 23 23 20 17 14 14 15 13 11 14 13 11 10 6 3 2 3 5 6 6
3 4 3 3 3 6 4 2 12 15 12 15 12 11 11 13 17 23 26 29 31 28 27 27 29 31 30 26 25 23 21 19 15 13 13 13 15 17 15 13 10 7 5 2 1 5 5 7 10
3 2 2 4 5 5 8 5 14 11 6 8 8 10 14 17 23 24 26 29 27 26 30 30 33 33 32 32 28 24 22 18 16 15 15 16 18 16 12 11 8 7 3 2 3 4 8 11 10
6 5 10 9 7 8 7 6 5 10 12 12 13 12 14 14 12 20 24 26 27 32 36 36 36 37 38 37 32 26 21 18 18 20 18 14 14 14 11 8 8 4 1 2 6 9 9 8 6
2 3 7 8 4 4 6 3 4 4 4 6 8 14 14 18 19 16 23 29 29 33 41 43 41 40 40 36 30 21 20 20 20 21 18 16 13 12 9 8 3 1 3 6 9 8 7 5 5
5 3 6 4 1 2 4 3 4 6 13 9 13 11 16 17 17 17 23 28 32 36 35 36 39 41 40 37 32 28 27 24 22 26 21 18 14 11 7 4 3 5 6 9 11 9 7 6 7
9 3 5 1 3 3 4 4 5 0 8 15 15 16 15 17 17 17 21 28 31 28 34 37 39 38 39 38 35 29 28 28 26 25 22 18 14 11 9 6 5 7 8 9 9 10 8 7 5
3 2 4 4 2 2 3 4 5 5 12 11 15 17 14 11 9 9 19 22 23 28 35 38 36 38 37 36 36 29 26 27 26 25 22 19 16 13 10 8 7 8 11 10 9 7 4 4 5
5 5 3 4 4 4 2 1 8 7 8 9 10 14 13 12 12 12 14 22 23 31 36 32 33 34 36 34 31 29 25 27 26 30 26 22 18 14 11 8 4 10 7 6 7 8 7 7 8
1 5 4 3 3 4 3 4 6 5 6 6 6 9 6 9 14 16 19 24 26 29 30 28 31 34 33 31 26 28 27 29 29 31 27 23 20 15 12 3 11 4 4 5 7 7 7 8 9
3 2 3 6 3 2 3 6 10 6 4 6 5 6 8 9 12 15 17 23 23 27 30 35 36 30 30 30 30 30 28 28 30 28 23 20 17 13 4 3 3 3 4 5 8 8 8 6 6
2 6 1 3 2 3 4 4 5 5 6 3 7 8 8 6 7 8 12 19 23 29 32 36 35 34 33 30 30 30 27 29 32 30 28 23 17 15 10 9 5 5 6 7 8 8 6 8 11
2 2 3 4 5 4 1 5 7 6 5 7 8 6 8 8 10 11 13 22 27 30 30 31 34 35 33 32 32 33 32 30 28 27 25 22 19 18 14 10 12 10 9 8 7 8 10 12 13
3 2 5 4 4 1 4 6 4 8 6 5 9 5 6 7 10 12 14 18 23 29 32 37 39 40 38 34 32 31 31 29 28 28 25 20 20 17 13 13 11 10 10 9 11 10 11 12 12

GFSSGP_925_spd_036.txt.gz
Wind_Speed
3 2 3 4 4 5 3 6 3 4 2 5 4 2 4 4 0 2 1 13 30 33 32 33 34 33 32 31 31 29 30 31 31 30 30 29 30 31 32 31 30 29 28 25 26 24 23 23 23
5 4 4 3 5 3 5 4 3 3 3 6 3 2 6 5 3 4 6 20 30 32 31 31 32 33 32 31 30 31 31 33 32 30 30 30 32 33 34 31 30 30 29 28 29 28 28 26 25
5 3 3 4 4 4 5 4 1 3 5 3 3 5 3 4 3 1 10 24 27 31 31 31 31 32 31 31 32 31 31 31 31 29 30 32 32 32 33 32 31 31 30 29 29 28 25 23 21
2 5 4 4 5 5 5 4 2 2 4 5 3 5 4 8 6 3 19 25 24 28 31 30 31 30 30 28 30 30 32 31 29 28 29 30 29 31 31 31 31 30 28 29 27 27 24 23 21
3 3 3 1 3 5 4 1 1 2 4 2 3 2 4 4 8 15 15 17 21 25 27 29 30 30 29 27 28 29 30 28 28 29 28 29 30 30 29 29 30 28 28 25 25 24 24 25 24
4 3 4 1 4 4 1 3 4 2 3 2 4 6 4 6 10 16 15 16 19 22 26 26 27 28 27 25 27 27 27 27 26 27 28 29 29 28 27 27 26 24 23 23 20 21 21 20 19
5 3 3 3 4 5 3 4 2 5 5 2 0 5 5 7 16 20 19 17 16 22 27 26 28 28 22 23 24 24 25 26 27 27 27 27 26 25 23 22 20 19 19 18 17 16 17 16 15
5 4 2 3 3 5 2 2 2 3 2 5 5 4 5 5 23 23 23 20 19 22 28 33 30 30 20 21 22 22 22 23 24 25 25 25 24 22 20 17 16 16 15 15 16 15 14 13 13
3 4 2 4 2 5 2 1 1 2 4 4 5 2 12 27 25 25 26 27 28 26 26 39 31 25 21 20 19 21 22 21 23 23 23 23 21 18 17 15 14 14 12 11 11 12 11 12 11
4 3 5 5 4 4 3 3 4 3 3 3 6 12 17 21 24 18 17 22 27 33 38 31 19 24 22 21 19 19 20 22 23 23 22 21 18 16 15 13 12 10 11 9 9 9 11 11 10
5 5 6 7 7 3 5 2 3 8 2 5 9 12 10 12 15 18 21 24 27 35 40 38 31 28 28 15 17 17 19 21 22 21 20 18 16 15 13 11 9 8 8 8 11 11 10 10 10
2 7 5 4 4 4 5 4 4 2 3 10 11 11 10 10 11 17 23 22 26 26 32 32 33 32 18 16 17 18 19 22 22 19 18 16 14 12 12 11 9 9 11 12 10 10 11 10 9
3 4 2 5 7 5 6 2 4 4 5 10 8 10 11 10 13 15 20 19 22 22 31 36 33 20 16 14 16 18 19 21 20 18 15 13 13 13 11 10 12 11 11 10 11 10 9 7 6
3 5 2 4 3 4 8 2 2 1 3 6 9 8 8 11 13 15 15 17 21 26 33 40 26 17 18 16 18 19 20 20 18 17 13 11 12 13 13 14 13 11 10 10 9 9 7 7 5
3 0 2 2 4 3 7 3 3 8 5 6 5 4 6 6 12 13 15 21 25 26 30 32 27 19 19 16 16 19 20 18 16 16 16 15 13 13 14 14 13 11 10 9 8 6 5 4 4
4 3 1 1 2 1 3 2 3 7 8 5 5 4 4 5 6 9 14 20 22 25 29 28 25 20 19 17 18 20 20 17 14 17 18 17 15 15 15 13 12 11 11 9 6 5 3 4 6
6 1 4 3 4 3 2 1 5 8 8 7 6 6 5 5 8 16 18 21 23 27 27 25 22 20 19 19 20 19 19 19 17 17 16 14 14 14 15 14 13 12 10 8 5 4 3 4 4
1 2 3 2 3 2 4 2 5 12 10 11 9 6 7 7 13 20 21 23 23 23 23 24 22 20 19 20 21 20 20 20 19 15 14 14 14 15 16 15 14 12 10 6 3 3 4 3 4
3 2 3 5 4 6 9 5 11 12 8 7 9 7 8 11 13 17 22 25 26 24 23 25 25 25 24 25 24 23 24 21 16 16 13 13 14 16 16 15 14 11 6 4 4 3 3 3 4
2 4 6 6 3 5 4 6 12 13 16 15 15 12 14 13 7 13 20 26 30 31 29 28 29 29 29 30 29 26 24 20 18 14 12 12 15 17 16 15 12 8 5 5 4 3 2 4 4
4 2 5 4 5 1 4 2 5 5 5 7 9 11 9 12 13 12 18 26 31 34 36 34 34 31 31 32 30 23 22 18 18 17 17 17 17 18 16 13 10 9 7 6 6 5 2 4 4
2 5 3 5 1 1 3 3 4 5 15 8 13 10 13 12 9 10 17 22 27 27 30 34 34 32 32 32 33 31 31 23 24 25 22 20 19 18 14 12 11 10 7 6 6 5 7 10 7
8 3 2 2 2 3 3 4 4 4 7 18 15 15 14 14 14 13 18 27 30 31 31 33 35 37 34 35 36 34 28 27 21 25 24 23 20 16 15 13 12 9 7 5 5 7 9 6 3
1 2 6 4 3 2 3 4 5 5 12 17 15 15 16 13 13 13 19 19 24 30 31 34 34 36 36 38 38 36 33 25 21 28 27 23 22 19 16 14 9 4 4 6 6 9 6 2 1
3 5 3 3 4 4 3 2 8 8 4 8 11 16 17 15 13 10 11 17 22 28 30 32 31 29 31 34 36 37 31 26 28 33 33 29 26 23 20 14 10 2 5 6 5 4 3 4 7
3 6 5 2 2 3 3 5 6 2 5 7 8 7 8 9 11 13 14 21 25 28 29 29 32 33 36 35 34 34 33 29 30 34 36 33 29 26 23 16 4 9 5 3 2 4 4 6 7
3 2 4 6 3 2 3 6 9 3 4 6 6 2 8 9 12 15 12 22 23 27 31 34 32 36 34 37 39 37 33 33 35 36 35 33 29 27 24 12 5 6 3 3 2 4 5 7 7
2 6 3 3 2 3 4 4 5 7 4 2 5 7 6 4 7 6 8 17 22 25 30 30 33 39 39 36 37 34 32 34 35 35 36 34 31 28 20 11 11 8 8 4 4 5 8 10 10
2 2 4 5 4 4 1 5 7 7 6 6 5 8 8 7 7 7 7 16 22 24 27 33 35 33 33 32 30 32 32 31 29 31 36 34 32 27 16 16 13 14 9 9 8 9 10 11 11
5 6 6 5 4 1 4 6 5 8 6 5 9 4 5 7 7 6 6 11 19 26 27 28 30 30 32 28 27 27 28 25 26 32 35 35 33 23 18 16 17 14 10 10 10 13 13 12 13

GFSSGP_925_spd_039.txt.gz
Wind_Speed
2 3 3 3 3 1 2 4 0 2 2 3 4 1 5 6 2 1 1 8 25 31 30 30 34 34 33 33 32 31 30 30 31 33 32 32 31 31 30 28 28 25 23 23 22 25 25 25 24
4 4 2 2 2 3 3 1 3 1 3 1 1 2 5 4 3 2 6 16 31 30 29 29 33 33 32 32 32 31 31 32 33 34 32 33 33 31 30 29 27 26 26 27 27 28 26 25 23
3 1 1 3 2 5 2 3 2 3 2 3 3 4 2 3 3 2 5 24 32 29 27 28 34 32 32 32 32 32 33 32 32 34 34 35 34 33 30 29 29 27 27 27 26 26 24 23 22
1 2 3 2 7 4 4 1 1 3 2 3 4 7 5 3 2 2 18 23 32 27 27 32 34 34 33 32 31 32 33 32 31 34 35 34 32 31 30 29 28 26 26 26 24 23 23 22 22
4 2 0 1 4 4 4 2 2 3 1 2 3 6 4 2 12 15 17 20 28 28 27 31 32 33 33 32 33 31 32 31 33 34 36 35 33 32 30 28 27 25 25 26 26 25 24 23 20
2 0 1 3 4 3 4 2 3 4 3 2 4 5 3 7 16 16 17 21 20 27 30 28 25 25 30 33 33 31 30 30 32 32 34 34 33 31 29 27 26 25 24 24 25 24 23 20 18
2 1 1 3 4 4 2 1 2 4 3 0 1 4 3 10 15 17 17 20 21 24 34 33 30 23 23 29 31 31 29 30 29 30 32 31 30 29 28 25 23 22 21 21 21 21 19 19 17
3 1 2 3 1 3 2 2 1 1 1 3 3 4 5 6 17 20 14 16 22 26 35 35 33 29 22 22 27 28 28 28 29 32 31 29 27 25 22 21 20 19 18 17 17 17 16 16 15
2 1 3 3 3 1 1 4 1 1 2 1 3 1 14 22 23 25 25 26 30 28 30 37 41 27 25 22 22 23 25 25 27 29 28 26 23 20 19 17 18 17 16 16 14 14 14 13 12
2 2 5 5 4 1 0 2 6 3 2 2 4 11 22 23 20 20 20 20 26 33 45 52 31 22 26 19 21 22 24 25 29 29 26 24 20 18 17 16 14 14 14 14 13 12 12 12 11
3 4 3 7 7 2 1 3 4 5 3 4 7 11 12 17 18 20 16 25 29 32 33 35 38 25 21 22 21 21 24 27 26 26 23 21 18 16 15 14 12 12 11 13 13 13 12 11 10
3 8 6 5 2 4 6 6 2 2 5 5 11 11 7 14 16 18 19 22 27 27 28 29 37 33 23 24 17 23 25 26 26 23 20 18 16 15 14 12 11 12 12 13 14 13 13 11 9
5 5 3 5 4 4 5 3 2 4 9 13 12 10 10 12 17 18 20 21 24 28 27 35 33 34 23 15 19 20 21 23 23 21 18 16 15 14 13 12 13 13 14 13 13 11 9 8 6
2 2 1 2 3 4 5 3 2 5 7 10 10 10 9 11 18 19 17 21 24 28 30 26 29 29 14 14 16 17 18 20 19 17 16 15 13 13 13 15 14 13 13 13 11 9 7 6 4
2 1 3 2 1 2 3 3 3 8 8 10 9 7 7 10 16 20 22 25 24 24 24 26 30 20 15 14 15 16 17 18 19 18 16 13 15 16 15 16 16 14 13 11 10 8 6 5 3
2 3 1 1 1 2 4 2 2 6 9 10 9 7 8 11 16 21 20 19 20 22 26 27 23 18 14 14 14 15 17 18 17 17 16 16 16 16 16 16 14 13 13 11 9 7 5 4 3
5 1 0 2 3 4 1 1 6 8 9 10 10 7 6 9 13 15 21 23 22 21 22 23 20 18 15 16 14 16 18 18 16 17 19 19 15 15 16 15 14 15 12 11 8 6 3 2 3
3 1 1 1 2 3 4 4 8 11 10 11 10 9 8 9 13 18 18 20 21 21 22 24 25 23 20 19 17 17 19 19 18 18 18 16 16 16 15 16 16 15 13 10 7 4 4 3 2
4 3 0 2 3 3 9 6 13 14 10 10 11 10 11 12 10 15 19 20 20 21 22 23 23 22 20 20 18 16 18 20 20 19 16 15 16 16 18 19 18 16 12 10 7 5 3 1 2
3 1 2 1 2 6 5 6 2 13 11 13 13 12 13 11 9 14 19 21 25 26 26 24 25 25 24 22 22 16 18 20 21 19 17 17 17 20 20 20 19 15 12 9 7 4 3 3 5
2 1 2 3 1 2 2 2 2 6 10 9 12 10 12 13 13 12 19 23 23 26 26 25 24 26 26 24 24 21 19 17 17 18 18 18 20 21 21 20 18 15 12 10 6 5 6 5 6
2 1 3 3 1 2 1 2 4 5 10 11 14 13 16 15 14 14 21 24 25 26 26 28 28 29 27 27 23 26 21 18 17 20 20 21 22 22 21 19 17 16 13 8 6 5 5 8 4
4 3 1 1 2 2 1 1 1 1 9 17 18 17 17 17 17 18 21 24 24 26 27 28 25 26 24 27 25 28 23 21 21 22 21 21 22 22 22 20 20 18 13 10 8 7 4 4 3
4 2 4 3 2 1 1 2 3 4 7 8 16 18 18 17 18 19 24 22 23 22 23 24 22 19 22 26 28 30 25 27 22 25 24 23 23 23 23 23 21 18 14 12 8 5 1 6 5
2 2 1 1 1 2 3 1 6 5 6 9 11 17 20 18 17 17 18 22 23 24 25 25 23 25 27 27 30 31 33 32 28 28 30 29 28 26 28 26 25 19 15 10 4 4 7 8 5
5 4 4 3 3 1 1 4 2 3 6 8 8 11 9 14 15 17 19 23 24 24 23 24 25 27 29 29 31 32 31 31 29 29 33 34 34 32 30 28 22 17 11 6 6 10 7 7 6
3 3 2 6 2 0 1 4 8 1 1 3 3 5 7 8 12 17 16 21 21 23 27 27 24 25 32 25 29 28 28 28 31 31 31 34 35 33 31 28 23 15 11 10 11 8 6 6 5
2 6 2 1 3 3 2 3 3 3 2 3 7 5 6 6 7 9 10 15 17 19 19 20 23 27 32 26 23 25 24 26 31 31 31 31 35 35 34 29 20 16 13 14 12 6 5 5 6
3 3 4 3 1 3 2 4 6 6 2 4 5 6 7 7 6 5 7 9 12 14 17 21 21 20 19 23 26 24 24 26 27 28 30 34 37 33 32 28 21 16 14 13 7 4 3 12 10
3 6 6 3 5 1 0 5 3 7 5 5 7 4 4 6 7 4 6 7 9 12 13 14 16 18 21 22 23 24 24 25 27 29 31 32 34 29 30 24 20 17 17 13 8 4 10 17 15

GFSSGP_925_spd_042.txt.gz
Wind_Speed
3 3 3 6 7 6 13 8 5 6 4 4 2 4 3 5 4 3 1 9 22 28 30 30 33 33 33 35 34 33 31 29 28 29 30 30 29 28 29 27 24 24 22 22 23 23 24 24 24
2 3 6 2 8 11 11 3 10 2 4 1 3 4 5 3 4 1 4 14 27 27 29 29 34 34 35 35 34 32 29 29 31 32 32 31 30 30 28 27 24 23 22 22 23 24 23 24 23
2 4 6 4 7 11 9 3 3 1 2 5 3 1 3 2 6 4 4 19 29 29 30 28 34 34 34 33 31 30 31 34 34 33 33 33 31 30 28 26 25 25 24 24 24 24 23 23 22
4 6 4 9 11 10 10 1 4 6 5 5 4 5 5 2 1 4 13 26 28 29 27 27 32 32 31 31 31 32 34 35 35 33 34 34 32 31 29 26 26 26 25 24 24 24 23 21 21
4 3 8 8 7 5 6 6 5 7 3 3 7 7 6 3 5 7 18 25 26 28 28 30 31 30 29 31 31 35 35 35 35 33 33 33 31 29 27 26 26 25 24 23 23 23 22 20 20
5 4 8 5 4 4 6 4 6 5 3 4 6 7 4 5 6 9 13 23 29 27 27 32 29 28 27 29 34 35 34 36 36 34 33 33 31 29 26 25 26 26 25 26 25 23 20 18 18
9 6 6 5 2 4 3 1 4 5 7 4 2 3 4 4 7 10 16 17 22 20 34 32 29 25 24 27 31 33 34 36 36 34 33 32 30 28 26 25 25 25 25 25 24 21 19 17 15
5 5 5 1 2 6 5 1 1 4 3 2 3 4 5 3 11 17 20 23 27 28 29 37 33 30 27 22 28 30 33 36 35 33 31 29 27 27 25 23 22 21 22 21 20 19 17 15 13
3 5 3 1 4 7 2 4 2 2 4 3 2 5 9 18 16 19 23 25 27 31 35 35 36 33 27 23 21 27 29 31 34 32 30 27 21 20 19 18 19 18 18 18 16 16 15 12 10
7 4 2 4 6 8 5 7 3 5 5 6 5 10 16 16 17 18 19 18 23 29 32 37 36 32 24 19 18 19 21 22 29 29 24 19 18 16 17 18 18 17 16 15 14 14 13 9 6
2 7 6 8 8 7 6 1 1 5 6 5 5 12 11 13 16 16 17 20 27 32 31 39 41 36 29 19 15 17 17 24 22 23 19 17 16 17 15 15 13 14 13 12 12 9 7 6 5
8 8 7 6 5 3 2 2 2 3 6 1 12 12 10 11 12 16 17 21 27 31 32 39 43 35 30 28 18 17 16 17 16 16 17 16 15 14 13 12 12 12 11 11 10 8 9 7 7
10 9 8 5 3 2 3 1 3 4 3 9 11 9 11 11 14 16 20 23 23 22 25 29 28 28 34 28 24 11 12 14 14 17 15 15 14 13 12 12 11 11 12 10 10 10 8 7 6
6 9 1 3 1 3 4 4 4 6 7 9 11 9 12 12 15 18 17 22 22 21 26 31 31 30 32 23 19 14 12 14 16 16 14 13 12 11 11 10 10 10 10 10 9 8 6 5 4
9 8 6 6 4 2 4 5 6 9 8 10 10 12 12 12 16 18 17 19 28 31 32 31 28 24 20 16 14 14 15 17 16 13 12 11 12 11 11 10 10 10 10 10 9 7 6 5 3
8 7 5 4 6 3 6 9 8 10 9 10 11 11 13 14 16 20 17 20 30 31 28 26 24 22 15 13 14 15 16 16 15 14 11 11 12 12 12 11 11 12 11 10 8 7 5 3 1
7 5 6 3 6 2 6 4 10 10 8 10 11 12 13 13 15 17 22 24 25 24 25 22 24 22 15 14 12 13 14 15 15 13 13 12 13 13 12 12 13 13 11 10 9 7 4 3 1
6 7 5 2 4 6 7 6 8 11 11 9 11 13 14 15 17 21 23 24 23 23 24 25 23 18 15 14 12 13 14 15 14 15 14 14 12 15 13 13 14 13 12 11 9 8 5 3 1
4 6 6 1 2 4 8 10 7 13 12 12 11 11 13 13 17 21 22 25 26 25 25 26 24 20 18 16 17 15 16 17 15 13 13 13 13 14 15 14 14 14 12 11 10 8 5 3 1
6 6 4 1 2 5 7 7 5 12 13 12 12 12 12 12 14 20 23 25 25 27 28 28 28 24 21 18 17 15 16 16 15 14 13 14 14 16 15 16 15 14 13 12 10 8 5 3 2
9 7 3 3 1 6 6 7 8 9 11 11 12 12 13 14 16 16 23 26 26 28 28 27 26 24 22 20 17 16 15 13 16 16 15 15 15 17 17 16 16 16 14 13 11 10 8 5 4
11 2 3 5 6 4 3 4 7 9 12 15 14 15 14 15 15 16 20 25 27 26 25 25 24 24 22 22 20 21 20 18 19 17 15 15 17 18 17 18 18 18 16 15 14 12 10 7 9
7 1 4 5 6 4 6 6 8 5 9 14 17 18 17 17 18 19 22 26 26 25 26 26 26 25 24 24 23 22 22 19 16 16 16 16 16 17 18 19 19 19 17 16 14 13 11 11 14
5 3 4 4 5 6 4 6 4 5 5 3 6 17 18 18 18 18 22 23 24 26 27 27 28 28 26 21 21 21 21 21 16 19 19 19 19 19 19 19 19 17 15 15 14 12 11 12 11
9 7 6 6 6 7 3 6 8 2 3 6 8 7 14 19 19 19 20 24 25 28 28 29 29 30 27 29 25 29 25 22 24 23 24 24 22 21 22 23 20 18 16 15 13 13 11 11 11
13 11 6 4 5 4 3 6 2 3 5 7 7 8 8 12 17 20 19 23 24 26 28 28 29 28 29 28 29 21 22 25 23 24 22 23 26 24 27 26 23 19 16 15 12 13 10 10 9
7 8 1 2 1 4 4 5 8 1 2 2 3 4 3 6 12 15 18 23 23 22 25 27 26 26 26 27 25 22 24 23 22 22 21 21 27 27 26 28 24 20 19 15 13 8 11 10 9
5 9 5 4 5 6 4 5 2 4 4 1 2 3 3 1 3 6 8 12 16 19 20 21 23 24 23 23 23 19 18 19 19 20 22 24 24 25 22 24 22 18 19 17 15 11 12 7 7
6 6 4 3 3 5 5 5 2 6 2 3 1 2 4 3 1 3 5 7 10 13 15 17 18 18 19 19 20 17 17 17 17 19 19 20 22 25 26 26 23 22 22 19 14 12 9 8 11
7 9 10 6 6 3 5 8 5 9 6 5 4 3 4 5 3 2 5 7 8 9 10 11 12 14 15 15 16 15 13 11 13 14 14 14 17 24 21 23 23 24 18 15 17 13 9 7 13

GFSSGP_925_spd_045.txt.gz
Wind_Speed
4 7 10 11 8 8 18 20 21 5 2 0 6 0 5 8 8 4 17 7 15 26 27 27 29 33 34 33 33 32 30 28 26 24 24 25 25 26 27 27 25 24 24 24 23 23 23 23 24
9 7 12 9 8 13 14 19 6 6 10 8 1 5 13 9 7 9 4 8 14 21 26 26 31 32 34 33 32 30 29 27 25 26 26 27 28 28 26 25 24 24 24 25 23 23 24 24 23
7 9 10 11 12 14 13 6 4 7 3 8 3 5 3 4 6 9 10 15 22 19 24 25 32 33 34 33 31 30 28 27 28 30 29 29 29 28 25 25 25 25 24 24 22 24 23 22 22
9 11 7 9 16 12 17 8 3 6 7 8 12 7 7 4 5 1 16 20 27 27 23 27 33 33 33 33 32 29 28 29 32 31 31 30 29 28 27 27 27 27 25 23 22 23 22 21 19
13 8 10 15 13 7 5 12 4 8 11 4 7 11 8 5 5 7 14 18 24 30 28 33 31 33 33 32 29 29 31 32 31 32 31 30 30 29 28 27 27 27 24 23 24 22 20 19 17
9 4 12 11 3 1 5 3 6 8 5 1 10 21 13 4 7 10 11 19 23 26 30 30 29 30 31 30 31 32 30 31 31 32 31 30 29 28 26 26 25 25 25 24 23 21 19 17 16
12 10 14 8 3 6 5 8 6 9 9 12 11 4 5 5 6 2 5 14 21 26 32 26 22 25 28 30 31 31 31 30 32 32 31 29 27 27 26 25 25 26 26 24 21 19 17 15 14
7 6 14 5 4 5 6 6 3 6 7 6 4 6 5 8 8 13 13 17 21 28 38 33 20 19 24 28 30 30 30 32 30 30 31 27 25 25 24 25 25 25 24 22 19 17 15 13 12
7 10 7 0 6 4 5 5 4 3 10 4 3 9 13 16 14 17 19 22 28 29 37 36 34 16 20 25 29 28 29 31 29 28 28 27 26 20 17 18 22 22 20 18 17 15 12 10 10
9 11 4 7 10 10 9 9 6 6 12 9 9 9 11 14 11 16 12 13 17 26 32 36 41 36 32 26 24 23 20 25 25 28 24 20 21 15 14 19 18 17 16 15 15 12 10 9 6
4 9 10 8 9 9 6 14 6 8 8 29 4 10 10 10 12 14 13 13 14 20 33 32 32 36 31 35 22 19 20 18 20 28 20 19 16 17 14 15 14 14 14 12 12 9 4 4 5
8 9 8 9 6 6 2 5 9 7 6 6 11 11 9 10 8 13 17 16 21 24 24 32 33 34 31 30 29 23 19 21 18 14 12 18 14 16 14 14 13 12 12 11 9 6 6 5 6
9 8 8 5 2 4 1 4 1 6 10 15 12 11 9 9 12 14 16 17 24 25 29 30 32 31 31 34 27 17 19 20 17 16 12 17 14 13 13 11 13 12 10 11 8 7 6 5 4
7 10 4 4 2 7 10 8 10 7 11 10 9 12 11 11 11 16 18 20 16 27 28 34 25 24 30 22 20 19 22 22 16 17 17 14 12 12 11 11 10 10 11 10 8 8 7 6 5
11 12 8 6 7 11 4 19 11 12 10 8 11 11 11 13 17 14 18 18 22 22 27 24 30 27 27 20 23 23 19 17 14 16 15 13 13 14 12 12 11 11 10 10 8 8 7 6 4
13 14 5 7 9 5 16 13 14 15 13 10 9 11 8 11 18 17 19 23 24 32 29 26 29 34 27 28 31 17 21 19 16 13 13 14 14 13 12 11 11 11 11 10 10 10 8 7 5
13 5 7 16 8 14 5 14 15 12 11 10 9 11 12 15 18 18 18 23 28 29 30 27 30 29 25 26 21 14 13 14 15 16 15 15 16 14 13 12 11 12 11 10 10 8 8 7 5
9 12 12 6 13 9 9 13 11 12 9 12 12 12 13 17 15 23 21 27 30 30 31 28 28 28 20 17 15 16 16 17 18 18 17 16 14 12 13 12 12 13 11 10 10 10 8 6 4
9 10 10 5 5 4 11 8 5 13 10 11 12 13 16 16 18 18 25 27 23 26 28 26 26 27 18 18 19 18 18 19 18 17 16 15 15 14 15 14 14 14 13 13 12 11 9 7 5
10 10 12 2 1 7 10 13 3 14 12 13 13 15 14 17 20 23 26 28 27 28 27 27 28 27 24 19 19 18 18 20 19 18 16 16 16 17 17 16 15 16 15 15 15 14 11 8 7
10 13 3 8 7 10 12 13 9 9 12 12 14 14 16 16 19 20 25 26 28 29 29 29 29 27 25 22 19 16 15 16 19 19 19 19 20 19 19 18 17 16 16 17 16 15 14 12 9
12 12 4 9 11 6 14 2 19 14 13 14 14 15 17 19 19 20 23 27 28 29 28 28 29 28 25 23 20 20 20 21 19 18 19 18 20 18 20 18 17 17 17 17 17 15 13 11 9
10 1 6 10 13 14 11 8 13 10 14 18 17 16 16 19 19 21 23 29 30 30 30 29 29 29 28 27 25 21 19 17 17 20 18 19 18 20 19 18 19 18 18 16 15 13 12 10 6
8 6 10 10 11 9 13 10 14 8 13 13 19 19 19 18 20 20 27 29 30 31 31 30 30 30 29 28 25 21 19 20 20 15 18 18 19 18 20 22 21 21 20 17 15 14 13 10 7
10 13 9 8 6 10 7 5 3 15 5 2 2 9 20 20 18 20 21 24 29 31 31 31 32 33 32 28 26 28 27 24 24 23 20 16 17 19 21 23 22 22 22 17 15 16 16 11 9
15 16 7 5 7 6 5 6 4 9 3 4 6 5 7 15 20 20 22 26 29 30 32 32 32 32 31 29 31 29 30 31 23 23 27 28 25 23 20 24 27 25 21 20 18 19 15 10 6
18 18 13 4 8 5 7 7 6 6 3 4 3 3 7 11 15 22 22 27 27 29 29 30 28 29 28 28 31 32 31 22 20 19 24 26 24 21 24 30 28 25 23 21 16 16 12 9 8
13 13 10 9 6 9 11 10 1 6 5 4 2 2 3 2 4 10 14 23 27 26 24 27 27 26 24 22 28 32 26 18 18 18 21 25 21 22 25 29 29 27 21 19 17 13 11 9 8
13 9 9 6 8 6 7 5 5 3 2 4 2 1 2 2 7 5 7 10 14 17 21 23 24 25 29 29 24 26 19 16 18 18 18 20 20 21 21 20 22 22 20 17 15 13 13 13 5
15 19 17 10 12 7 7 12 13 7 9 3 8 5 2 3 1 6 7 9 11 13 15 19 20 22 22 30 23 24 18 15 15 17 18 19 18 20 20 22 24 19 19 19 16 13 12 10 4

GFSSGP_925_spd_048.txt.gz
Wind_Speed
9 9 10 16 7 8 17 20 22 22 3 6 14 16 3 15 9 4 5 6 8 28 13 22 25 29 29 31 31 29 28 27 27 26 25 25 26 28 29 29 29 28 27 24 24 24 24 27 27
10 16 14 9 10 13 13 19 16 4 6 4 3 6 4 15 2 3 6 10 24 17 17 20 27 30 29 30 30 28 27 27 26 26 27 27 28 29 29 29 29 27 26 24 23 24 26 25 25
10 13 7 11 13 14 16 9 19 3 9 7 9 16 16 7 15 5 6 30 39 31 24 18 24 30 33 32 30 28 27 26 26 27 29 30 29 29 28 29 29 27 25 24 23 24 24 24 22
9 12 8 11 15 17 18 3 9 12 9 5 12 10 10 19 5 10 20 32 36 36 33 31 24 28 29 31 30 28 27 27 28 30 31 29 28 27 28 29 28 26 23 23 24 23 22 21 18
15 8 11 16 19 20 9 13 8 8 13 3 11 13 8 14 9 11 21 27 26 21 27 31 22 21 29 30 29 27 27 29 31 30 30 29 29 29 28 29 28 26 24 24 23 22 20 20 18
10 11 13 11 15 3 18 23 16 14 10 12 8 7 4 6 11 10 17 23 25 26 26 27 28 29 27 28 29 29 30 31 31 31 31 30 30 30 30 29 28 25 26 24 22 20 19 18 18
13 12 16 18 13 13 6 10 13 25 15 10 16 4 3 12 3 12 12 17 25 27 30 29 28 27 25 23 27 30 32 31 30 31 32 30 29 29 28 27 26 25 25 23 20 19 18 17 18
10 11 19 15 2 5 5 10 14 13 4 7 10 2 6 6 13 23 27 30 30 32 30 30 29 27 19 19 22 28 29 32 31 30 30 29 28 28 26 25 26 26 23 21 19 17 15 16 17
13 11 10 13 10 3 7 5 6 25 2 9 15 27 8 8 16 26 30 28 27 30 32 31 30 28 33 22 19 22 25 26 26 28 28 28 28 28 25 26 25 23 20 18 17 14 12 14 18
10 12 7 13 8 12 13 9 12 6 12 11 21 20 3 5 16 17 19 20 19 28 29 31 33 36 38 41 21 19 20 23 26 27 26 28 26 20 23 23 21 19 17 15 13 10 9 9 9
14 12 7 15 8 8 13 9 12 6 7 4 4 4 6 9 14 18 16 18 19 22 32 34 35 33 32 36 34 26 25 19 25 25 21 23 20 18 21 19 17 17 14 14 11 9 4 2 9
7 13 12 12 10 7 14 7 6 16 11 10 9 7 9 9 10 17 15 16 22 21 25 31 34 33 33 33 31 29 21 24 30 17 16 16 20 14 16 15 13 14 13 10 9 4 8 5 6
10 14 10 8 6 7 11 21 29 13 17 14 14 10 11 11 14 17 18 19 23 24 25 24 28 36 36 37 34 27 22 20 15 16 16 12 10 17 11 17 15 11 14 10 11 7 7 7 6
12 9 15 9 12 3 17 8 22 7 13 14 12 11 9 10 14 15 18 18 19 26 28 28 27 31 35 27 29 24 15 19 18 21 16 16 13 12 17 15 16 15 12 11 9 8 9 7 5
11 15 16 6 11 3 10 7 6 13 4 12 14 10 11 11 15 16 15 20 20 21 30 27 30 36 34 30 32 22 23 24 21 15 17 16 10 17 11 13 9 11 12 12 10 11 8 7 5
15 18 16 8 13 5 11 4 14 16 9 10 17 13 13 12 15 18 21 23 23 26 21 24 24 34 37 34 24 27 28 20 11 13 14 17 16 13 12 14 12 13 13 12 11 10 9 11 10
16 14 12 12 8 4 9 2 19 21 13 10 17 13 15 12 15 18 25 24 28 30 28 33 31 38 29 26 32 35 25 15 15 19 19 20 21 14 16 13 15 16 15 14 13 11 13 11 9
15 13 9 7 5 9 10 16 16 14 13 10 15 15 17 15 14 19 23 24 26 27 25 27 26 38 29 31 41 34 25 25 25 27 25 22 21 18 18 16 16 18 15 14 13 11 12 8 11
15 15 11 15 9 7 10 4 17 6 14 14 14 15 15 16 20 21 27 31 27 31 28 29 31 32 31 28 29 27 24 21 26 23 26 26 25 22 21 20 20 17 16 16 17 14 12 13 7
12 14 15 6 8 4 11 8 20 18 20 15 16 17 17 15 17 20 29 31 32 34 34 33 33 33 33 32 33 25 24 24 25 24 25 21 21 21 21 22 21 19 18 18 17 17 15 15 15
12 15 7 9 9 10 11 13 12 15 14 16 16 16 19 20 20 18 24 28 31 33 35 35 36 35 34 28 27 24 24 23 25 23 20 23 20 20 20 21 18 19 20 19 20 20 18 18 13
14 9 11 6 9 10 4 10 6 11 13 12 15 16 17 18 21 20 25 31 34 35 37 35 33 34 36 33 29 24 22 20 23 22 22 25 23 22 21 22 21 18 20 17 21 20 22 17 12
12 4 9 9 11 12 5 8 1 10 14 15 14 16 17 19 20 23 23 30 36 34 37 36 37 38 35 30 26 29 23 22 24 30 27 26 21 20 23 20 21 22 19 19 19 21 21 16 11
8 8 10 12 11 9 14 9 4 4 9 12 18 16 17 19 21 21 30 30 30 32 33 37 36 36 33 35 32 24 22 22 19 22 29 25 20 20 24 23 22 23 22 22 21 21 19 16 16
9 9 8 6 7 8 9 6 6 13 17 13 16 19 18 17 18 19 22 24 30 32 35 32 32 29 30 33 36 32 20 23 26 21 14 17 10 14 23 24 23 25 22 21 17 17 18 18 13
13 14 7 6 3 7 10 5 7 13 4 4 3 4 11 17 17 19 20 27 30 33 34 34 33 34 30 32 29 33 34 31 30 26 26 22 19 35 29 27 25 25 24 21 20 21 18 15 12
15 14 16 7 7 7 5 7 14 11 7 5 7 5 6 6 14 18 19 28 33 35 37 38 34 32 32 35 39 42 37 27 26 22 25 27 25 26 30 24 27 25 25 24 23 22 18 14 12
17 11 10 9 4 4 8 12 5 10 8 8 5 4 6 3 4 8 17 22 31 36 41 42 41 38 36 34 37 40 39 35 23 17 18 20 22 25 27 28 27 27 24 24 25 22 17 14 12
12 16 9 15 10 6 4 1 6 12 3 7 4 8 2 3 7 2 5 4 23 30 39 42 37 33 29 29 29 27 30 26 20 18 16 18 20 27 26 24 22 24 25 26 25 17 16 16 14
18 17 16 8 8 4 2 6 2 6 7 5 7 5 4 3 1 8 2 2 4 3 8 31 30 29 27 30 29 29 29 22 19 19 18 18 23 23 21 17 18 22 26 25 20 19 17 19 16

GFSSGP_925_spd_054.txt.gz
Wind_Speed
3 3 5 5 4 4 4 7 5 12 3 6 0 1 7 6 4 4 2 19 18 28 32 24 14 16 24 28 30 31 31 34 37 39 39 37 36 36 36 34 33 32 30 29 29 28 27 26 23
1 2 4 3 3 1 5 6 4 15 7 1 8 0 5 3 1 5 8 27 21 8 27 33 37 34 20 27 29 31 33 36 38 39 40 38 37 37 37 35 33 32 31 29 26 26 27 28 28
3 3 3 4 3 4 4 4 11 8 13 4 4 6 3 3 2 6 5 19 26 15 32 34 37 34 26 28 30 32 34 36 38 40 40 39 38 38 38 36 34 33 30 26 25 27 25 23 23
1 5 4 3 7 10 6 13 7 7 7 11 2 6 3 3 7 9 4 15 19 32 28 30 23 32 39 39 37 33 35 36 37 38 40 38 38 38 38 36 35 33 29 27 27 25 24 22 25
3 3 2 2 8 7 8 6 5 8 4 4 6 1 4 4 8 2 4 17 27 24 26 25 28 31 33 31 28 35 35 36 37 38 40 38 37 36 37 35 34 31 30 27 26 24 25 25 27
4 3 3 4 6 7 6 5 4 4 2 1 3 5 3 5 5 1 10 16 19 20 26 26 27 28 30 22 22 20 31 34 36 38 38 38 36 35 34 34 33 30 27 25 23 22 24 30 23
6 3 5 5 12 10 3 8 7 5 2 2 1 2 2 4 5 1 13 9 13 16 28 26 27 30 25 25 27 16 25 30 33 34 37 38 35 34 32 32 31 29 26 24 21 21 22 25 23
5 4 4 5 3 9 4 3 3 3 1 1 5 3 2 4 5 11 10 9 8 25 30 31 26 27 30 36 33 29 26 31 33 34 36 37 33 32 31 30 29 27 25 23 21 22 20 22 23
4 1 5 7 2 5 7 4 3 4 4 2 7 4 6 6 8 15 18 15 9 29 29 35 34 37 38 37 35 29 28 28 31 34 37 35 32 30 30 30 27 25 24 22 21 20 18 19 20
5 2 8 7 4 5 3 5 1 3 3 2 3 4 4 6 5 8 15 20 6 25 30 37 43 43 41 38 34 34 35 33 34 34 35 35 33 30 30 27 25 23 21 21 21 19 15 13 13
4 7 16 19 10 9 8 4 1 4 2 4 5 3 0 4 4 4 9 13 20 29 31 38 43 39 36 46 41 37 37 36 34 33 32 34 33 31 29 27 23 22 18 17 18 14 8 11 11
2 11 15 10 5 5 6 6 2 3 4 11 9 6 4 4 3 5 10 13 17 23 30 36 36 36 32 31 36 39 40 37 34 34 33 33 32 31 29 26 23 21 17 16 14 11 11 13 10
6 6 10 5 9 6 7 2 6 4 7 9 10 7 7 4 3 5 7 14 15 22 27 34 37 31 38 38 40 41 39 37 36 34 33 32 33 31 26 24 20 18 17 15 12 12 12 11 9
3 8 9 4 7 5 5 4 4 6 8 10 10 8 5 5 5 4 4 8 14 22 27 32 34 34 38 39 37 39 39 36 33 32 29 28 28 26 24 21 18 18 17 16 13 13 12 11 9
6 7 10 5 6 5 3 2 3 6 10 9 7 8 8 4 5 5 6 8 12 19 27 32 34 34 38 37 28 35 37 30 35 28 26 24 20 20 18 19 19 20 20 17 14 15 14 11 10
5 3 3 2 5 3 2 7 5 9 10 8 7 5 6 7 8 7 10 11 15 21 25 28 32 33 37 37 32 31 30 34 34 29 20 18 17 14 16 17 19 19 21 18 17 19 16 13 14
2 6 6 10 7 7 6 7 4 8 10 11 8 7 6 6 7 8 11 14 18 23 25 26 31 32 35 35 32 29 27 27 26 22 21 18 17 12 15 15 14 16 21 22 24 22 18 17 17
6 4 3 6 4 3 4 8 1 7 10 13 9 8 7 7 7 13 12 15 13 19 20 26 30 29 34 34 34 31 31 21 21 27 24 15 17 16 15 14 14 15 20 22 24 22 20 19 18
5 7 11 16 11 4 8 6 8 6 5 9 10 10 9 8 8 14 15 18 17 23 25 25 25 30 34 31 27 27 26 21 20 27 23 15 16 17 16 16 17 18 23 26 25 22 20 20 19
8 10 15 10 5 7 5 11 1 4 4 8 12 13 12 7 9 11 14 20 19 21 26 28 32 33 30 30 31 25 26 24 28 23 25 26 24 22 24 26 25 24 23 24 25 25 23 22 19
13 12 10 7 4 2 6 6 3 4 6 7 13 14 13 16 14 13 18 23 23 26 29 30 32 36 32 31 32 26 27 26 25 25 26 30 27 27 28 25 27 26 25 26 28 28 28 26 22
13 13 6 6 3 3 5 4 4 8 11 8 16 14 16 16 14 15 20 25 29 29 28 31 33 34 37 34 28 29 29 26 26 28 28 31 33 31 32 32 29 28 29 31 30 29 31 28 25
9 6 9 5 3 2 4 2 6 12 9 14 16 18 17 18 20 19 20 29 31 29 31 33 37 37 37 37 31 31 28 28 29 30 31 35 35 36 32 34 32 29 27 31 33 31 31 29 28
9 2 5 5 2 3 6 6 4 7 19 18 17 17 20 20 19 19 29 29 29 30 31 33 35 40 39 34 35 35 34 36 31 32 34 39 37 36 33 32 29 29 27 28 31 28 25 30 30
4 5 2 3 3 6 5 3 8 16 15 20 23 20 21 21 20 20 20 26 29 33 35 34 36 37 39 38 40 43 45 42 36 34 36 39 38 37 36 33 33 32 31 26 29 30 27 30 29
7 8 5 5 3 4 5 5 5 6 7 17 21 22 20 21 21 22 24 31 35 37 39 38 38 39 43 44 47 50 46 42 40 36 41 42 40 42 37 33 34 29 23 25 26 27 28 28 28
5 3 8 6 2 2 4 7 9 2 2 8 15 15 17 22 22 24 23 33 35 37 41 45 45 45 44 44 44 46 44 41 38 38 42 44 37 37 39 37 32 26 25 23 26 29 28 26 26
10 6 4 2 5 3 4 4 6 3 6 5 8 16 18 20 21 21 20 31 36 40 43 43 44 44 45 42 42 41 43 43 40 37 42 39 35 31 39 36 28 27 26 26 28 27 26 26 22
2 3 2 5 5 6 2 5 7 9 6 6 6 9 15 17 19 18 18 30 36 36 36 38 36 37 36 35 38 42 41 40 33 36 36 33 31 30 30 31 27 26 27 29 27 25 25 22 21
4 8 9 5 5 3 4 8 5 9 9 7 7 8 8 14 19 18 17 26 28 32 30 37 38 42 44 49 51 40 38 36 30 28 28 35 34 28 31 25 24 24 27 26 24 24 22 24 23

GFSSGP_925_spd_057.txt.gz
Wind_Speed
1 2 1 4 4 5 4 6 3 7 5 4 2 2 5 2 1 2 6 9 22 28 30 29 30 30 23 15 19 27 31 35 33 34 37 38 40 40 40 41 39 36 34 31 30 28 27 26 25
4 3 4 2 4 3 5 5 6 5 6 5 5 3 3 1 1 2 7 20 32 30 29 30 32 29 28 8 11 26 31 33 31 34 36 37 40 41 41 41 38 36 33 29 27 25 22 21 21
4 2 3 4 3 4 4 5 6 8 4 3 3 5 1 4 3 6 5 24 30 28 30 35 35 16 17 38 35 32 32 32 31 34 35 35 39 40 41 41 38 35 31 28 26 25 26 27 27
3 5 4 3 6 7 7 9 7 7 4 5 4 2 1 3 2 2 6 21 26 21 25 28 28 23 32 36 32 27 32 33 31 33 34 36 39 40 41 40 36 33 31 26 23 24 26 30 26
4 3 3 2 5 6 6 6 5 2 2 3 5 3 1 2 4 3 6 16 34 30 26 34 27 33 35 34 35 33 38 38 33 32 34 37 38 40 41 38 36 33 30 28 24 25 29 28 27
4 3 3 3 5 6 7 4 2 2 3 3 2 1 1 1 4 5 10 12 18 29 34 39 34 31 28 23 33 30 30 38 34 32 31 36 37 39 39 37 35 33 31 30 28 27 30 26 24
6 4 4 4 5 6 4 5 1 4 3 4 1 2 0 2 9 7 14 16 16 26 27 29 31 29 36 26 29 27 23 32 31 31 32 35 36 37 37 35 33 31 30 30 30 28 26 23 21
5 4 1 5 3 6 3 4 3 5 5 2 3 4 2 3 6 3 10 11 14 18 26 29 30 36 36 33 34 36 25 30 32 31 31 34 34 35 35 33 32 30 28 30 27 28 23 22 20
4 3 3 5 3 5 4 4 3 0 2 2 2 1 2 1 1 8 7 9 14 16 22 28 33 40 37 40 41 35 30 32 34 33 33 34 34 34 33 32 30 29 27 28 26 26 25 25 23
4 4 6 7 6 6 3 6 7 4 2 3 2 1 6 4 3 3 6 5 13 13 26 30 37 39 40 37 40 34 31 31 32 35 34 34 34 33 32 30 29 28 26 24 24 21 22 21 21
5 5 5 13 9 8 5 3 2 2 3 5 5 4 7 8 4 5 7 10 8 21 28 39 40 40 44 47 41 39 34 32 33 36 36 34 34 32 31 30 29 28 26 24 20 17 16 17 16
2 7 6 7 6 7 4 3 4 4 2 5 6 5 1 6 5 7 5 14 16 18 26 37 42 44 35 49 46 36 38 40 38 37 37 35 34 32 30 29 26 26 24 23 17 12 15 15 13
5 4 4 7 2 3 5 5 4 3 4 4 4 5 3 4 7 7 9 11 14 20 23 27 33 34 37 36 34 31 34 39 39 39 38 36 36 32 31 28 24 24 23 20 16 13 17 13 11
5 5 9 4 6 5 6 3 2 6 7 6 5 4 3 2 6 6 7 9 16 19 27 31 29 25 31 32 29 33 31 35 39 39 37 37 37 35 30 26 25 22 20 17 13 14 13 12 11
2 5 6 4 6 6 5 5 8 7 10 7 5 5 4 4 3 6 8 11 15 21 21 32 30 31 33 30 33 35 35 34 34 36 35 37 35 32 26 25 24 21 17 16 14 15 13 11 11
5 1 2 2 5 3 6 14 1 10 12 9 7 5 5 5 7 6 7 10 15 19 24 28 28 30 35 33 33 36 34 36 33 35 37 33 29 23 24 25 22 18 17 17 16 15 16 13 13
2 5 2 7 8 2 5 9 1 10 10 7 6 6 5 3 5 12 8 10 15 19 21 24 28 27 34 37 37 29 27 33 31 30 26 24 23 22 24 22 19 17 18 19 18 18 18 18 16
5 4 2 5 3 2 2 17 2 7 7 9 7 7 7 6 6 11 12 11 14 19 23 24 24 29 26 30 26 25 24 29 29 23 18 21 22 20 22 18 14 13 19 23 22 21 22 20 19
1 2 4 9 10 7 10 5 10 6 6 7 7 8 8 8 5 12 10 11 12 15 19 25 25 27 25 31 31 27 23 26 29 31 20 21 22 19 17 15 14 15 17 21 24 26 25 23 19
5 6 10 9 11 8 6 8 6 7 5 9 12 10 10 6 8 10 14 14 16 17 18 20 26 31 31 31 26 20 26 28 29 34 30 21 18 16 16 16 15 17 18 20 23 26 26 24 20
8 7 8 8 8 3 3 7 3 5 4 7 9 7 6 9 11 12 16 17 16 20 21 21 24 28 29 32 28 24 24 21 21 27 31 23 22 19 16 19 20 19 21 22 24 27 28 26 21
8 10 13 8 4 4 4 4 5 5 6 8 8 10 11 10 8 8 13 16 19 19 21 21 26 29 28 30 27 25 22 23 24 29 30 27 23 25 22 23 21 22 26 26 27 29 31 29 24
10 5 10 11 5 3 2 2 6 1 7 11 12 13 13 13 12 12 13 20 23 20 24 24 28 31 29 29 32 28 26 22 25 26 30 31 29 29 29 29 27 28 29 31 31 31 31 30 26
9 3 1 2 3 2 5 5 5 5 8 7 6 12 14 14 12 11 15 18 21 24 24 27 29 34 37 34 35 34 34 34 30 31 33 33 33 33 35 34 35 34 33 37 30 27 28 26 26
4 3 3 2 1 6 5 3 8 9 13 13 15 16 16 15 13 12 13 17 21 25 27 29 31 31 34 38 40 40 41 42 39 40 37 36 35 35 36 36 37 36 38 36 27 28 29 27 31
6 9 5 6 4 5 3 5 6 7 11 9 10 15 12 15 15 16 17 22 26 29 31 32 32 34 35 39 42 43 41 40 43 39 37 37 37 37 34 34 35 36 36 33 27 26 27 28 28
4 5 7 6 3 2 4 6 7 6 5 3 8 8 13 15 17 19 17 26 26 29 35 37 34 34 36 38 35 35 37 38 35 37 36 35 38 38 37 35 36 38 38 36 27 25 28 28 29
6 5 2 2 5 4 3 4 5 6 6 7 6 10 13 14 16 16 16 24 30 34 34 32 34 35 31 30 36 37 39 42 40 39 38 35 36 36 38 37 34 35 40 34 28 28 27 27 26
2 4 3 2 5 6 1 5 7 7 8 8 8 9 11 13 16 17 18 28 31 29 31 31 34 33 33 38 40 43 45 51 44 37 37 38 33 36 34 32 28 27 30 28 27 26 28 27 27
4 7 8 5 4 2 4 9 4 9 7 5 6 8 6 10 17 17 18 24 26 32 31 36 37 37 42 42 42 45 40 38 35 36 38 39 40 35 34 39 38 30 32 30 27 30 31 30 28

GFSSGP_925_spd_060.txt.gz
Wind_Speed
4 4 3 4 4 5 2 5 3 5 4 3 5 3 3 1 2 3 2 11 18 28 29 30 34 31 32 32 33 34 37 38 36 34 34 33 32 33 35 37 38 37 34 31 32 31 29 28 27
6 4 3 2 5 3 5 4 6 7 5 6 1 3 4 4 4 2 6 12 24 33 30 31 33 33 36 39 37 39 40 38 38 34 32 31 31 34 36 37 38 36 34 30 29 28 27 27 28
4 2 3 4 4 3 4 6 8 4 6 1 1 2 2 2 2 2 6 15 29 32 34 34 34 34 34 35 38 37 39 38 37 34 32 30 30 31 36 38 38 36 32 27 25 25 25 26 26
3 5 4 3 2 6 7 8 6 6 2 3 1 3 2 4 4 3 2 14 25 31 31 36 36 35 30 26 34 34 35 33 36 36 32 30 28 31 37 37 35 33 31 29 25 30 28 27 27
4 3 4 2 4 5 6 7 4 4 3 1 1 2 3 2 3 4 5 15 22 27 28 35 35 23 19 25 31 34 32 35 38 38 33 29 28 31 35 36 34 31 28 30 30 32 30 29 29
4 3 3 2 4 5 6 7 4 3 2 2 1 1 4 3 3 5 8 12 20 24 24 28 29 17 22 28 32 35 32 35 36 37 35 30 28 31 33 35 34 30 28 31 33 31 30 29 29
6 4 4 3 4 6 5 2 4 3 2 3 3 3 1 3 4 8 8 10 14 22 30 23 23 28 29 33 35 34 33 29 35 36 34 32 30 32 36 37 34 30 28 32 33 31 29 27 26
5 4 3 3 2 6 3 3 1 3 5 3 2 4 1 2 7 5 8 9 12 18 24 27 31 32 32 31 36 37 32 31 34 37 37 36 34 33 35 36 33 32 31 33 33 29 27 25 24
4 3 3 4 5 6 4 3 4 1 2 1 3 1 1 4 3 2 4 5 4 16 25 27 34 42 40 43 42 45 41 28 34 37 36 36 34 33 35 35 34 33 32 31 29 26 24 23 22
4 4 7 7 6 7 9 5 3 2 3 3 3 0 2 2 1 4 2 5 7 8 16 26 33 38 41 39 41 45 39 38 31 35 37 36 34 33 35 34 33 31 31 30 29 28 26 24 21
5 6 5 6 10 8 6 2 4 3 5 7 5 3 4 2 1 3 5 5 7 10 17 28 35 35 31 35 35 34 32 37 38 39 38 36 35 34 34 34 35 31 31 30 28 25 25 22 19
3 8 5 7 4 3 3 3 2 6 5 0 4 4 3 2 0 2 5 6 10 14 27 33 36 29 36 37 38 34 33 35 33 35 38 37 35 34 34 34 34 33 28 27 26 24 22 19 17
4 5 4 7 10 4 4 5 4 7 6 4 6 6 5 3 4 3 0 5 11 18 22 31 37 38 40 35 33 35 32 37 34 33 37 37 36 35 33 31 31 31 26 23 21 21 20 18 15
5 5 7 7 6 4 5 1 2 5 7 5 6 6 4 5 3 3 4 4 11 16 18 24 30 36 34 37 32 33 36 40 38 35 32 36 36 35 33 30 26 27 23 20 19 18 16 13 12
3 4 6 5 3 5 4 6 10 5 8 7 7 5 6 5 5 4 6 6 12 11 22 24 26 32 32 33 25 27 34 37 38 40 37 36 35 35 33 31 26 23 22 19 18 17 15 14 12
2 3 3 4 5 2 7 10 2 6 11 8 7 7 7 7 4 4 7 11 11 18 20 22 24 28 29 30 21 24 33 33 36 37 36 35 37 33 31 29 26 22 20 18 16 17 15 12 12
5 4 4 7 6 4 5 9 3 5 5 6 7 7 7 5 4 6 6 9 12 18 19 19 24 28 30 28 24 25 26 31 34 35 34 38 35 32 28 25 24 22 19 17 17 15 14 14 12
5 4 4 6 2 4 5 15 4 7 9 9 7 7 7 7 7 9 8 8 12 15 18 20 22 27 31 27 30 25 29 28 32 36 42 35 33 28 25 24 21 19 18 18 18 15 15 15 14
4 2 3 7 5 2 8 9 15 6 7 8 8 9 8 7 6 11 11 10 13 14 17 21 24 23 30 34 29 24 24 26 26 27 29 27 26 25 24 23 17 20 20 22 18 17 17 19 15
3 2 7 10 7 6 8 10 8 5 6 9 10 9 8 7 8 11 13 14 15 15 15 18 22 26 26 28 26 25 26 27 25 25 26 26 20 16 18 16 16 17 18 19 15 18 21 21 19
6 6 5 8 8 4 2 7 6 4 4 5 7 5 6 11 14 13 14 15 17 18 20 20 22 28 29 30 31 22 20 18 24 27 25 29 23 19 19 16 20 16 19 14 17 21 23 24 22
7 10 10 7 2 4 3 5 6 4 7 7 8 10 9 10 10 13 14 16 18 20 21 21 24 27 31 33 30 25 20 17 19 34 28 30 28 27 18 19 18 18 18 18 20 21 24 25 23
9 6 8 5 5 1 3 2 7 3 7 8 10 11 12 11 13 15 15 20 21 23 23 22 24 25 27 35 31 31 28 24 21 29 34 33 35 23 23 23 22 19 21 23 21 23 27 28 28
4 4 2 3 3 2 7 5 5 4 9 5 4 12 13 13 13 13 19 21 22 26 27 24 27 29 30 35 35 40 36 34 31 27 29 38 42 34 29 26 25 25 26 26 25 28 28 27 30
4 4 1 2 0 5 3 2 10 9 9 10 9 10 11 13 13 13 15 16 22 26 32 32 30 28 33 34 36 38 38 39 36 35 32 32 35 37 34 30 27 28 30 29 31 28 29 34 29
7 7 5 6 3 4 1 5 6 6 9 8 8 8 9 12 12 14 16 20 23 28 29 31 31 30 32 35 36 38 37 37 39 39 39 38 38 40 37 32 29 29 29 31 35 31 36 33 33
5 5 6 6 2 2 4 6 9 8 9 4 4 6 8 11 14 15 14 21 25 28 31 34 31 31 32 35 37 38 39 39 35 38 41 41 41 39 36 34 31 30 31 30 33 33 32 28 29
7 7 3 1 5 4 3 3 5 8 9 9 5 7 8 7 9 11 13 20 26 29 31 34 36 35 35 35 37 38 38 40 38 37 39 41 43 43 40 36 33 33 32 32 34 34 31 26 26
3 3 2 4 4 5 3 5 7 10 7 8 9 9 8 8 10 12 13 22 25 24 31 34 34 34 35 38 38 38 41 42 40 41 41 41 41 41 40 38 35 34 32 29 30 32 32 27 25
4 7 9 4 4 3 3 8 4 9 6 7 9 8 6 9 9 10 9 12 19 23 26 31 32 36 41 40 38 38 35 38 46 46 43 37 38 37 41 41 42 37 37 33 30 29 29 26 24

GFSSGP_925_spd_063.txt.gz
Wind_Speed
6 5 3 3 2 1 1 3 2 3 2 3 4 5 4 4 5 5 4 10 14 19 22 26 25 27 33 39 42 39 38 39 37 38 44 37 34 33 33 32 32 32 30 28 28 27 26 26 26
7 5 3 2 1 0 1 3 7 7 4 3 3 4 5 4 4 2 3 10 18 21 21 24 26 30 34 38 37 37 39 40 38 38 37 39 35 34 33 34 34 34 31 29 28 26 26 26 26
7 3 0 3 2 2 3 5 8 4 9 6 3 4 2 3 1 4 4 14 21 23 22 23 34 33 36 35 36 35 39 40 40 39 37 38 36 34 34 35 34 35 33 29 28 27 26 27 27
4 3 3 1 3 4 4 7 5 8 1 4 1 5 3 1 2 3 1 13 24 29 30 30 30 29 31 30 36 37 40 39 38 40 38 38 36 37 34 34 33 32 30 27 27 27 28 28 28
4 2 2 1 4 4 5 7 5 6 2 3 2 3 3 2 4 3 4 13 26 33 28 32 31 35 30 33 35 35 36 38 37 37 37 39 38 37 35 32 33 31 30 29 27 27 29 28 28
3 1 1 3 4 4 6 6 1 5 4 1 3 3 2 1 2 4 5 10 21 29 26 27 33 36 33 32 30 32 34 37 40 37 40 41 38 36 34 30 31 31 30 32 31 30 30 29 29
3 2 2 2 3 4 4 3 3 4 3 4 1 3 3 3 4 8 9 9 14 26 30 33 34 30 26 29 29 32 37 38 40 39 40 44 39 35 32 31 31 32 33 33 32 31 30 29 28
4 2 4 4 3 4 4 3 1 4 4 3 2 4 4 1 8 8 6 7 7 12 23 25 34 27 27 32 33 35 35 40 41 41 38 40 39 36 32 30 28 32 34 32 31 31 29 28 27
3 2 4 5 6 5 4 5 2 1 3 3 5 4 3 6 4 3 3 3 6 10 16 28 29 34 36 38 38 37 38 35 38 39 38 38 37 37 31 25 28 32 34 32 30 29 28 27 25
4 4 8 7 5 6 9 7 6 3 4 5 3 5 4 4 4 4 3 2 3 2 16 24 33 37 41 42 39 35 30 32 31 35 37 33 38 39 27 29 30 32 34 31 29 28 28 24 20
6 7 6 5 12 7 6 4 4 4 8 7 5 4 4 3 3 5 3 1 2 3 9 22 16 36 27 40 42 40 36 34 33 37 40 37 38 38 34 32 30 32 32 25 26 27 21 21 20
4 9 7 4 4 2 4 1 4 9 2 4 6 2 4 2 1 3 4 4 2 7 9 20 34 32 34 33 42 37 28 38 32 31 39 39 38 36 37 34 31 30 28 28 24 24 24 22 20
6 9 5 10 7 6 3 8 5 9 7 8 8 4 5 3 2 2 1 4 6 12 24 21 32 33 31 37 38 34 28 32 33 33 39 40 40 39 36 34 31 31 30 30 29 27 24 21 19
6 7 9 7 9 3 5 2 2 1 12 10 8 7 6 5 5 4 3 4 9 18 20 28 25 24 31 32 35 35 26 34 33 31 38 39 41 41 38 36 32 31 28 27 27 25 23 18 17
1 6 7 8 4 4 6 6 9 3 11 11 9 8 6 6 5 6 3 5 13 18 18 25 26 25 29 29 30 27 30 38 36 32 36 39 40 39 36 36 33 30 27 24 24 23 21 18 15
3 1 5 1 5 1 6 13 3 4 13 12 11 9 7 6 6 5 5 5 11 20 23 25 25 27 32 27 31 28 32 36 36 29 37 39 39 37 38 36 34 29 26 24 24 23 19 17 15
0 6 6 6 4 3 5 8 0 4 10 11 12 10 8 7 7 6 6 6 8 18 26 23 26 28 34 32 26 24 28 35 38 33 29 33 36 37 34 33 32 28 26 22 22 20 17 17 16
8 5 4 5 1 2 4 15 16 7 11 12 12 12 10 10 10 7 7 6 7 13 20 24 27 29 26 31 23 30 23 27 36 40 40 33 35 33 32 30 27 27 27 23 22 21 19 18 15
7 5 4 5 5 3 6 13 18 7 10 12 12 12 12 12 10 10 9 9 9 15 21 22 26 29 32 32 28 30 28 29 32 43 43 40 36 33 30 28 26 25 23 24 22 18 19 17 17
6 6 9 10 2 8 10 14 15 5 5 10 13 13 13 11 11 13 12 10 11 12 16 20 24 29 31 34 27 31 27 20 31 33 39 38 34 31 30 29 27 23 25 20 24 22 18 13 17
11 13 7 10 6 3 5 5 6 2 3 5 10 10 12 15 14 13 13 16 15 16 16 16 21 26 30 30 27 25 24 24 24 28 32 35 32 35 29 27 23 27 26 21 25 24 23 15 18
15 12 8 7 4 4 3 7 6 7 7 7 10 13 13 16 15 15 16 19 19 19 18 18 19 25 30 34 33 36 29 24 23 30 31 35 34 32 25 20 17 20 17 17 17 17 23 18 13
11 9 11 7 6 3 2 4 4 2 7 10 10 15 17 17 19 18 17 22 20 18 19 19 20 21 28 34 35 30 24 23 25 30 33 34 30 32 29 25 21 28 23 22 21 22 24 23 17
8 5 4 3 2 5 7 5 5 3 6 4 6 8 14 16 18 17 20 20 20 20 20 20 21 22 27 29 30 31 26 25 27 26 32 34 33 32 26 28 31 28 24 25 24 23 24 24 24
5 8 3 4 5 5 3 6 13 9 13 10 12 11 10 16 16 17 19 21 24 26 26 25 25 24 25 31 32 31 25 25 26 30 27 30 32 34 34 33 30 26 23 24 25 25 26 26 27
18 13 6 8 6 4 2 6 5 9 7 8 10 11 7 15 17 19 20 25 28 29 30 29 28 27 28 29 32 33 30 28 26 31 34 35 31 33 37 37 32 28 27 26 24 23 23 25 28
6 10 6 5 2 1 4 5 8 8 9 3 8 4 6 13 16 19 19 25 26 30 33 33 31 30 31 31 32 33 32 33 31 31 33 37 38 37 39 38 35 33 30 27 25 24 24 26 29
5 9 5 0 7 8 3 4 6 7 10 8 9 5 5 7 12 14 17 24 27 28 30 32 33 34 34 33 33 34 35 35 36 32 37 38 38 36 37 40 38 33 31 28 26 25 28 27 28
7 8 2 4 3 8 6 5 7 11 8 7 7 9 4 8 12 14 15 20 23 24 28 30 33 33 33 35 35 35 37 38 37 37 39 41 41 39 38 39 38 37 35 32 29 29 28 30 27
4 8 10 5 5 1 1 8 3 9 7 6 10 7 6 5 8 12 13 19 23 26 28 31 30 32 34 34 35 38 38 37 36 42 44 38 38 35 39 36 32 37 39 37 33 33 35 36 31

GFSSGP_925_spd_066.txt.gz
Wind_Speed
6 5 5 7 6 6 4 5 3 5 3 1 5 7 7 10 7 9 2 8 6 17 20 21 20 27 30 36 39 38 38 36 34 34 34 35 38 38 35 34 31 29 27 26 25 24 24 24 26
8 6 6 3 6 7 5 1 6 3 3 4 5 8 8 10 3 4 2 9 9 19 22 21 19 25 30 36 37 38 39 37 36 36 35 34 36 39 35 32 32 30 29 26 26 26 24 23 26
8 6 6 4 5 7 4 3 3 3 4 6 4 4 6 2 0 2 2 6 9 19 22 23 23 24 29 34 37 39 39 39 39 39 37 36 35 34 35 33 33 31 28 26 25 25 24 22 25
8 6 4 8 8 2 4 1 2 5 2 4 6 8 3 0 0 0 1 7 15 18 22 23 26 21 23 35 40 39 39 40 40 39 37 36 35 35 36 35 33 31 28 25 25 23 23 24 27
7 4 7 11 8 3 4 4 4 5 3 2 4 9 5 1 2 0 2 7 14 15 17 20 26 27 18 26 31 37 39 40 39 39 37 35 35 35 36 35 35 30 27 25 25 26 26 26 27
6 4 8 10 10 6 4 2 4 6 7 5 7 11 6 2 3 0 2 6 12 19 18 18 29 29 38 36 33 36 39 40 40 40 40 36 35 36 37 34 31 29 26 26 26 27 27 27 26
13 8 12 10 7 7 4 1 7 9 9 10 2 8 1 3 2 1 4 7 11 17 17 20 22 23 29 31 31 34 38 40 40 40 39 39 38 38 36 33 30 29 26 29 29 29 28 27 27
8 7 10 10 11 12 4 4 6 10 11 2 4 6 5 4 1 1 2 6 10 15 19 22 23 25 26 28 26 28 34 40 39 39 40 41 41 38 35 33 30 30 29 30 30 30 29 27 26
5 9 11 12 14 10 3 6 3 5 11 7 6 7 2 2 3 3 4 4 8 10 17 22 26 26 24 25 25 27 29 31 37 39 40 41 31 34 31 29 32 32 31 30 29 29 28 26 25
12 12 15 6 10 7 8 9 9 6 10 11 10 10 6 2 3 5 5 6 5 10 15 21 27 29 29 27 23 28 29 34 37 38 38 32 31 27 27 29 32 33 31 30 28 27 27 22 19
13 18 12 8 11 7 11 11 2 9 13 11 11 5 6 2 1 4 4 4 5 4 9 13 21 31 35 28 34 34 33 35 35 38 40 30 27 29 26 29 30 28 29 24 24 25 18 17 17
13 18 15 11 7 10 11 10 11 12 15 6 4 3 5 3 3 4 4 4 5 5 6 10 22 25 21 34 34 43 40 35 35 32 29 32 26 27 26 28 29 28 25 23 22 19 15 15 14
19 18 13 15 13 13 12 15 15 15 11 7 4 5 5 3 3 3 3 7 6 6 5 6 14 27 31 30 29 38 39 36 34 33 31 29 29 24 25 26 28 27 24 24 21 17 16 15 14
6 18 18 14 15 14 13 18 3 12 5 10 9 7 5 4 4 3 4 4 6 10 11 14 16 20 29 34 33 33 35 34 38 38 33 32 36 30 25 24 25 24 24 22 19 18 16 15 14
13 15 15 16 16 17 9 18 17 13 8 10 11 8 6 5 6 5 3 4 6 14 16 18 18 17 24 33 37 32 28 33 38 35 31 30 33 31 26 25 23 22 22 21 19 18 16 14 14
14 14 15 12 11 8 10 17 3 5 9 11 10 9 9 7 6 6 4 3 8 16 21 23 20 21 26 28 33 29 29 34 35 31 27 28 30 30 27 23 21 20 19 20 20 19 17 15 14
13 15 16 12 8 4 12 11 7 5 9 10 10 11 10 8 8 7 6 6 8 12 20 21 21 26 26 29 24 24 30 32 34 29 23 26 30 32 28 24 21 19 19 18 21 18 16 15 14
17 15 15 14 7 10 13 15 14 7 9 10 11 11 12 11 10 8 7 7 7 15 16 20 19 27 26 25 23 25 31 35 37 29 24 26 27 29 27 25 21 20 18 20 18 17 14 14 14
13 14 15 7 4 5 14 15 13 6 8 11 12 12 13 12 9 10 9 10 10 15 18 18 22 28 24 25 27 27 29 28 36 32 27 24 25 29 26 21 22 23 20 18 17 16 14 11 11
17 16 14 8 5 11 15 15 14 11 8 9 11 13 13 13 13 13 12 12 15 17 20 24 23 25 26 25 26 26 26 24 33 37 30 25 23 36 32 22 25 22 19 17 18 17 14 12 14
21 19 16 13 3 11 11 16 18 12 6 6 9 10 13 15 16 15 15 16 16 16 18 19 23 27 25 25 21 22 18 23 21 30 33 28 26 34 33 28 24 21 19 19 18 17 17 17 14
20 20 17 14 8 9 3 13 14 9 16 10 8 12 13 16 16 15 16 19 21 19 17 19 20 27 27 28 27 28 33 31 28 32 37 27 28 35 35 29 22 21 23 19 16 17 19 18 13
20 10 12 16 11 11 15 9 14 5 12 11 10 11 14 16 17 18 18 21 22 22 22 21 21 22 28 32 30 30 28 30 23 25 30 36 28 35 35 33 25 24 23 21 18 16 17 16 17
7 7 8 9 10 12 13 11 9 3 4 2 4 2 10 16 18 18 21 21 20 22 24 24 23 24 25 33 33 32 32 29 23 23 28 32 32 35 29 32 30 26 24 18 18 21 24 17 18
15 12 6 8 8 11 7 9 15 5 8 10 7 6 7 15 18 19 20 19 24 24 24 25 26 27 27 31 31 34 31 26 25 26 25 30 33 34 40 37 34 33 30 27 27 27 20 19 19
24 21 8 10 10 8 9 7 4 4 2 4 9 8 5 13 17 20 21 22 25 28 28 27 29 28 29 31 33 35 33 29 28 30 31 30 34 36 43 40 37 40 32 31 27 27 23 21 22
16 17 14 6 2 4 9 8 9 11 10 5 7 4 4 12 16 19 19 23 25 27 30 31 29 29 31 33 35 35 35 35 33 32 31 33 32 30 31 35 39 38 31 29 27 28 27 24 24
11 12 11 10 13 10 7 10 6 8 5 3 3 9 1 8 13 16 17 22 24 25 27 28 29 30 31 32 35 37 38 37 37 35 36 37 36 36 35 34 33 34 32 32 31 31 29 28 27
13 10 9 8 13 11 7 5 6 11 5 0 7 9 3 5 11 14 16 21 24 24 27 28 29 29 30 32 33 35 38 39 40 37 38 38 36 38 37 37 36 36 35 35 33 32 31 29 25
17 20 18 9 11 8 10 10 6 5 5 4 8 7 4 3 7 12 15 20 24 27 28 30 30 31 32 32 33 34 33 35 38 40 40 39 41 39 40 40 39 39 38 36 35 35 32 28 25

GFSSGP_925_spd_069.txt.gz
Wind_Speed
8 7 9 10 7 7 16 2 4 6 5 3 3 6 13 13 11 5 4 3 3 9 12 20 20 21 26 29 30 31 34 35 35 32 31 28 28 29 31 34 29 29 27 24 23 23 23 24 27
9 8 10 8 8 13 7 6 5 3 2 2 6 7 10 9 6 7 4 1 1 7 10 16 16 20 26 31 32 32 34 34 35 35 33 31 28 28 30 34 30 28 27 24 23 23 24 24 28
9 10 9 8 13 14 10 8 4 1 3 6 4 4 7 7 6 6 5 1 2 9 13 17 16 19 26 32 33 32 35 37 37 36 35 33 32 31 31 30 31 29 26 26 23 23 23 25 28
10 9 8 10 17 10 6 3 1 6 6 3 5 10 5 5 1 5 3 1 4 9 14 18 20 21 22 28 32 34 36 37 39 39 36 37 35 33 31 30 31 31 28 26 23 22 24 26 26
15 8 13 17 17 9 4 5 3 7 5 4 5 12 7 8 4 0 2 2 5 8 12 21 20 19 24 20 24 27 39 39 40 40 40 38 35 33 31 31 30 30 29 26 23 23 24 24 24
10 10 14 15 16 7 5 6 6 8 9 10 6 11 9 8 3 2 3 3 6 11 13 17 18 23 25 30 14 28 33 40 42 41 40 38 36 33 31 30 29 30 29 27 24 25 25 25 26
17 14 16 19 16 6 7 2 8 11 12 8 3 8 7 8 5 3 5 5 6 11 13 15 17 28 28 27 15 15 33 41 42 42 39 38 37 35 33 31 30 29 29 28 27 25 25 25 27
14 14 22 20 13 15 7 5 11 11 13 3 5 9 10 9 5 4 4 7 8 11 16 15 18 17 15 21 18 21 19 40 42 40 40 38 37 38 34 31 29 28 29 28 27 25 24 25 26
12 15 15 21 16 12 5 6 11 4 11 11 8 9 5 1 4 6 6 7 7 12 15 18 18 21 20 20 17 26 24 28 36 39 39 38 33 33 33 26 29 29 29 29 28 26 25 24 24
17 14 22 19 10 11 10 11 9 6 13 14 12 13 8 7 7 7 7 7 9 12 12 16 18 17 17 20 19 23 28 32 33 33 36 33 30 27 30 28 30 31 30 29 27 26 24 21 19
21 21 21 15 9 15 11 12 12 9 14 13 12 13 4 7 6 5 5 6 11 11 9 12 14 19 18 18 19 23 24 29 34 38 38 32 27 26 28 32 31 29 29 23 23 25 18 17 17
22 23 20 22 13 12 15 15 15 14 15 12 7 6 5 8 7 5 4 6 7 7 7 7 8 14 18 16 20 23 31 32 33 31 26 30 27 24 25 28 27 28 25 24 22 18 16 16 15
22 24 21 18 20 17 15 18 17 19 16 15 3 5 8 7 6 3 3 3 6 7 4 3 13 18 17 18 27 30 33 34 39 39 34 30 28 27 27 27 27 27 26 23 21 16 16 15 14
20 19 22 23 19 18 19 18 18 21 16 11 7 10 8 9 6 4 5 4 5 5 4 5 2 12 21 26 21 28 36 32 34 36 35 34 31 24 26 29 29 27 26 23 20 17 17 16 15
19 21 19 19 22 21 17 22 20 23 16 10 10 11 9 10 8 7 4 6 4 5 7 9 7 12 16 20 28 32 34 45 38 37 40 34 31 29 23 26 27 28 25 23 19 18 17 16 15
16 21 19 21 23 20 17 18 19 3 9 11 11 11 10 11 10 8 7 7 7 8 9 10 12 15 21 18 26 32 31 36 38 41 34 32 30 31 27 21 18 20 19 19 20 20 18 16 15
20 16 22 21 11 10 12 16 10 6 6 11 11 11 11 11 10 9 8 8 10 11 10 14 13 13 21 23 25 27 34 29 34 41 32 31 27 26 26 23 22 23 21 21 19 19 17 16 15
19 20 19 19 12 13 16 18 15 12 10 10 12 11 12 12 11 11 9 9 9 9 14 16 14 17 19 19 23 23 30 26 34 38 25 25 22 25 24 21 20 22 19 18 18 17 16 15 15
22 18 16 11 12 10 15 17 15 13 13 11 12 11 12 12 10 12 11 10 10 10 13 18 19 23 21 23 22 26 25 29 29 35 26 25 26 27 25 22 20 21 17 17 18 17 16 14 14
25 23 18 17 6 8 15 17 18 16 15 12 13 12 10 13 12 12 14 13 13 15 17 19 20 25 26 21 20 21 29 30 35 38 33 28 28 28 25 23 22 20 19 20 19 18 15 15 15
23 23 20 19 7 10 15 18 18 16 18 8 10 11 11 14 15 15 14 16 16 18 20 19 20 23 25 21 22 21 23 24 27 30 32 24 21 24 27 22 23 27 23 21 21 20 19 20 17
22 20 20 18 14 13 13 14 14 17 20 17 16 13 12 13 16 16 16 18 20 20 18 20 21 23 26 23 26 23 30 26 32 34 24 29 22 21 23 24 33 26 23 20 21 20 20 18 17
21 17 16 18 16 16 18 10 14 14 14 10 13 16 14 13 17 18 17 20 21 23 22 21 21 22 24 26 26 27 24 27 25 32 27 23 27 25 28 31 29 28 19 20 20 22 21 19 18
17 18 17 11 14 15 18 15 11 10 7 2 7 7 15 14 16 17 20 20 20 23 23 24 25 23 24 27 27 30 29 26 27 27 32 28 27 27 26 33 31 28 29 26 24 20 16 19 16
25 14 9 11 13 14 16 12 14 6 8 5 7 9 11 14 17 18 19 17 22 23 25 25 27 26 26 29 28 30 29 30 35 27 28 30 28 29 27 33 35 34 30 29 27 26 21 25 20
20 21 12 11 11 13 17 7 8 5 3 6 4 7 5 13 17 19 20 18 22 25 25 25 27 27 28 30 31 31 31 31 33 34 29 30 31 34 32 33 35 36 37 30 31 28 32 24 23
21 21 20 14 6 9 9 10 3 7 8 8 6 3 6 12 18 19 19 21 23 24 26 26 25 26 28 29 30 32 33 32 31 31 32 29 32 34 38 41 38 36 35 35 33 29 28 27 26
20 15 20 15 9 8 9 15 6 6 9 8 6 5 1 7 16 18 19 19 24 25 25 26 26 26 27 29 31 32 32 34 32 33 34 33 33 35 35 37 39 39 40 37 37 37 32 30 31
17 18 14 14 13 8 7 5 1 11 7 4 6 5 3 5 10 15 17 22 24 25 26 27 27 27 28 29 30 33 34 35 34 33 34 34 33 34 36 38 40 41 41 39 36 36 35 34 34
21 19 17 10 16 15 10 5 1 4 5 3 5 1 6 2 9 12 15 18 24 25 27 29 29 29 29 29 30 31 33 34 36 37 35 34 35 35 38 37 39 40 41 40 40 38 36 36 36

GFSSGP_925_spd_072.txt.gz
Wind_Speed
12 8 10 16 6 8 16 18 8 6 2 6 6 5 11 10 9 3 9 6 5 9 8 16 19 23 24 23 23 24 26 27 28 29 28 27 28 28 28 30 32 32 27 26 25 25 25 26 30
10 12 14 5 9 12 13 3 6 1 7 8 4 8 11 8 14 11 8 7 5 6 7 13 19 22 23 26 25 24 26 27 28 29 28 29 28 29 28 29 30 30 27 24 25 25 25 30 31
13 11 7 7 13 13 15 9 4 4 3 4 5 10 3 1 11 5 8 5 2 4 9 14 17 19 20 25 26 26 29 29 29 30 29 30 31 30 29 27 27 28 28 25 25 25 26 31 33
8 9 6 8 18 21 23 5 7 5 7 6 7 7 4 14 4 6 6 3 1 4 9 12 15 18 20 25 30 30 32 32 32 34 31 33 33 33 30 28 27 28 28 25 25 25 31 30 31
16 6 11 16 21 23 18 2 4 6 9 4 6 9 7 8 12 9 6 2 2 5 10 15 18 17 20 23 30 30 29 35 36 37 34 35 35 34 31 29 28 28 28 26 26 27 30 30 29
8 9 13 15 21 22 6 6 3 7 9 10 11 11 1 13 10 8 6 4 6 8 9 14 17 15 19 18 19 10 11 10 32 38 37 35 35 34 32 30 29 28 28 26 27 29 28 27 28
16 13 18 20 19 20 12 9 5 6 12 11 7 3 3 13 8 5 4 4 6 7 12 13 13 17 17 20 23 19 18 23 24 36 39 37 35 33 32 33 30 28 26 26 28 28 27 28 25
13 13 22 19 17 20 15 10 6 9 14 2 4 5 0 9 8 4 3 4 4 7 9 13 13 14 18 21 18 17 12 31 38 36 40 37 36 34 32 32 30 27 26 27 27 29 30 29 26
20 14 16 22 23 21 9 6 4 8 8 10 11 9 5 11 7 6 7 8 8 7 11 12 13 15 19 24 24 21 12 10 17 44 40 38 36 34 32 31 29 27 27 28 27 29 30 28 25
19 16 23 21 23 20 13 11 10 13 10 12 12 5 16 8 7 7 8 5 4 6 10 11 15 14 18 19 23 26 19 5 20 40 42 35 37 34 28 28 29 28 28 27 27 28 29 28 26
23 23 21 22 23 16 10 20 7 9 13 11 9 1 3 10 6 3 7 3 6 4 6 11 10 13 13 18 20 28 28 24 31 35 39 37 33 32 30 30 31 30 29 28 27 27 25 29 22
24 27 23 23 22 23 13 18 11 15 11 10 13 3 1 5 5 7 8 7 4 3 4 6 7 8 13 16 20 23 29 29 33 38 34 40 36 33 33 30 32 32 29 28 29 26 22 21 15
27 25 24 23 22 19 20 16 16 18 14 15 13 8 3 6 8 8 3 3 2 1 5 3 3 6 12 17 22 25 28 33 38 38 37 35 34 30 27 25 33 28 28 26 28 24 24 19 13
25 25 25 23 21 20 21 17 17 17 17 20 15 10 9 10 9 7 4 7 5 5 5 4 3 5 10 15 19 25 31 38 44 38 38 37 32 30 27 24 30 24 29 26 23 20 23 20 15
25 26 22 22 20 21 22 22 21 19 20 19 16 9 9 11 11 7 9 11 8 6 8 4 3 4 14 15 20 27 34 44 43 41 37 39 35 31 32 28 31 26 27 25 21 23 20 19 18
25 22 21 22 22 22 19 20 20 19 21 18 9 9 11 10 10 13 10 9 8 9 11 7 5 7 10 19 24 31 36 40 42 42 44 35 31 29 31 33 29 29 30 27 22 24 21 20 20
17 19 23 24 23 21 24 23 19 20 5 7 11 12 11 10 12 11 13 11 10 11 15 11 10 9 18 19 23 31 37 37 39 37 39 34 35 30 34 35 29 27 33 27 25 23 21 20 19
19 21 21 22 20 24 16 15 13 16 14 13 12 12 12 12 12 15 14 12 12 11 14 16 13 12 17 19 21 27 30 34 36 33 35 37 36 29 28 27 21 26 25 22 23 21 20 19 17
20 22 23 21 20 18 18 16 16 16 15 14 12 11 11 14 11 17 17 14 14 12 21 21 18 16 18 22 23 24 25 30 35 36 36 38 30 32 25 25 22 20 21 19 21 20 17 17 16
22 24 25 23 12 8 11 13 15 16 15 14 15 13 13 15 14 14 17 17 16 16 20 23 19 19 20 21 23 20 25 27 36 40 32 32 33 32 28 28 29 26 20 21 18 20 16 14 17
22 23 22 24 20 18 9 16 17 20 18 16 13 10 12 16 16 15 14 17 18 17 20 24 23 23 24 22 23 23 23 24 27 31 33 32 29 31 26 26 32 30 26 27 23 22 21 19 19
22 21 25 24 18 14 15 13 16 19 18 16 15 12 9 9 16 16 15 17 20 20 20 21 23 25 24 23 23 27 21 24 28 37 32 34 30 29 29 27 31 34 29 26 26 24 25 25 24
23 15 23 21 18 17 19 11 13 13 14 17 18 15 15 10 17 16 16 19 21 22 22 23 22 23 22 22 25 27 25 27 28 31 28 26 24 30 29 29 30 33 29 24 24 24 27 28 21
17 18 23 21 15 16 18 16 14 14 13 15 13 9 16 13 16 15 19 21 22 24 22 22 23 24 25 24 26 28 28 29 29 31 29 27 29 29 32 29 32 32 31 25 24 23 31 23 17
22 10 8 8 13 12 15 13 14 16 6 7 4 5 12 13 15 15 17 16 22 26 24 23 24 23 23 28 26 27 25 29 32 37 35 29 28 28 31 35 29 35 32 28 28 30 22 21 21
17 20 9 7 8 12 18 10 18 18 13 9 4 5 11 10 13 16 17 16 21 27 28 26 26 24 27 26 28 28 28 28 28 34 37 36 31 32 31 33 35 34 33 34 31 25 24 24 26
12 19 25 13 9 6 9 17 3 6 6 8 9 10 10 10 15 16 16 16 22 26 28 30 29 28 28 29 26 27 29 30 28 29 32 36 33 30 30 30 33 36 39 40 34 31 31 28 33
23 19 15 10 7 6 5 16 8 15 12 11 5 4 2 6 14 14 15 14 22 26 26 28 29 30 32 33 31 29 28 29 28 29 32 30 33 32 33 38 37 39 41 41 39 37 36 32 37
11 15 14 12 13 6 4 6 8 11 7 11 9 7 4 3 6 14 13 19 21 23 25 26 26 26 30 35 32 33 32 30 31 32 33 37 30 32 34 37 39 39 40 39 37 36 35 37 36
17 20 18 9 19 12 6 1 8 5 6 9 8 6 7 3 3 11 12 13 20 21 24 27 27 26 26 31 32 32 33 34 34 34 34 34 36 34 34 34 36 39 39 38 40 39 37 38 38

GFSSGP_925_spd_075.txt.gz
Wind_Speed
10 8 6 3 3 2 5 9 5 3 5 3 6 7 4 1 3 3 8 6 6 12 12 16 18 22 24 25 23 22 22 22 22 23 25 26 27 28 29 29 30 30 30 28 25 25 27 30 32
9 7 3 2 3 2 6 6 11 10 8 9 6 3 2 3 5 9 9 8 10 10 12 14 18 22 24 24 25 23 23 24 24 25 28 28 28 29 29 31 30 29 29 28 27 26 29 34 34
10 9 2 4 4 7 6 2 2 5 9 6 3 3 5 7 8 10 15 10 13 11 10 12 18 22 24 25 25 24 24 24 25 26 28 30 29 31 32 32 30 29 29 27 27 27 33 35 35
4 3 4 1 10 14 15 17 4 3 4 7 5 2 5 5 3 16 16 11 14 12 14 12 15 20 21 25 27 27 31 30 29 28 31 32 33 32 33 33 30 29 29 28 28 32 33 33 34
4 1 3 5 9 16 16 11 5 5 2 6 7 5 5 5 19 16 14 7 9 11 12 14 15 17 21 24 27 29 30 26 29 32 34 35 35 36 34 33 30 29 29 28 32 35 34 32 29
2 3 1 5 12 19 14 17 8 7 6 4 3 4 4 18 17 13 8 9 8 8 5 13 15 16 18 23 27 29 25 20 7 6 30 34 38 37 35 33 32 30 29 27 37 36 33 30 26
4 2 6 8 15 20 19 8 7 6 3 0 4 2 4 6 17 14 9 7 4 8 6 8 14 17 19 23 25 30 25 25 26 37 28 28 37 36 34 34 34 29 28 30 36 35 32 28 25
4 2 7 11 12 16 20 3 7 7 5 5 8 5 4 6 18 13 11 9 7 9 9 9 10 15 18 20 24 19 22 41 44 10 19 30 37 36 35 34 33 30 28 33 34 33 32 30 23
4 10 12 16 15 20 15 3 3 6 4 4 5 8 11 26 18 16 12 12 10 10 7 8 13 14 19 22 21 18 20 18 17 24 23 36 37 38 36 33 31 28 29 33 33 31 32 27 24
9 10 15 12 17 18 12 5 7 4 6 5 1 10 22 25 20 13 10 13 12 13 12 12 11 15 18 23 24 22 20 15 22 34 26 32 39 38 36 31 29 29 29 30 31 32 30 27 28
10 19 15 16 21 18 11 12 6 3 4 4 6 10 13 9 14 11 9 14 12 10 8 9 11 15 22 27 27 22 21 18 30 17 36 37 40 35 35 32 30 31 31 30 31 31 29 29 26
17 20 20 20 22 23 17 7 9 4 6 3 4 6 12 8 9 8 11 11 10 9 5 5 6 9 17 25 25 27 27 22 20 9 46 45 41 37 36 33 33 31 32 33 33 32 30 28 20
17 18 20 21 21 23 17 16 9 9 8 6 5 9 9 9 9 9 19 15 12 12 11 8 7 8 14 18 25 26 31 25 23 31 39 43 38 39 38 34 32 31 32 34 34 32 32 24 16
16 18 20 19 20 15 18 18 4 10 7 9 9 11 10 10 10 10 16 16 13 13 12 7 6 10 11 18 23 28 29 25 33 33 43 45 42 43 38 36 33 31 33 36 33 35 29 19 17
18 17 17 18 17 12 16 15 15 11 10 12 12 10 12 11 13 10 17 21 18 17 13 6 4 8 13 11 16 27 32 37 42 43 38 41 40 41 38 37 37 31 32 34 30 27 24 19 20
10 13 15 13 11 15 7 18 12 12 9 13 12 9 13 11 12 19 23 23 20 20 12 8 6 8 12 12 16 26 34 37 41 45 46 44 43 41 39 39 36 32 32 32 26 27 28 25 22
6 9 12 17 14 16 18 20 17 13 13 9 5 10 11 11 9 20 27 26 22 20 15 13 9 8 10 14 18 28 35 37 41 47 44 42 40 38 41 38 37 31 33 31 26 32 29 27 25
4 7 9 14 22 17 21 23 18 12 9 11 9 9 9 13 12 22 28 28 24 20 18 18 15 14 12 13 16 27 31 35 40 43 42 40 37 38 43 36 39 35 36 33 29 32 29 29 29
13 15 19 18 17 16 21 21 19 10 7 10 10 10 10 15 10 25 27 31 25 22 20 20 20 20 18 19 21 25 24 27 35 41 42 42 40 39 39 38 39 34 37 33 37 33 29 30 30
13 18 23 23 20 16 14 25 10 9 8 11 15 11 11 11 15 16 24 25 27 24 23 23 22 23 24 22 20 18 25 23 31 35 43 45 39 38 35 32 35 25 32 30 35 31 28 28 28
14 17 19 19 20 24 18 17 5 7 6 9 12 16 10 19 20 17 17 24 28 25 25 24 24 24 26 24 22 21 22 23 21 27 33 37 42 36 30 37 33 30 33 29 33 32 27 28 23
11 11 23 17 12 9 19 13 7 10 16 15 13 13 12 18 18 17 15 19 25 25 25 25 25 25 24 27 25 26 20 21 23 27 29 32 36 33 30 32 33 40 41 40 32 29 28 28 28
9 15 22 7 9 13 22 12 8 9 10 13 16 13 13 21 22 20 19 25 27 29 26 27 28 28 26 25 27 27 20 24 26 27 27 29 33 33 30 31 32 31 31 32 31 29 30 29 27
8 15 6 7 4 8 18 14 8 10 9 9 16 16 14 19 19 18 20 26 27 30 25 26 27 26 27 27 29 29 27 23 25 27 27 27 30 29 33 30 30 32 32 32 32 31 29 29 26
9 9 1 3 4 6 9 14 14 9 17 13 4 12 12 19 18 18 19 17 25 29 27 27 28 27 27 27 29 29 29 32 30 31 31 28 29 25 34 34 34 35 37 35 34 35 33 30 24
12 6 4 5 3 3 13 7 12 13 19 10 7 10 15 19 18 20 20 18 26 29 29 27 28 28 29 30 29 29 28 31 31 34 34 31 31 34 35 34 30 34 33 37 32 34 32 32 27
5 8 5 8 5 4 4 6 12 14 19 7 8 9 10 16 17 20 18 19 27 29 29 31 28 26 28 30 30 29 27 30 29 33 33 31 29 28 31 34 34 32 32 33 36 35 32 28 29
8 3 3 3 3 3 6 7 6 6 8 8 6 6 6 11 16 17 17 15 26 30 30 30 31 29 27 29 29 30 30 31 27 31 37 36 35 30 29 30 33 36 38 37 37 36 34 34 34
7 4 6 2 4 3 3 4 4 5 5 9 9 8 8 10 14 16 16 21 27 30 30 31 30 29 30 33 29 28 29 32 32 31 35 37 37 38 36 39 38 38 40 39 42 39 40 40 40
13 11 11 4 4 5 4 6 15 4 8 9 9 8 7 7 10 12 16 15 22 26 28 30 29 30 31 34 34 35 33 30 32 31 35 38 36 38 40 41 41 40 40 41 44 42 38 39 39

GFSSGP_925_spd_078.txt.gz
Wind_Speed
7 6 2 2 3 4 4 7 4 8 3 3 5 6 7 3 3 4 12 10 11 15 16 19 22 23 25 26 28 28 23 21 22 25 29 32 31 31 31 31 32 32 30 28 27 27 27 30 33
7 3 2 2 3 1 5 5 7 11 6 6 5 5 5 2 4 7 11 13 14 17 17 19 21 24 25 25 25 26 25 22 23 26 26 31 30 32 32 32 31 31 31 30 28 27 29 33 33
6 4 3 3 4 6 6 4 5 7 8 7 5 2 6 8 1 12 7 19 17 18 18 18 19 25 26 25 26 26 27 26 24 27 30 28 32 33 33 33 32 32 31 31 30 31 34 35 35
4 4 3 3 9 10 7 2 8 7 5 3 5 6 4 8 17 13 21 19 20 18 19 18 18 24 26 26 26 26 27 27 30 28 29 31 32 33 32 33 33 32 31 31 33 37 39 37 34
2 3 2 4 8 12 8 6 9 11 5 5 5 5 7 2 14 22 19 18 19 19 18 19 18 22 25 26 26 26 26 26 24 26 24 31 34 35 36 35 34 33 31 32 35 40 40 38 35
1 3 1 6 8 15 9 9 10 18 8 6 4 7 5 18 26 23 20 17 15 15 19 20 19 18 22 27 29 26 28 25 23 25 11 15 24 34 36 36 34 34 31 34 36 39 37 35 25
5 4 5 5 6 10 13 8 14 9 6 6 5 5 2 6 22 23 19 16 13 12 14 17 19 20 20 24 27 27 30 32 19 14 1 5 23 25 33 33 35 33 32 39 37 37 34 29 27
4 4 4 4 9 10 8 7 9 6 6 3 6 7 5 7 22 19 16 15 14 12 12 15 16 19 22 24 26 32 33 33 40 33 23 18 27 24 29 33 33 32 35 40 38 36 32 26 29
3 1 4 6 10 11 11 8 9 7 2 4 7 8 8 27 25 22 18 14 15 15 13 16 17 17 19 20 23 32 33 34 30 32 26 14 29 32 32 34 33 31 40 39 36 33 28 24 31
6 5 9 9 6 12 17 6 12 7 11 5 3 6 20 28 26 18 14 15 18 18 16 14 16 18 19 20 22 25 29 30 34 27 28 33 35 36 36 35 32 30 42 40 36 32 28 31 37
6 13 8 8 10 13 18 11 19 9 8 9 6 8 14 13 17 13 16 23 24 20 17 16 15 16 19 25 25 25 29 29 36 34 39 32 34 37 37 36 32 31 39 38 34 31 29 36 28
7 8 8 13 14 15 20 19 18 8 12 9 9 16 13 12 12 10 14 20 21 18 16 15 14 14 22 24 26 28 29 29 34 39 38 34 38 38 37 32 34 35 39 37 35 33 31 28 24
10 16 15 15 16 20 19 22 21 23 16 10 7 15 15 11 11 17 21 22 22 19 15 13 13 13 20 25 29 29 28 29 30 35 41 36 39 42 36 33 36 38 39 38 37 34 31 27 23
4 11 16 14 17 18 18 20 9 20 12 9 9 15 18 14 12 10 20 23 23 19 16 14 11 12 16 24 30 31 32 28 33 18 28 43 42 43 42 39 38 37 37 39 38 35 30 23 19
4 12 16 17 12 11 9 16 20 14 12 10 10 10 12 14 15 16 26 28 27 23 17 13 11 14 16 19 25 29 33 31 29 30 42 45 46 46 44 42 40 37 36 37 36 33 26 21 21
5 5 8 8 11 11 8 22 16 10 10 13 12 9 10 11 18 21 29 29 27 25 19 13 10 12 15 16 22 26 32 36 30 38 44 45 46 45 43 42 40 40 38 37 35 36 27 22 22
4 13 12 9 6 8 8 22 10 10 10 14 12 9 12 12 7 19 29 32 30 26 20 13 10 11 14 14 17 24 31 35 36 40 40 44 44 44 43 42 42 41 40 37 37 32 28 23 22
5 7 7 9 2 7 17 21 18 16 13 17 13 9 11 15 19 19 25 28 29 25 20 14 13 11 14 15 18 24 29 32 39 38 40 46 43 43 43 41 39 44 44 40 35 32 29 28 24
8 12 14 11 11 6 17 19 18 20 12 17 15 10 13 18 9 20 23 29 29 25 22 18 17 13 13 17 21 20 21 27 34 36 40 44 42 41 41 41 38 41 44 42 35 33 33 32 28
12 15 17 12 12 13 15 20 18 21 13 18 19 11 15 9 13 13 20 23 24 25 25 21 19 17 16 18 18 17 22 24 31 36 37 39 41 41 38 38 39 39 39 39 34 35 30 28 31
13 12 8 8 15 21 16 20 9 17 17 9 10 9 11 19 18 15 16 22 22 24 28 24 23 22 18 19 18 18 21 19 20 29 31 35 37 36 33 32 38 36 40 37 35 37 33 25 33
14 8 8 10 12 9 3 7 12 15 19 14 7 9 11 18 18 18 17 19 24 25 30 27 25 23 20 21 19 23 15 15 14 26 29 30 33 34 32 32 33 30 33 33 32 36 33 30 28
11 7 8 8 10 5 10 3 11 6 16 17 9 9 13 20 21 20 20 23 23 29 29 29 28 26 24 23 23 22 18 16 20 22 25 29 33 33 32 29 30 34 26 32 27 30 29 31 34
8 4 12 6 3 7 13 5 12 8 10 14 10 5 14 20 20 16 17 23 22 27 28 28 28 27 26 28 24 23 22 22 22 22 23 26 29 31 28 25 33 35 35 33 27 32 37 33 34
3 4 4 4 5 9 3 9 16 10 14 14 17 19 16 20 19 18 19 16 23 26 27 27 27 27 28 27 28 28 27 25 27 25 24 24 25 28 32 26 31 33 34 37 41 44 40 34 33
11 7 3 5 4 7 11 8 10 13 19 16 15 5 15 21 19 20 20 18 25 27 27 27 27 25 27 27 29 29 27 27 26 30 27 28 29 32 36 34 30 34 36 39 43 41 35 34 33
4 7 3 3 3 3 4 6 9 11 17 13 9 11 15 17 18 19 17 18 25 29 31 31 27 25 27 27 29 28 28 27 30 29 32 33 30 28 30 32 36 36 34 34 33 34 34 35 36
9 3 4 3 3 3 4 4 4 7 12 15 7 12 16 17 17 15 16 15 25 28 29 31 31 28 28 28 29 28 27 29 32 33 33 33 36 35 37 34 35 34 35 36 35 37 37 38 39
5 4 4 1 3 2 3 3 10 18 21 10 7 9 13 15 16 16 15 19 24 25 27 29 30 29 28 29 28 28 27 29 29 32 35 36 35 36 36 40 39 38 37 38 39 39 41 41 41
5 2 6 3 4 4 1 5 15 18 16 18 7 6 4 16 14 14 15 16 21 24 25 28 29 30 31 34 31 30 29 29 31 28 31 36 37 38 39 40 38 36 38 41 42 41 36 39 38

GFSSGP_925_spd_081.txt.gz
Wind_Speed
7 4 1 5 3 5 4 7 4 7 4 4 3 4 8 4 4 4 7 15 14 16 17 18 19 23 25 25 24 24 28 31 31 32 37 37 39 37 36 34 31 29 29 28 28 28 28 30 32
7 5 4 3 4 1 5 5 6 8 6 2 2 4 2 3 1 3 9 16 15 18 18 19 20 24 27 26 26 24 24 28 32 33 37 38 38 37 35 33 31 30 30 29 27 28 29 32 33
8 3 4 4 4 6 6 6 6 9 3 1 3 2 7 4 4 10 8 22 21 20 19 19 20 25 27 27 26 25 23 24 30 34 36 35 36 36 34 32 31 30 30 29 28 29 31 34 35
5 4 4 3 9 7 7 5 1 10 8 4 3 3 2 5 9 19 17 24 23 22 20 20 20 25 25 26 26 25 23 24 27 30 32 32 33 34 33 33 31 32 32 28 29 32 34 36 37
4 3 1 3 8 6 5 7 4 11 5 9 4 5 3 7 3 15 24 24 24 22 20 19 19 23 25 24 26 26 23 23 24 24 23 28 23 26 31 31 32 32 30 31 33 36 36 37 36
3 3 2 5 7 7 6 4 5 7 16 16 5 6 5 5 11 23 21 20 20 19 20 20 21 21 24 25 26 24 26 26 24 23 21 20 22 20 21 28 31 32 33 33 36 37 36 36 34
6 4 5 5 3 9 5 5 4 6 8 6 4 7 3 4 17 22 20 18 19 19 19 21 23 23 22 25 25 27 31 31 30 25 19 15 17 16 19 24 29 32 33 34 35 37 37 32 31
5 4 4 5 5 14 6 4 4 6 8 8 5 6 5 7 20 19 19 18 17 18 19 22 23 18 22 25 29 30 34 37 38 29 27 19 13 22 20 22 27 30 33 33 37 36 33 29 29
4 1 5 9 10 11 4 4 2 4 5 7 5 4 4 22 24 20 19 17 16 17 19 21 21 19 19 23 27 29 32 34 40 34 36 25 16 23 26 27 28 29 35 36 37 32 27 28 30
5 5 11 8 13 10 5 0 13 6 16 14 6 3 1 27 26 16 13 15 21 22 21 21 21 22 22 22 25 29 34 36 35 32 33 29 28 24 30 29 30 31 36 36 34 30 27 32 32
6 11 5 7 15 7 10 4 5 6 15 13 9 7 7 10 16 15 16 20 27 26 22 21 21 21 22 23 23 26 34 34 30 31 30 27 32 42 40 32 32 32 38 38 33 29 32 35 34
6 8 13 5 6 3 9 7 6 7 13 16 12 7 7 13 15 14 16 25 23 24 23 20 19 19 21 23 25 27 33 33 30 27 30 31 36 36 38 33 36 33 39 38 35 30 33 37 34
9 8 6 8 8 9 10 15 12 19 14 19 10 8 15 14 16 18 21 25 26 25 24 22 21 20 22 24 26 28 31 31 31 33 29 34 37 36 32 31 37 36 40 38 33 30 33 35 32
5 6 10 8 12 8 12 20 4 14 13 16 8 12 17 16 17 8 18 24 29 28 25 23 20 18 19 24 26 30 33 29 28 33 38 35 39 38 36 33 38 39 43 40 36 35 30 30 30
6 9 8 7 3 7 8 21 10 14 11 16 13 11 15 17 12 17 28 27 35 31 26 22 19 17 18 23 25 29 33 32 30 32 43 39 39 41 42 37 40 41 44 41 39 32 28 25 28
4 4 6 1 8 7 10 29 17 11 10 13 13 9 12 13 16 25 29 32 34 31 26 22 20 19 19 22 26 29 32 33 33 31 35 41 36 46 43 40 41 43 45 42 40 34 29 26 30
2 11 11 7 7 7 8 18 8 5 6 10 10 11 10 13 12 18 28 30 33 30 26 23 19 18 20 20 22 26 30 33 33 29 28 40 39 46 41 41 40 43 43 42 41 35 30 28 30
4 7 6 4 4 5 7 15 9 6 6 10 12 12 9 10 19 20 24 26 29 28 25 20 17 16 18 19 18 22 26 35 36 31 34 38 41 43 40 39 42 44 42 41 41 37 26 29 28
5 9 16 8 8 9 13 16 15 12 7 10 17 16 13 12 6 15 22 26 28 26 24 21 18 17 19 19 19 18 19 26 31 36 39 41 37 39 37 38 42 43 43 42 41 38 29 27 27
7 9 11 11 9 8 6 19 18 16 14 13 12 14 15 6 8 11 20 22 25 28 26 22 19 19 19 17 17 11 19 19 26 29 38 38 38 35 34 34 40 41 38 41 42 38 27 24 28
10 8 10 13 6 10 12 23 15 17 9 8 10 10 9 15 15 14 18 23 23 22 22 22 22 21 19 21 16 18 19 18 16 31 31 36 39 34 32 31 33 35 33 33 40 37 33 22 30
9 6 11 11 5 6 4 12 14 10 14 12 12 7 9 11 13 13 18 19 24 23 21 20 24 21 20 21 21 20 14 13 12 21 29 32 36 35 34 32 32 36 35 37 39 35 35 33 28
5 9 13 3 4 7 6 7 3 9 10 13 7 10 7 13 17 18 19 23 24 23 22 21 27 24 20 21 21 20 16 14 19 22 26 29 32 34 33 33 33 34 35 38 39 35 37 37 34
4 7 4 2 2 7 9 9 4 7 13 15 10 6 9 13 14 10 13 22 21 21 22 26 27 22 23 23 20 20 19 18 20 22 23 28 31 31 29 27 28 33 34 39 37 35 35 35 35
4 3 2 2 3 7 0 10 14 10 6 9 11 15 8 11 12 15 19 19 22 24 24 26 28 22 24 23 21 20 18 18 21 21 24 26 27 27 32 31 30 33 34 29 32 34 33 32 30
6 5 3 5 3 3 12 7 6 8 12 15 13 14 5 11 16 19 20 18 23 25 25 26 27 24 24 25 22 21 17 18 19 22 22 24 24 26 30 32 32 34 33 35 31 33 24 25 30
3 8 3 6 3 3 4 7 6 17 7 10 12 11 10 10 16 18 17 15 23 26 27 28 27 25 25 25 23 22 24 22 21 22 24 24 26 26 31 36 30 29 32 33 36 32 32 30 33
5 5 2 4 4 3 4 5 4 16 17 18 15 12 10 11 13 13 14 16 22 24 25 26 26 24 26 25 26 25 24 26 24 24 28 29 29 28 30 33 33 27 29 32 36 36 39 42 42
4 3 4 4 3 2 4 2 4 7 13 18 19 21 8 14 15 15 13 15 20 22 24 25 25 24 25 25 25 24 23 23 24 25 25 27 28 28 26 30 31 31 31 32 34 35 37 41 41
3 2 5 3 3 4 3 5 4 5 16 20 22 21 3 5 9 10 12 13 20 21 22 24 26 26 25 25 24 25 26 24 25 25 26 26 28 30 32 32 34 34 34 35 36 36 35 40 39

GFSSGP_925_spd_084.txt.gz
Wind_Speed
9 5 3 4 4 5 3 6 3 5 6 3 5 5 8 4 5 4 3 22 15 17 18 19 20 22 22 24 25 24 25 32 33 34 35 35 35 35 35 33 31 31 28 27 28 27 26 26 29
10 7 3 3 4 1 5 4 6 5 7 6 1 2 1 4 2 2 7 23 16 19 20 20 22 23 25 26 27 26 25 30 33 34 36 37 37 36 35 32 30 29 29 29 30 28 27 30 30
10 3 4 4 4 6 6 7 6 3 8 3 2 2 1 3 2 4 8 21 19 20 20 20 22 24 25 27 28 27 27 27 30 31 33 34 34 34 33 30 30 28 29 29 28 29 29 33 33
6 4 4 4 7 7 7 2 1 9 6 2 1 4 3 3 2 7 13 23 21 21 19 19 21 24 24 24 26 27 26 26 28 31 32 33 30 32 31 28 27 25 26 28 29 30 32 33 34
5 3 3 2 7 6 5 5 4 8 4 8 3 5 4 3 4 11 17 24 23 22 20 20 20 24 23 23 24 24 26 27 28 31 30 31 25 22 25 24 23 24 25 26 28 31 33 35 35
3 3 2 5 6 6 5 6 2 4 3 10 2 5 5 3 9 14 19 23 22 23 22 20 19 22 23 22 24 24 24 26 28 27 27 25 25 20 18 20 22 23 23 25 29 31 32 34 34
6 4 5 6 3 7 6 7 5 3 4 5 2 5 4 3 11 18 21 19 20 20 21 20 21 22 23 23 24 25 26 30 32 30 28 25 24 25 24 26 22 25 26 28 30 33 34 34 33
5 4 5 5 5 11 4 2 5 3 6 3 4 2 6 5 14 21 18 18 18 18 20 21 22 23 23 23 26 27 29 32 32 29 31 29 24 21 24 24 25 28 28 30 32 33 34 32 31
4 1 4 8 8 9 3 3 2 2 5 3 4 2 6 4 14 19 16 16 17 19 21 22 23 24 23 24 27 28 28 31 33 36 36 33 29 23 22 22 23 24 28 32 32 33 32 30 28
4 5 9 7 8 7 1 1 3 3 3 7 6 5 3 11 20 13 15 17 22 22 22 23 25 26 25 26 28 31 33 37 38 37 33 28 25 35 31 25 24 26 29 33 34 32 29 28 28
5 7 6 5 7 4 8 6 5 4 7 10 8 7 3 7 12 14 16 21 28 27 25 26 27 28 27 26 28 32 35 39 38 39 35 33 36 30 31 33 30 27 29 34 34 31 28 29 30
5 6 10 3 6 4 8 4 9 8 9 14 9 7 3 9 10 14 18 24 27 29 27 27 28 28 28 28 27 29 31 38 38 37 36 37 33 31 35 34 31 30 35 37 34 32 30 30 30
6 4 4 6 7 7 8 15 20 7 11 15 9 6 10 9 14 23 22 15 26 30 30 29 28 29 29 28 28 27 29 34 36 40 41 35 36 35 35 32 35 34 38 41 36 34 33 31 29
2 3 8 8 13 8 13 20 4 5 10 10 8 10 12 12 17 18 16 25 30 31 33 30 29 29 28 29 28 28 29 30 30 33 33 34 35 31 35 32 33 39 41 40 36 35 37 33 31
5 7 7 6 6 8 6 17 15 10 10 11 13 11 11 13 13 17 32 30 36 34 31 31 30 28 27 28 27 28 28 29 29 30 33 31 33 37 34 33 35 38 41 41 34 31 34 34 31
4 3 2 4 4 7 9 32 7 8 10 14 10 10 8 11 13 26 28 29 29 30 30 29 28 27 24 25 24 26 27 28 28 30 35 32 36 40 38 34 35 38 42 41 34 34 35 34 31
2 6 4 6 4 5 8 18 2 4 5 8 9 9 8 9 8 21 32 31 28 29 30 29 26 24 22 21 23 25 25 29 27 30 33 38 35 36 39 36 35 40 43 43 40 36 34 32 29
6 5 3 3 4 6 10 22 9 8 9 10 10 9 8 9 14 21 22 26 29 29 30 27 24 22 21 20 21 24 25 28 32 29 31 39 40 37 36 34 36 41 41 40 41 38 31 32 32
3 4 7 4 5 9 17 25 24 10 8 10 10 9 10 11 12 15 21 26 27 30 30 28 23 20 21 23 21 20 23 27 29 32 31 37 44 34 40 37 38 41 41 40 42 39 32 28 31
5 7 8 7 5 6 10 21 20 10 14 14 12 12 11 6 6 6 16 23 29 27 27 26 21 21 21 21 20 16 16 22 27 30 30 33 36 43 39 37 39 41 36 38 38 38 30 24 34
5 5 4 8 8 9 9 22 15 14 14 13 10 12 8 11 11 9 13 21 25 25 28 25 23 21 23 19 19 12 18 10 21 26 33 34 35 39 33 37 38 38 38 40 38 38 34 25 32
3 5 4 7 7 2 4 9 17 8 12 10 9 8 12 11 8 10 14 16 25 25 27 25 22 20 21 21 20 18 10 9 4 16 27 33 36 34 31 33 36 36 32 32 37 36 32 33 28
5 2 3 4 4 6 7 4 7 6 14 12 11 11 11 10 11 14 16 15 21 23 25 23 23 21 20 20 18 16 14 12 15 23 28 32 33 34 29 29 30 33 34 34 39 36 33 34 34
3 1 4 4 2 5 10 11 4 4 6 6 7 8 9 7 9 9 11 20 19 20 22 24 24 22 21 20 18 18 16 16 18 20 24 28 30 32 30 29 28 26 30 30 34 37 37 32 33
2 2 2 3 3 5 6 7 12 19 20 14 11 9 7 6 9 12 15 16 21 24 24 24 25 22 23 22 19 16 17 17 18 22 20 26 28 28 29 30 30 28 25 30 32 37 38 34 33
4 4 2 4 3 4 5 5 5 7 13 14 15 13 4 8 11 12 15 16 21 25 25 24 25 23 24 23 21 18 14 16 19 21 23 22 27 30 33 34 32 31 31 27 31 34 37 31 31
3 4 2 4 3 5 4 7 4 14 17 19 20 21 17 11 9 13 13 15 22 26 27 24 25 23 24 22 21 19 18 16 16 19 21 25 27 28 33 34 33 31 32 36 31 33 38 33 31
3 3 1 3 3 4 4 4 3 10 16 19 24 23 22 18 9 12 14 16 22 23 24 21 24 25 21 22 22 18 18 17 16 17 19 20 23 24 25 28 30 31 32 36 41 37 37 38 37
2 1 2 1 3 2 3 4 4 2 5 15 20 21 22 11 7 9 9 14 22 21 20 19 22 23 22 19 21 17 17 17 18 20 20 19 19 20 22 24 29 32 32 32 37 35 32 35 33
1 4 4 3 2 4 2 5 3 6 3 10 18 23 22 5 6 9 9 9 16 18 17 18 20 22 21 21 19 19 19 17 18 18 19 19 21 21 23 23 26 29 32 28 28 30 30 33 34

GFSSGP_925_spd_087.txt.gz
Wind_Speed
11 7 4 3 3 0 2 5 2 4 3 3 2 4 7 1 5 2 1 20 17 21 20 18 18 18 21 21 21 21 24 29 33 32 32 34 34 34 32 30 30 30 30 27 27 24 25 23 27
14 9 3 3 3 4 4 3 7 6 2 8 5 3 4 4 3 1 8 19 17 20 21 20 19 20 22 22 22 23 26 29 31 30 32 33 33 33 32 31 29 29 27 26 25 25 24 27 28
14 6 2 3 3 11 4 7 9 3 10 3 1 3 2 2 3 4 7 23 18 20 20 20 19 21 22 24 23 22 23 28 30 31 32 33 33 32 31 31 29 27 25 24 24 22 25 28 29
7 3 3 4 10 6 5 2 4 4 2 0 3 9 3 3 3 4 13 26 20 21 20 19 18 21 20 25 24 23 24 26 29 31 32 33 33 33 29 25 27 25 23 24 22 23 25 29 31
5 1 3 4 7 5 5 5 5 6 5 4 3 5 4 3 9 7 17 26 23 22 19 18 18 21 21 24 26 24 24 26 28 30 31 32 33 31 27 24 22 22 22 22 23 25 27 30 31
3 2 3 11 8 6 5 9 5 5 4 4 1 3 5 4 7 13 18 24 22 22 20 18 19 22 23 22 26 27 26 26 29 31 32 28 26 26 26 25 20 20 22 23 25 25 28 29 30
5 4 8 6 4 7 10 9 10 12 9 4 3 3 3 5 5 10 15 22 22 20 20 18 19 22 22 23 24 27 27 28 28 27 28 26 26 26 28 26 23 20 23 25 26 27 29 30 29
4 3 5 5 8 11 6 6 3 10 8 1 2 2 2 2 4 10 15 17 21 21 20 19 20 22 22 22 24 26 28 29 29 30 30 30 29 27 24 23 24 24 25 27 27 28 29 30 29
3 5 7 9 8 8 1 4 2 1 3 2 2 3 2 6 6 11 9 12 17 21 23 22 22 23 23 23 26 26 28 29 31 31 31 31 29 27 25 23 22 25 25 28 29 29 30 31 30
5 7 10 7 11 9 6 10 7 3 5 9 11 11 6 3 6 15 16 17 16 23 25 25 25 25 24 26 26 27 29 30 33 34 32 32 30 28 25 25 25 27 26 30 30 30 31 28 23
5 11 6 4 13 5 11 11 10 12 14 16 15 11 5 7 9 16 21 22 23 18 25 28 27 28 28 29 29 30 31 33 36 35 35 35 34 29 25 30 29 26 27 26 29 31 29 23 23
5 7 11 8 8 7 12 16 15 16 14 15 14 17 11 12 12 16 22 26 21 19 22 28 30 30 30 29 29 32 34 36 38 39 40 40 36 31 28 27 31 31 30 29 30 27 24 23 21
7 6 8 8 12 11 13 17 18 10 14 17 16 11 14 15 16 22 26 23 22 24 24 28 31 32 32 29 30 31 32 35 37 41 43 43 34 32 29 29 32 33 33 33 33 25 27 24 22
5 4 6 8 13 12 17 23 15 17 12 16 15 15 14 17 19 17 18 24 25 26 29 29 32 32 31 31 30 31 32 33 37 38 43 42 37 32 32 27 33 33 34 32 36 27 25 24 23
3 7 7 7 10 10 5 20 16 22 17 16 19 19 16 18 19 17 24 23 28 31 27 32 32 32 32 30 28 30 32 35 35 40 43 42 38 35 33 31 32 35 36 36 30 25 22 21 22
3 4 5 2 3 5 8 15 12 9 9 13 14 15 16 18 16 18 21 22 21 24 27 30 32 32 30 27 26 28 29 31 33 35 34 38 40 33 33 33 34 37 39 35 32 26 23 22 21
1 8 6 6 2 3 8 11 3 17 15 15 15 12 12 13 13 17 19 20 22 25 26 31 32 33 30 25 24 26 27 29 31 31 33 36 35 34 33 36 36 41 41 32 30 25 24 23 20
6 6 5 7 2 12 18 26 17 14 18 18 16 18 14 15 16 19 17 17 18 22 27 32 32 30 25 21 21 22 25 27 30 30 29 31 33 32 36 35 39 41 39 31 29 28 22 25 23
3 4 8 6 8 12 18 25 16 15 17 19 19 19 17 18 18 19 15 12 16 21 26 29 29 29 26 24 22 24 23 26 28 29 30 30 33 34 34 37 38 36 35 35 33 29 28 21 21
13 14 14 8 9 7 14 29 22 22 24 23 22 23 21 20 18 15 10 12 19 22 24 26 27 28 25 21 22 17 20 24 26 29 32 33 35 34 37 39 39 37 30 33 37 33 25 19 25
11 13 8 9 8 11 14 18 7 6 12 19 22 25 23 22 19 15 11 15 18 22 27 27 27 24 21 19 20 17 16 13 21 26 25 37 36 39 39 41 37 34 32 36 38 34 29 19 25
13 9 9 6 4 4 6 10 8 2 8 12 15 15 18 21 19 15 13 15 21 21 22 24 24 23 19 18 19 18 15 15 14 19 21 34 39 39 40 42 39 35 34 32 36 34 32 25 26
4 4 4 4 5 4 4 5 4 12 8 10 15 14 17 19 19 16 13 16 20 21 24 23 21 19 18 21 21 18 14 12 19 14 27 33 32 32 38 38 36 35 34 32 35 34 31 27 26
5 2 3 3 4 5 9 9 3 5 9 22 18 17 14 14 15 9 11 18 21 22 22 23 23 20 19 22 20 18 14 12 13 16 23 25 30 30 33 33 33 32 32 36 36 35 32 32 28
4 3 2 2 4 5 4 9 12 15 8 12 15 17 16 16 8 9 14 14 22 24 25 24 23 22 20 21 20 18 15 13 13 18 21 27 27 27 28 30 29 28 28 31 31 32 35 34 35
9 5 3 3 3 2 3 7 2 3 5 8 13 15 16 15 14 7 12 16 21 24 24 25 25 23 20 20 20 18 16 14 14 18 20 23 28 28 31 29 29 27 23 20 19 27 35 37 33
5 4 0 2 4 4 4 5 5 6 9 12 13 17 21 20 16 12 14 15 22 26 25 24 24 22 22 21 20 18 16 15 14 15 19 22 27 30 33 34 31 29 32 35 33 26 33 36 35
2 4 3 2 2 3 4 6 6 7 13 16 19 19 19 22 20 9 12 15 20 22 22 22 23 22 22 21 21 19 16 14 13 14 17 20 22 30 34 34 34 34 34 38 37 30 28 30 36
4 2 2 1 2 2 2 2 2 8 13 13 16 18 17 20 14 2 6 14 18 19 20 20 22 22 23 23 20 20 17 16 14 14 13 17 22 26 28 30 32 33 35 37 37 34 26 27 31
2 4 4 2 2 2 4 6 4 12 14 12 14 14 15 20 12 5 6 10 15 17 19 19 21 22 22 20 18 19 18 18 17 14 15 16 16 17 22 23 27 29 32 32 33 36 34 27 26

GFSSGP_925_spd_090.txt.gz
Wind_Speed
9 7 6 6 7 7 14 7 2 7 5 3 1 8 7 7 6 2 2 14 13 19 17 16 13 14 18 19 20 20 22 25 28 28 28 29 30 29 29 28 28 27 26 23 23 21 21 23 24
13 9 7 3 8 13 12 9 10 6 2 3 7 9 8 11 3 0 9 12 16 18 16 15 17 16 19 19 19 20 21 24 28 29 29 30 31 30 30 29 28 26 25 24 23 22 20 23 24
13 11 6 5 12 17 14 7 9 9 2 3 5 5 4 3 4 2 6 16 15 16 15 14 17 17 20 19 19 20 22 24 27 28 29 31 29 31 30 28 27 25 25 25 22 21 21 25 24
13 7 5 11 19 14 19 4 8 8 4 3 1 6 4 4 1 4 11 17 16 15 15 16 17 17 20 20 20 20 21 23 26 28 29 30 30 31 30 29 27 26 24 23 21 20 22 26 25
11 5 12 17 22 19 8 7 8 8 3 3 5 7 6 3 4 4 13 18 17 16 15 15 17 18 19 21 21 21 22 24 26 27 29 30 30 31 31 29 28 25 23 22 21 21 24 27 26
8 6 13 19 21 16 18 13 13 13 10 8 8 7 6 2 3 4 12 18 15 16 16 15 18 19 18 20 21 21 23 25 26 28 30 31 30 28 29 28 27 25 23 21 22 23 26 27 27
16 12 20 22 18 14 17 13 14 17 17 16 3 7 1 6 2 5 12 16 15 15 15 16 18 18 18 18 22 21 22 24 25 27 27 26 26 29 29 28 27 25 25 25 23 24 26 28 27
11 11 23 20 15 18 17 9 11 13 15 4 6 6 6 7 5 3 11 15 15 15 15 16 19 18 18 18 20 23 22 23 25 24 26 25 26 30 31 30 26 25 25 26 25 26 28 28 27
10 11 17 20 16 14 6 9 13 6 11 9 6 7 2 6 3 3 10 14 16 16 16 15 18 19 19 18 20 21 23 23 24 24 26 27 25 27 27 27 24 20 16 23 26 27 29 28 27
15 15 24 17 12 14 14 11 12 9 13 13 13 13 11 8 6 7 12 18 20 20 18 16 17 19 21 19 19 22 21 22 22 20 21 25 22 24 27 27 26 22 22 21 23 28 29 28 23
14 24 16 11 16 19 18 18 16 16 18 15 18 17 11 10 12 12 14 20 25 21 18 21 18 19 22 21 21 22 21 22 23 22 23 22 23 23 22 26 24 26 28 27 25 28 26 24 23
15 16 17 16 17 17 18 19 22 19 19 17 18 16 15 16 14 15 16 18 23 23 23 21 23 24 26 21 25 22 27 22 23 22 25 28 28 29 23 28 30 31 29 31 32 32 27 23 21
19 20 15 16 17 18 18 23 24 23 13 17 18 17 18 17 18 21 20 19 19 25 25 25 28 28 28 25 28 29 26 27 23 27 26 31 29 24 26 27 24 24 30 32 30 28 25 23 21
9 12 17 13 16 17 18 22 23 17 16 19 20 21 19 18 18 21 19 20 21 25 27 26 26 30 31 28 26 29 30 29 27 27 30 27 34 37 24 27 24 26 30 31 31 30 24 23 20
12 16 17 18 18 18 15 23 27 22 19 19 20 18 19 20 21 20 21 21 21 23 25 29 26 31 34 31 25 28 26 27 28 31 32 28 38 31 29 28 27 27 27 32 31 26 24 23 21
10 14 14 10 11 11 12 21 9 4 6 7 11 11 13 16 16 21 23 20 18 20 24 28 27 30 32 34 30 27 26 27 29 32 33 36 31 30 25 27 29 28 32 35 33 25 24 22 21
14 16 14 11 11 7 12 11 2 5 10 12 13 14 15 13 15 17 19 18 16 18 21 27 29 30 32 30 28 26 21 23 29 32 36 35 37 39 30 27 29 34 33 37 33 28 26 23 21
15 19 12 14 6 10 17 20 18 17 19 20 20 19 19 19 19 19 19 17 15 15 20 25 29 28 29 29 22 19 18 21 25 31 35 35 34 36 35 33 32 38 35 37 31 28 26 25 23
12 14 15 9 8 17 21 21 19 16 21 20 21 21 22 23 20 23 22 16 15 15 19 25 28 27 29 27 23 21 21 20 25 28 31 33 31 35 36 34 34 39 39 40 37 30 29 25 24
20 21 20 17 13 14 19 21 21 23 20 24 23 22 22 22 21 20 25 19 15 16 20 24 28 27 30 26 24 19 20 18 20 26 30 31 31 34 34 36 36 39 39 41 33 32 28 26 26
18 18 14 15 14 19 21 22 14 4 11 12 14 15 18 21 20 20 20 22 18 18 20 24 28 27 28 24 21 16 14 13 17 23 27 30 32 33 35 37 38 36 35 39 33 32 30 27 27
17 14 14 14 10 7 1 6 11 6 5 7 3 9 12 17 17 19 19 20 19 20 19 23 27 28 27 24 21 21 18 15 14 20 26 27 32 35 32 41 40 37 34 34 34 33 32 29 28
13 5 10 9 10 12 16 8 5 7 9 6 11 11 13 14 11 16 18 20 19 18 21 23 27 27 25 24 20 19 17 16 15 18 19 25 27 36 37 40 41 40 34 31 34 33 31 29 29
5 7 8 8 8 10 17 13 4 2 8 11 12 13 13 13 11 11 14 16 15 18 21 25 28 27 24 23 19 18 16 14 13 13 16 22 28 35 41 44 42 40 38 33 32 32 32 28 28
14 11 5 7 5 6 4 8 9 8 4 8 12 15 15 14 12 10 7 9 15 19 22 26 28 27 24 21 19 17 15 13 13 13 19 20 21 27 31 36 40 39 36 32 32 31 31 29 27
16 13 6 8 6 3 8 7 3 3 1 7 12 16 17 19 12 9 6 8 14 17 21 22 26 25 22 20 18 16 14 11 10 15 20 23 23 28 31 31 37 33 32 31 28 27 27 26 26
9 9 5 4 5 5 7 8 7 4 5 10 14 17 19 20 16 13 6 8 12 17 19 21 24 23 21 20 18 16 14 10 8 13 18 23 25 30 31 29 30 29 30 30 26 25 25 23 25
7 9 4 5 5 6 5 8 3 6 11 15 17 18 19 19 18 14 7 9 12 15 19 20 23 21 20 21 18 16 13 10 9 10 15 21 27 30 31 30 31 31 29 29 28 26 25 26 28
7 7 5 2 3 3 2 3 7 8 12 15 16 16 17 18 17 14 8 3 11 14 18 20 21 21 21 21 19 17 14 11 10 9 12 19 26 30 30 28 27 31 33 32 31 31 26 26 24
6 7 9 5 5 1 3 5 6 7 14 15 14 14 14 15 15 11 7 2 8 13 16 18 18 20 20 21 19 17 14 13 11 11 11 17 22 25 27 32 26 29 32 33 32 29 30 28 24

GFSSGP_925_spd_093.txt.gz
Wind_Speed
12 9 10 11 8 9 18 18 9 3 6 6 5 6 6 9 4 1 5 11 14 18 17 19 18 17 18 20 20 19 20 21 21 21 22 22 23 23 23 23 23 24 21 18 20 18 17 17 19
14 13 12 7 10 15 16 18 8 11 6 3 5 7 9 10 1 9 10 10 17 19 17 16 17 18 19 18 19 19 20 22 23 23 23 23 24 24 24 25 25 24 21 20 20 20 19 19 21
17 15 9 7 17 20 18 15 1 8 4 8 9 8 10 8 4 1 11 16 19 18 16 16 15 15 18 18 17 18 19 21 23 24 22 24 26 24 25 26 25 23 22 23 21 20 20 21 21
14 11 9 14 24 21 24 22 6 9 4 8 7 4 4 4 3 6 16 17 18 18 16 16 14 15 16 17 16 16 18 20 20 22 25 25 26 27 29 26 26 24 22 22 21 19 20 22 21
21 8 14 20 26 26 21 11 8 12 9 5 6 14 6 9 5 2 13 17 18 17 15 15 16 15 17 17 16 16 16 18 20 21 25 26 27 26 24 27 26 24 24 23 21 20 21 23 23
10 13 17 20 26 24 22 15 12 13 11 14 9 12 7 6 5 8 10 17 16 16 15 13 18 16 16 18 18 18 17 18 20 22 24 26 27 25 27 29 27 26 25 23 22 20 23 24 24
18 15 22 26 25 22 17 13 15 17 19 18 16 15 12 7 5 3 10 17 16 15 15 14 15 16 16 18 19 18 18 19 20 24 23 26 25 28 29 29 27 25 25 24 22 24 24 25 23
15 16 29 25 21 26 17 9 18 15 21 18 9 8 16 8 5 3 9 16 17 16 15 14 15 16 15 14 19 18 18 19 20 22 20 20 22 24 27 27 27 26 26 25 24 24 27 24 23
18 17 23 28 25 23 10 16 20 13 17 14 11 15 3 3 2 4 10 14 16 16 16 15 16 16 15 14 15 18 19 18 20 21 21 22 20 23 26 27 26 23 20 18 17 18 23 25 25
19 17 29 22 21 17 10 22 18 12 14 18 14 11 17 10 9 9 10 15 19 20 19 17 16 17 17 15 14 16 16 17 17 17 17 21 19 20 23 24 22 22 20 18 17 15 20 22 23
23 26 24 25 20 16 18 21 21 18 20 16 16 17 18 13 13 13 12 15 22 24 21 20 18 19 19 17 16 16 17 17 19 20 19 20 20 19 22 18 24 24 20 20 20 18 20 19 23
26 27 22 24 27 14 22 23 25 23 22 16 18 18 18 17 15 15 17 18 20 24 26 20 22 21 21 18 18 17 18 19 19 22 21 19 19 19 21 21 22 24 26 25 29 26 24 23 20
24 24 21 24 19 23 21 24 26 26 23 21 19 22 20 17 18 21 23 23 22 22 27 25 23 24 23 21 20 18 19 19 18 20 21 21 20 21 22 22 24 24 27 33 33 34 30 24 22
20 21 21 20 26 23 23 26 26 28 24 22 22 22 20 20 20 22 25 26 24 22 24 26 24 26 25 25 23 21 19 23 19 20 21 22 21 22 24 23 22 24 28 30 31 33 36 30 25
19 22 20 21 21 21 21 28 29 27 26 25 24 22 22 22 21 20 26 27 26 23 24 25 26 29 28 27 28 23 21 20 21 21 21 22 22 22 23 27 24 23 25 27 31 29 36 33 27
15 20 20 18 21 24 22 30 24 22 16 26 24 21 22 21 21 26 27 29 31 26 24 24 26 29 30 27 26 25 23 23 21 23 23 25 25 23 24 28 27 26 27 24 26 28 29 30 29
20 20 23 22 18 11 17 20 16 2 7 10 12 14 15 16 19 21 24 27 29 29 25 24 27 27 33 27 25 26 25 24 25 21 21 25 27 24 27 24 27 29 27 25 29 32 30 27 20
20 22 19 20 18 15 18 23 19 18 15 19 19 19 18 18 19 19 21 25 27 26 23 23 27 26 28 26 24 23 23 22 24 28 27 26 29 29 26 28 27 30 29 30 30 32 30 26 23
18 21 17 17 16 11 15 21 23 22 22 22 22 20 20 20 20 22 23 24 24 22 20 22 26 27 28 26 26 25 24 22 23 24 26 28 29 32 32 30 25 27 33 33 34 32 31 27 23
21 23 23 21 20 19 20 24 24 22 19 23 22 20 19 18 17 17 22 25 26 23 21 23 26 28 29 26 26 24 21 20 21 21 25 27 30 31 32 32 28 31 33 36 36 32 28 28 22
21 23 19 20 17 17 20 25 27 27 21 23 19 16 13 13 15 16 17 22 26 23 23 24 26 28 28 28 25 22 17 13 17 20 22 26 28 29 33 32 33 37 34 36 38 36 31 26 25
22 20 20 18 16 11 6 9 14 5 9 8 5 4 7 10 13 15 17 17 25 25 23 23 24 27 27 30 28 26 18 15 17 18 19 24 27 29 31 34 37 35 36 36 41 36 34 29 27
20 15 16 16 13 16 18 10 16 13 10 11 2 5 8 8 10 13 14 16 25 27 23 21 23 27 25 31 27 24 23 20 16 19 18 20 25 31 34 35 38 36 35 36 38 36 34 32 30
14 11 12 11 11 14 17 15 10 11 7 5 6 6 7 9 9 10 12 18 22 23 21 20 22 26 26 28 27 23 20 16 16 16 16 19 24 31 29 38 38 37 36 34 40 40 37 29 28
16 14 9 10 11 13 12 11 14 12 8 3 5 9 11 12 11 8 9 9 15 16 17 18 22 25 26 27 26 21 18 18 15 15 14 13 21 23 29 35 39 37 36 38 36 35 32 29 28
20 17 9 11 10 13 14 7 7 14 6 1 7 8 11 15 15 11 8 5 7 11 15 16 23 25 25 24 21 18 15 14 14 12 12 13 21 25 31 37 38 38 39 38 37 34 30 27 27
13 18 20 13 13 6 6 10 7 9 10 5 10 11 13 16 18 16 13 3 8 14 13 16 20 24 23 21 19 17 15 13 11 9 12 16 18 22 26 32 37 39 40 43 36 27 26 25 25
12 12 9 8 5 8 11 14 9 10 5 8 10 12 14 17 18 20 16 2 5 16 15 13 17 20 20 19 17 16 15 12 9 10 15 17 18 22 25 25 26 31 35 41 39 29 26 22 20
12 12 8 6 9 6 7 6 14 9 10 11 12 12 15 16 16 16 16 15 4 16 14 15 21 19 18 17 16 15 15 13 11 10 13 19 22 26 25 26 27 28 30 32 31 28 26 24 22
19 16 16 6 10 5 4 2 4 13 13 13 13 13 13 15 14 15 17 14 13 11 11 13 17 19 16 15 16 16 15 15 12 10 13 20 25 28 29 30 28 28 28 27 26 26 28 28 27

GFSSGP_925_spd_096.txt.gz
Wind_Speed
13 10 9 14 7 8 17 19 20 23 3 2 6 8 9 11 13 4 17 19 22 25 24 21 18 16 15 15 16 16 16 16 15 15 16 15 16 16 16 17 18 19 18 17 16 17 16 15 15
12 12 14 6 9 13 15 21 22 21 7 12 6 6 8 9 12 12 13 17 22 22 24 22 20 18 16 16 15 15 16 16 16 16 17 17 17 17 17 18 19 18 17 17 16 15 16 17 18
14 16 7 6 13 19 17 22 20 8 10 5 3 7 8 5 4 10 26 21 21 19 22 21 20 19 18 17 16 15 15 16 17 17 17 18 18 18 19 19 20 20 17 17 17 16 16 19 19
9 6 7 12 23 21 26 21 26 14 9 2 6 9 4 14 5 7 22 24 21 21 19 20 19 17 17 16 16 15 14 15 16 17 17 19 20 20 20 21 22 21 17 18 20 19 18 19 19
19 7 11 17 25 26 24 26 20 7 15 6 9 9 9 8 11 12 17 20 20 21 20 16 16 16 16 16 15 15 15 15 17 17 19 20 21 21 19 20 22 20 18 20 19 19 19 20 19
8 10 15 18 25 25 21 20 23 15 11 8 7 8 8 14 12 10 17 16 17 18 15 16 16 15 15 15 15 15 15 15 17 17 19 21 22 21 21 23 23 21 20 21 19 18 20 21 21
17 13 20 24 24 25 23 19 21 16 14 18 11 13 9 5 12 15 10 17 15 17 12 13 17 16 15 15 15 16 15 16 17 17 19 21 21 21 23 24 23 21 21 21 20 19 20 22 22
14 14 26 23 20 27 21 23 12 11 14 12 18 16 11 9 10 5 8 17 16 16 14 12 14 15 16 17 16 15 14 16 16 18 19 18 19 20 22 22 23 21 21 21 18 15 16 19 21
18 15 20 27 26 24 22 21 16 9 15 11 14 17 2 13 10 7 11 11 20 17 17 16 16 16 15 13 16 16 15 15 16 18 19 17 18 19 21 22 22 19 17 14 13 11 11 15 17
19 17 29 23 23 22 22 21 18 12 17 15 14 10 14 14 11 8 14 13 16 19 20 20 19 19 18 17 14 17 16 17 17 17 19 21 19 17 20 22 22 21 21 20 20 23 13 10 16
23 27 23 24 22 23 23 23 19 17 23 11 14 17 12 11 10 8 13 18 24 24 23 21 22 21 21 19 19 16 17 16 16 17 17 17 17 17 19 22 25 23 25 24 23 18 19 16 18
25 27 26 26 24 23 24 25 21 21 17 18 17 11 9 15 17 10 12 17 18 30 31 30 25 23 24 20 21 20 20 19 20 20 20 18 20 20 20 20 22 30 30 29 26 19 18 18 20
26 25 25 24 23 23 24 23 22 23 20 20 20 19 15 14 13 18 19 20 23 21 33 37 35 27 26 24 22 21 21 22 21 21 23 21 20 20 21 21 24 29 31 30 29 26 25 24 26
20 24 24 24 23 23 23 26 22 21 21 22 23 23 19 15 18 20 19 22 24 25 24 42 37 35 30 30 23 27 22 21 24 24 23 24 21 19 22 24 25 26 30 29 28 27 26 29 28
21 23 22 23 21 23 19 27 29 19 20 26 27 23 23 21 18 18 23 23 28 30 25 39 38 37 31 30 26 23 26 24 22 21 24 25 24 21 23 24 27 32 30 32 28 32 28 31 26
22 19 19 22 23 24 23 32 25 20 24 27 27 24 21 19 21 25 28 31 29 30 29 29 35 35 33 30 28 26 22 26 29 24 21 24 27 24 25 25 24 27 24 24 25 30 27 31 30
20 20 25 27 22 23 21 29 23 22 21 27 19 14 21 21 22 27 31 31 33 33 31 28 36 36 36 31 30 29 25 23 24 28 28 24 24 27 26 27 28 27 26 27 28 28 26 36 30
21 23 24 25 21 22 20 23 19 22 20 14 9 11 12 12 13 16 25 29 29 31 35 31 32 38 34 28 30 27 26 25 24 25 27 27 26 27 28 28 28 30 27 27 27 25 26 29 29
24 26 25 23 18 19 18 21 23 16 17 19 16 13 15 15 15 20 20 19 24 23 24 29 31 34 32 27 27 25 26 24 25 26 23 25 26 27 29 26 28 29 29 33 29 28 30 25 28
27 27 27 22 22 17 20 25 18 18 21 21 22 17 15 17 17 18 22 22 21 21 22 22 29 35 31 28 27 23 22 23 22 25 28 28 27 28 30 29 29 29 30 33 29 30 24 23 32
26 26 21 20 19 18 21 24 22 27 25 21 22 15 17 17 13 8 7 11 25 25 22 21 23 33 30 26 23 21 23 20 22 23 24 27 27 29 30 32 30 31 28 25 33 33 31 25 27
25 23 18 19 16 16 18 15 22 17 14 23 23 22 12 3 6 7 8 8 15 24 27 24 23 23 32 29 26 28 24 19 16 20 21 23 26 29 31 30 32 32 32 34 36 38 39 27 23
19 22 16 18 18 17 20 12 17 17 18 11 9 5 2 3 4 6 7 10 20 18 25 28 26 24 32 32 28 29 24 20 16 19 22 23 23 26 29 30 32 33 32 35 35 35 35 34 25
12 16 15 17 13 15 19 17 14 15 14 13 11 4 7 9 9 7 8 10 16 19 19 30 26 22 30 29 32 28 26 20 20 23 21 23 24 26 29 30 34 36 35 37 39 35 39 38 30
14 10 8 7 10 13 18 16 12 13 6 10 8 9 11 11 12 16 9 8 8 15 18 26 24 20 29 28 28 24 28 23 18 25 23 20 21 25 28 30 33 35 39 37 36 39 39 37 35
23 18 7 7 7 13 19 9 10 11 16 9 10 11 13 14 15 17 21 20 8 7 22 19 19 18 25 27 25 23 20 16 15 15 16 19 20 22 28 31 31 36 39 38 36 37 37 39 36
17 23 20 12 14 6 6 11 17 18 6 12 10 13 15 15 14 17 18 21 12 16 15 10 11 17 22 25 22 20 19 15 11 13 14 14 17 17 23 27 33 35 40 36 37 32 37 41 35
12 12 13 7 4 4 2 5 7 9 10 9 10 13 16 16 14 16 17 19 28 17 10 3 8 12 21 23 19 17 14 13 12 12 13 13 14 12 17 23 31 28 34 36 34 33 30 35 34
11 4 4 7 10 2 2 4 10 13 8 9 12 14 16 14 14 15 16 24 32 13 6 3 5 6 22 20 15 16 14 13 12 11 13 14 11 12 15 21 21 30 35 37 35 31 34 32 30
19 14 17 4 5 7 2 3 6 11 9 16 16 17 16 16 15 15 15 19 25 25 6 5 5 15 18 17 14 15 15 13 13 12 12 13 12 15 18 18 18 16 26 36 33 31 32 30 30

GFSSGP_925_spd_099.txt.gz
Wind_Speed
8 8 4 3 2 2 5 8 13 19 13 4 2 8 6 2 4 4 13 25 31 33 28 24 21 19 18 19 19 18 17 15 14 13 14 14 14 15 15 16 17 17 16 18 17 15 15 15 16
8 7 4 1 3 3 5 12 21 18 9 3 7 5 7 5 4 12 12 28 30 31 28 25 21 20 18 18 18 18 17 15 14 14 15 15 15 15 16 17 17 16 15 16 16 15 15 17 19
11 10 2 4 4 8 6 11 19 11 9 1 2 2 2 2 6 8 28 28 25 29 27 25 22 20 18 18 17 17 17 16 15 15 15 15 15 16 16 17 18 17 15 16 16 16 17 18 19
7 2 4 3 10 8 20 17 20 15 7 2 2 2 2 10 8 19 30 24 26 28 26 24 22 20 19 18 17 17 17 17 16 16 16 16 17 17 17 17 18 17 15 16 17 16 17 19 19
4 1 4 5 12 8 14 17 21 18 9 5 5 3 4 5 32 33 30 23 24 24 21 23 22 20 19 18 17 17 16 17 17 16 16 17 18 19 17 17 19 18 16 18 17 15 18 19 20
1 2 2 13 15 10 13 17 18 17 13 4 4 4 3 22 29 32 32 31 23 23 20 21 21 21 20 19 18 17 17 16 17 17 17 18 19 19 18 20 20 19 17 18 17 16 19 18 19
4 2 7 8 9 14 14 12 8 11 15 8 9 9 5 8 19 27 29 26 31 26 23 21 20 21 20 20 19 18 17 18 18 17 16 18 18 19 19 21 21 19 18 18 19 17 18 18 19
4 4 13 11 11 21 14 18 7 7 7 6 3 4 3 3 18 21 26 24 27 24 21 19 20 21 21 20 20 20 18 18 18 18 17 17 17 18 20 20 19 19 19 20 16 12 10 12 15
4 10 17 14 15 18 15 20 20 6 6 2 2 2 11 20 15 12 15 25 26 22 20 18 19 20 21 21 21 20 18 19 19 19 18 17 18 19 19 20 20 20 19 16 16 17 17 13 14
4 9 14 9 12 13 16 13 12 11 13 5 2 3 19 23 19 15 10 13 21 24 21 20 19 21 21 22 23 22 21 20 21 21 20 20 19 18 19 20 20 20 21 22 20 24 19 16 15
7 16 11 15 16 16 12 19 8 12 9 7 5 7 6 9 14 14 18 22 26 26 25 23 21 20 22 21 23 24 23 23 22 22 23 22 19 17 19 20 22 22 23 21 23 23 25 24 20
15 17 19 19 21 23 22 12 15 11 9 10 9 6 5 7 9 10 15 26 26 30 33 31 28 25 24 24 24 24 25 25 25 23 22 22 22 22 21 22 25 26 26 27 27 28 25 25 21
17 16 16 16 18 19 16 19 18 20 8 14 13 10 9 7 9 10 23 26 30 30 36 38 35 33 31 29 28 24 26 26 26 25 25 23 25 26 25 25 27 29 29 31 30 30 25 21 15
8 14 16 18 18 11 13 13 7 12 9 18 22 15 11 11 9 15 15 22 27 29 36 41 39 39 38 38 30 27 28 27 25 26 28 27 27 28 29 28 27 30 33 33 33 33 25 19 20
14 14 17 19 9 9 8 18 15 7 9 18 23 20 16 18 20 12 23 22 25 29 24 41 45 42 41 42 36 31 31 30 30 28 29 30 29 30 30 29 29 31 34 34 33 30 24 23 21
15 8 9 12 15 17 6 22 19 9 14 23 20 17 19 24 23 30 30 33 32 29 31 30 41 40 42 41 39 37 31 26 32 32 31 31 32 30 29 32 32 31 33 34 33 32 27 30 25
7 15 16 20 11 15 10 20 15 10 20 21 19 19 19 22 26 28 29 34 37 39 40 31 40 41 45 41 40 36 37 30 25 28 32 32 32 31 29 31 33 31 32 34 32 30 30 27 24
4 10 14 18 22 15 18 22 18 10 12 11 11 14 15 11 18 21 28 35 35 39 44 33 43 44 42 40 37 36 32 27 28 28 26 30 32 32 30 31 31 32 33 31 30 28 31 25 27
17 19 21 19 13 13 18 11 16 12 15 18 13 9 9 11 8 11 13 27 34 40 40 31 40 40 38 36 34 32 34 30 27 30 33 28 28 30 31 31 32 33 34 31 30 26 25 21 29
22 25 25 22 21 17 14 12 9 9 9 14 11 10 11 9 10 9 17 20 21 31 33 29 44 44 41 38 34 27 29 29 30 24 30 34 32 30 30 29 31 32 32 30 29 28 20 18 27
22 20 19 19 16 8 8 15 9 16 15 24 20 17 21 18 13 9 12 19 24 25 24 28 39 42 37 33 29 21 24 20 25 31 28 32 33 30 30 29 31 32 31 31 31 33 28 17 27
21 17 21 21 19 8 3 15 14 11 21 24 24 28 19 11 8 7 7 2 5 16 27 30 40 40 38 38 32 33 28 21 24 23 29 33 30 30 31 32 32 33 34 33 32 36 34 26 27
23 19 19 21 17 3 9 6 16 11 19 22 20 11 18 8 4 11 15 10 13 13 14 29 43 41 39 39 37 34 25 23 23 24 26 31 31 29 30 31 32 31 34 33 37 33 33 36 30
23 18 7 15 3 9 14 9 13 15 14 13 6 12 13 13 13 15 16 26 27 31 15 30 36 35 41 39 37 35 30 26 23 26 28 28 28 28 30 31 33 35 34 38 38 34 36 36 34
16 16 4 4 3 11 9 11 19 13 20 1 3 16 15 16 17 17 18 17 25 30 19 30 31 33 37 37 35 31 30 30 29 31 28 26 26 26 29 30 33 35 34 36 38 37 36 38 36
18 10 5 5 5 8 12 9 10 11 5 16 10 17 18 18 16 17 17 17 23 28 6 26 25 27 31 32 32 29 30 31 29 31 31 29 26 24 24 33 33 35 35 38 39 38 38 39 39
6 6 18 11 7 3 4 7 7 21 15 16 17 18 16 16 16 19 18 21 29 27 25 22 15 15 26 29 27 26 27 27 24 27 28 27 25 21 21 27 33 32 36 38 40 37 37 38 40
1 3 2 6 2 4 1 3 4 12 17 6 17 17 17 18 20 19 18 22 30 32 31 26 24 16 14 26 26 23 25 22 19 20 21 18 15 15 20 24 30 31 35 37 37 31 35 35 36
2 1 6 8 4 2 2 4 3 9 12 16 18 18 17 17 18 17 17 23 25 28 30 31 24 21 6 25 22 22 19 18 16 15 12 11 13 14 17 20 25 28 33 35 35 28 32 35 36
13 10 12 3 2 4 5 2 7 8 6 17 19 18 16 18 18 17 17 24 26 29 31 29 31 18 9 18 24 19 17 13 11 8 7 9 11 13 13 15 18 21 24 32 32 32 32 34 31

GFSSGP_925_spd_102.txt.gz
Wind_Speed
8 5 1 3 3 5 3 8 4 12 8 4 8 4 3 3 4 4 5 20 30 35 32 30 28 27 27 25 24 22 20 18 17 17 17 17 18 19 20 21 22 22 22 20 19 16 16 16 17
5 2 2 2 4 2 6 6 16 12 11 10 10 4 2 1 1 6 14 25 34 35 31 28 26 26 26 25 24 22 20 19 17 17 17 17 18 19 20 21 21 20 20 18 18 16 15 16 18
5 1 3 4 4 7 7 8 19 4 8 8 7 3 2 5 3 11 11 36 37 35 31 28 25 26 25 25 24 22 21 19 18 18 17 17 18 19 19 20 19 18 18 17 16 16 16 18 20
6 4 3 2 9 9 5 6 2 9 10 9 5 5 3 1 19 16 34 35 36 34 31 29 26 25 24 23 24 22 21 20 19 18 18 18 18 18 19 19 20 18 18 17 16 17 19 20 22
2 3 3 4 8 7 4 8 11 9 9 11 7 6 1 4 15 35 35 35 35 34 31 29 27 24 22 22 23 23 22 21 20 19 19 19 19 19 19 20 20 18 18 18 16 18 20 21 22
2 2 2 8 12 5 5 13 8 8 12 12 5 5 6 13 32 34 34 34 35 35 31 29 27 24 23 22 22 23 22 22 21 20 20 19 19 19 19 19 19 19 18 18 17 19 21 21 22
5 3 5 3 3 5 7 5 5 10 5 9 5 8 1 2 23 36 32 30 31 30 31 29 26 24 23 22 22 22 22 22 22 22 21 20 20 20 20 20 20 20 18 20 19 20 22 21 22
4 3 2 4 4 8 8 11 3 6 9 9 2 4 4 5 25 33 34 35 35 32 30 29 26 25 25 23 22 22 22 23 21 21 21 21 21 21 20 20 20 18 18 20 17 18 18 19 22
4 2 7 7 9 6 10 14 13 3 5 5 9 3 6 21 25 27 23 24 30 31 31 29 27 26 25 24 24 22 22 23 22 21 20 20 22 22 22 21 21 19 18 17 18 21 21 21 22
5 6 8 7 6 12 10 12 15 6 9 6 6 17 7 19 22 19 18 19 22 28 28 29 27 27 25 24 25 25 24 24 24 23 22 23 23 23 23 21 21 19 19 20 22 23 23 23 25
4 13 9 8 9 10 8 11 8 15 11 3 6 5 8 10 9 11 18 26 33 35 31 29 27 26 27 26 26 26 27 26 23 25 25 25 24 24 23 22 22 23 22 24 25 25 26 26 26
9 15 8 8 10 9 15 16 16 13 11 8 8 6 5 5 9 9 12 23 28 31 33 32 30 28 28 28 28 29 29 29 27 26 28 28 27 26 26 25 26 27 27 26 28 27 27 25 26
9 14 12 14 16 19 20 22 19 24 12 10 8 7 8 9 10 18 25 19 31 32 36 35 35 32 31 31 30 31 32 31 30 29 31 31 31 30 28 28 28 30 30 30 29 29 24 27 26
7 10 12 11 14 14 14 18 6 17 9 10 9 10 9 11 10 14 16 25 24 33 38 39 38 35 33 34 35 34 33 33 31 31 32 33 33 33 32 31 31 32 32 31 30 30 32 27 23
9 12 15 17 7 9 2 17 19 7 9 15 11 9 11 11 15 11 23 24 28 35 41 41 41 39 37 37 37 37 35 32 33 34 34 34 35 36 34 33 33 34 33 32 32 34 33 28 24
7 6 5 3 3 6 9 22 25 7 8 12 13 17 17 18 13 24 30 30 32 32 37 42 41 42 42 40 40 39 37 34 34 33 35 35 35 37 35 34 34 33 34 35 36 37 35 30 26
2 13 11 23 2 6 8 14 19 8 11 17 17 17 18 20 18 22 28 31 33 38 37 38 42 41 44 41 41 39 39 36 36 34 34 37 36 36 37 35 33 32 33 36 34 33 36 31 28
1 6 7 14 12 8 18 20 21 21 14 17 15 17 16 16 17 25 29 35 33 36 38 38 43 44 43 41 40 37 37 35 36 36 36 37 37 36 36 34 33 33 33 32 32 31 31 28 29
13 16 19 24 25 19 21 24 20 21 10 14 16 13 11 12 14 21 27 27 31 35 33 35 38 41 37 32 33 32 35 38 32 35 36 35 36 36 36 34 33 33 33 33 32 30 28 25 27
15 18 23 21 22 20 22 25 23 14 13 13 11 10 10 8 10 10 15 24 23 29 37 32 38 41 41 38 39 30 34 33 36 34 28 34 35 34 34 33 33 35 33 30 31 31 22 23 27
13 19 20 22 24 22 16 22 18 18 7 11 14 13 11 14 15 12 9 14 20 23 29 31 39 41 44 39 31 24 28 21 25 31 35 34 33 31 33 34 33 33 34 32 34 35 28 21 24
16 13 13 18 18 16 6 18 22 10 14 17 17 15 19 17 17 2 6 6 14 15 13 28 36 40 40 36 34 35 32 26 27 30 32 37 36 34 32 31 33 32 33 32 33 35 33 27 22
20 10 15 19 19 8 20 12 18 8 16 14 11 14 18 8 9 7 7 7 13 18 16 15 30 30 38 41 37 35 28 28 24 27 29 34 34 35 36 36 34 33 34 34 34 34 34 32 27
11 12 15 14 2 8 15 15 25 15 16 16 6 16 17 12 11 12 12 19 24 26 22 12 27 31 33 39 36 37 34 29 26 27 27 28 31 33 35 35 35 37 37 35 35 35 36 35 31
2 4 7 4 5 12 12 12 15 13 17 12 12 19 16 12 15 17 20 18 24 30 32 7 25 27 31 34 35 38 36 36 34 30 28 27 25 28 31 34 34 34 34 35 35 35 35 36 33
11 5 5 8 4 5 9 5 2 12 15 16 15 16 17 18 17 17 18 16 24 29 33 30 7 26 31 31 31 31 32 32 32 35 32 29 28 32 32 33 33 35 35 35 33 33 34 35 35
2 9 15 10 8 7 5 5 5 12 19 20 19 18 17 16 17 22 19 22 26 27 28 28 23 6 19 24 24 27 32 31 31 31 30 31 32 29 27 29 31 32 33 35 35 34 33 35 37
10 5 3 1 4 7 7 2 3 13 15 13 17 18 16 17 21 17 17 22 26 27 27 28 30 26 6 21 29 30 31 28 27 25 27 26 27 25 23 24 28 32 34 35 35 34 34 35 39
3 1 4 3 3 4 3 3 5 6 14 14 17 17 17 18 16 15 17 26 27 29 31 31 32 31 28 9 20 23 25 24 23 23 20 20 19 18 20 22 24 27 29 33 33 33 36 39 35
13 6 4 3 4 6 2 4 6 14 15 14 16 18 15 14 15 16 17 24 28 30 33 31 32 32 31 18 13 23 26 25 22 20 17 14 13 13 15 17 20 22 25 28 32 31 30 34 35

GFSSGP_925_spd_105.txt.gz
Wind_Speed
2 2 1 4 3 5 4 8 2 4 5 3 3 2 8 6 3 5 7 20 30 36 38 35 32 30 27 27 27 27 26 23 20 20 21 23 24 24 23 23 21 21 19 19 17 15 15 16 16
1 5 4 3 4 1 6 6 10 9 5 11 9 6 4 6 3 1 10 14 27 39 39 36 34 32 29 27 26 26 25 24 22 21 20 21 22 23 23 22 22 21 20 18 17 16 16 17 18
3 2 4 4 4 5 6 5 8 6 5 5 7 4 5 4 2 11 6 22 34 38 38 35 33 31 29 28 27 26 25 24 24 22 21 20 21 22 22 22 21 20 18 17 17 16 17 18 19
6 4 4 3 7 7 7 5 3 8 6 1 3 11 7 8 6 13 17 32 40 39 37 34 32 31 30 29 27 26 25 24 24 24 22 20 20 21 22 22 20 19 17 17 16 17 18 20 21
3 3 1 2 6 6 4 7 1 3 6 9 7 8 5 6 10 20 30 37 41 39 37 34 32 31 30 29 27 26 25 24 24 24 23 21 20 21 21 21 20 19 18 17 16 18 20 22 23
3 2 2 6 6 4 6 8 4 3 5 10 7 6 7 4 12 25 36 41 41 41 37 34 31 30 29 28 28 26 25 24 24 24 24 22 21 20 21 20 19 18 19 16 16 20 22 23 24
4 3 4 3 3 4 6 4 3 4 5 7 4 6 6 3 13 29 34 35 37 37 37 34 32 30 29 27 26 25 25 25 23 24 24 23 22 21 21 20 19 18 18 18 18 21 22 23 24
4 3 2 4 5 7 6 1 4 3 8 8 4 6 8 6 14 21 24 27 29 32 34 33 31 29 28 27 26 24 24 24 24 24 24 24 23 22 21 20 19 17 17 17 18 20 21 22 23
4 2 3 4 5 4 6 5 4 3 4 5 5 4 7 7 13 18 17 20 26 28 31 32 32 31 30 27 25 23 23 23 24 23 24 24 25 24 22 21 20 18 17 18 18 20 21 22 23
5 4 8 6 4 4 5 4 11 4 5 4 8 8 17 13 7 3 13 16 23 27 30 32 31 32 30 29 27 25 24 24 24 25 25 26 26 26 24 22 22 21 19 20 21 22 23 23 25
4 7 5 4 6 6 4 9 6 8 15 7 10 6 9 5 4 4 13 12 33 31 28 33 33 32 31 29 29 27 26 26 24 24 24 25 27 27 26 24 25 24 23 23 23 25 25 26 28
5 8 7 3 5 6 11 8 13 12 10 8 11 8 5 9 6 5 10 20 16 27 35 35 34 33 31 30 30 29 28 27 26 27 25 27 28 29 29 28 28 28 28 27 28 29 28 27 27
5 7 9 12 12 12 13 17 18 18 16 10 12 9 9 9 9 17 14 15 25 19 23 36 37 35 34 33 32 31 31 30 26 25 27 29 30 33 32 32 31 31 31 30 30 29 29 28 28
5 8 9 7 8 5 10 18 6 5 10 10 9 11 10 11 11 16 20 19 22 30 33 33 38 38 37 36 34 35 33 32 30 27 28 32 33 34 35 34 33 33 33 32 32 31 30 28 27
5 10 14 11 4 6 7 22 14 7 9 11 10 11 11 12 15 14 26 29 30 28 35 39 40 40 39 38 37 37 36 31 33 33 33 35 35 36 36 36 35 35 35 34 33 32 32 29 28
7 5 6 4 8 5 1 17 8 8 7 12 13 15 13 13 12 23 29 31 35 33 32 40 44 38 43 41 41 38 38 36 35 34 34 36 36 36 36 36 36 35 35 35 35 35 35 33 32
4 8 10 7 6 4 3 15 10 13 16 21 19 14 13 17 13 21 26 31 36 40 39 39 42 44 45 43 41 39 39 38 36 36 36 37 37 37 36 37 36 32 31 35 35 34 34 33 31
3 5 7 9 5 14 17 17 27 21 18 20 19 19 18 18 21 20 26 32 33 36 40 43 43 45 46 42 38 35 35 36 36 36 35 37 38 37 36 36 35 32 27 30 32 32 32 30 31
5 9 17 17 14 14 14 20 20 25 22 21 16 17 18 16 19 22 28 35 31 29 33 40 38 41 39 34 32 28 29 36 37 37 37 37 37 38 37 36 34 34 31 30 31 28 29 26 27
9 12 14 17 10 10 19 24 23 20 19 23 22 19 17 12 11 14 22 30 27 27 22 33 37 41 40 36 37 29 35 33 41 40 40 40 38 39 39 38 35 34 30 30 32 30 21 22 27
7 6 7 11 17 13 15 21 19 17 15 15 22 13 9 10 16 13 13 14 16 18 18 19 32 35 40 38 30 23 24 18 21 29 34 39 40 40 40 39 38 35 34 33 33 32 27 20 23
16 5 10 13 9 15 1 22 18 19 22 19 21 5 8 13 18 16 12 7 12 15 14 11 27 37 39 38 34 33 33 25 27 35 37 35 39 42 38 39 37 35 34 32 34 33 31 24 19
18 8 8 8 13 16 20 13 23 15 19 18 1 7 9 12 16 17 15 16 17 20 19 15 18 34 32 37 36 35 28 29 24 27 32 34 37 39 38 39 36 35 35 34 34 32 32 32 24
9 8 14 10 9 14 21 10 26 9 14 9 7 10 10 14 17 17 21 19 18 21 23 21 9 27 32 36 35 34 34 29 26 26 27 29 30 35 38 38 36 36 35 34 35 34 33 32 30
2 3 3 3 6 14 11 10 18 14 9 10 10 9 9 15 16 16 16 15 20 23 28 25 16 13 24 29 33 32 29 31 34 33 30 26 26 27 35 38 37 37 36 34 33 33 33 34 32
11 6 4 7 5 6 5 5 4 13 13 15 15 14 15 16 16 16 17 16 20 24 27 27 26 20 15 22 24 27 29 31 27 28 26 27 29 29 28 34 35 36 34 34 34 32 34 34 33
3 5 8 9 13 8 5 10 1 17 15 18 19 19 18 18 19 19 16 19 24 25 26 26 27 25 18 19 23 24 28 30 31 30 26 26 29 31 32 31 31 31 30 30 31 32 30 29 33
12 6 1 4 3 4 4 6 9 14 17 16 16 13 15 16 17 17 16 20 25 27 27 28 27 25 23 6 18 22 27 29 27 26 27 28 28 29 29 28 26 25 26 28 30 30 31 30 32
2 5 7 4 3 2 1 4 4 8 12 15 15 16 14 17 17 15 14 24 27 27 28 27 28 25 26 19 2 18 24 22 22 22 24 25 26 25 23 24 22 22 25 27 30 30 30 32 33
11 8 6 3 4 4 1 3 5 8 13 14 16 17 17 16 17 16 18 24 23 26 29 29 29 29 28 27 15 9 17 20 21 22 22 20 19 18 17 17 16 18 22 24 29 30 33 35 35

GFSSGP_925_spd_108.txt.gz
Wind_Speed
3 3 3 4 4 5 4 7 3 4 3 2 5 5 8 5 6 5 9 17 19 32 36 34 32 32 29 27 26 25 25 25 25 24 26 29 29 26 25 24 23 21 19 18 17 15 15 15 16
3 6 3 2 5 3 5 5 7 7 6 10 7 5 3 7 5 4 8 16 29 33 37 35 34 33 31 29 27 25 25 25 25 25 27 29 28 26 24 23 22 21 20 19 18 15 16 17 17
6 2 4 4 4 6 6 7 5 3 7 4 6 2 4 5 6 4 5 20 27 40 39 37 36 35 32 30 28 26 25 25 26 27 27 27 26 25 24 22 22 21 20 19 17 15 16 17 17
4 4 4 4 7 7 7 5 5 6 5 2 3 9 5 10 4 4 11 22 28 40 39 37 36 34 33 31 29 27 26 25 25 26 26 26 26 25 24 22 22 20 19 18 16 17 17 17 18
4 3 2 1 5 6 5 4 3 3 4 5 2 7 4 10 13 10 17 27 35 38 38 36 35 34 32 31 29 27 26 25 26 25 25 25 25 25 25 23 21 19 18 18 17 18 18 19 19
3 3 2 3 4 5 6 4 3 2 4 8 5 4 6 19 17 11 16 26 33 37 37 36 34 33 32 30 28 27 25 25 26 26 25 25 24 25 24 23 21 20 18 16 16 19 20 20 21
6 4 4 4 2 4 5 4 3 2 3 6 3 6 6 10 25 9 13 24 30 33 35 34 33 32 30 29 28 27 26 25 25 25 25 25 24 24 25 23 21 19 19 16 18 20 21 22 21
5 4 3 4 4 6 6 4 2 1 5 7 2 4 9 6 11 6 11 18 24 28 30 29 30 31 30 28 27 27 26 25 25 25 24 24 24 23 24 23 22 20 19 18 20 22 23 23 21
4 1 2 4 5 4 3 4 3 1 4 4 5 5 7 13 4 2 7 6 17 24 28 27 26 29 28 26 25 25 26 26 25 25 24 23 24 24 24 25 23 22 20 19 20 22 23 23 21
4 3 8 6 4 4 3 4 8 4 5 5 10 7 17 4 2 3 1 3 11 17 27 29 26 27 28 28 26 26 26 27 27 27 26 26 25 25 25 25 24 23 22 21 21 22 23 23 23
4 5 5 4 5 4 4 7 4 5 8 7 13 10 11 2 5 5 6 7 9 13 18 24 27 27 28 28 29 28 27 28 28 28 28 28 27 26 26 26 25 24 23 23 23 24 26 26 26
2 6 4 4 4 6 10 4 7 7 9 10 11 10 7 16 7 7 8 12 13 14 16 24 26 25 29 29 30 29 27 28 30 29 29 29 28 28 28 28 28 27 27 26 26 28 27 27 27
5 4 3 6 9 7 9 8 9 9 13 10 10 12 11 12 13 14 16 10 9 16 24 24 27 30 29 31 32 30 31 31 32 29 29 29 30 31 30 30 30 30 29 29 29 29 29 29 29
2 4 7 6 8 7 9 10 5 8 6 10 8 11 10 10 11 16 9 19 15 19 22 27 29 32 32 32 36 35 32 33 34 31 31 30 30 31 31 33 31 32 32 31 31 31 30 29 29
4 6 5 5 1 4 5 2 6 5 8 8 10 10 10 10 16 14 26 23 23 24 24 28 29 34 38 36 36 37 35 34 32 32 33 32 29 33 31 33 34 33 33 32 31 31 31 29 28
5 1 1 1 8 5 1 6 6 4 16 16 10 10 14 11 10 22 27 34 34 32 29 30 33 34 40 42 41 40 35 31 29 26 27 32 30 33 32 32 35 33 34 32 32 32 31 30 28
4 4 2 4 3 5 7 20 4 18 11 14 13 9 10 15 16 18 26 32 33 35 36 36 35 37 38 43 44 42 39 36 35 27 29 33 32 34 33 32 32 31 31 33 33 33 33 32 30
4 5 4 2 5 7 8 24 21 4 8 18 17 13 12 13 17 24 27 29 29 33 36 33 35 38 41 40 38 37 37 35 35 34 33 35 35 34 34 35 32 31 29 30 32 33 33 30 30
4 5 11 6 6 6 8 18 27 13 8 14 14 15 14 14 20 21 25 30 30 27 29 31 33 34 39 33 33 32 32 35 33 38 40 37 37 36 35 34 35 32 32 29 32 30 30 25 26
6 8 8 8 5 4 8 21 22 20 7 9 17 18 15 13 7 10 18 21 21 27 25 26 29 33 38 34 34 34 36 33 38 33 31 39 39 39 36 35 36 37 33 31 29 31 20 21 27
4 5 5 14 5 8 10 17 9 12 19 13 14 18 6 3 4 7 11 17 21 22 21 18 23 27 35 36 30 27 25 20 23 26 30 40 39 39 37 38 38 38 35 34 34 33 27 20 23
7 8 9 10 8 9 5 14 32 9 15 17 24 21 5 6 6 6 10 15 20 22 27 24 21 23 34 39 33 34 32 26 29 32 37 36 41 42 39 38 39 37 36 34 36 35 33 25 19
4 6 8 7 6 8 15 8 12 19 23 13 10 10 10 12 11 10 11 17 20 23 25 26 23 26 31 34 36 37 33 31 28 28 29 33 37 41 41 40 39 38 38 36 36 33 34 32 24
8 5 7 7 2 9 18 10 15 6 11 18 11 13 14 15 15 15 19 20 22 25 26 26 25 23 25 34 38 38 37 30 25 28 29 30 32 34 38 39 40 40 37 35 35 35 36 33 30
5 6 3 4 1 6 6 7 5 9 10 12 16 19 17 16 15 16 18 17 23 26 27 25 25 21 12 27 30 31 31 29 34 30 27 28 29 29 36 36 36 36 37 36 34 35 34 34 32
2 6 3 5 2 5 11 6 2 8 11 13 13 13 16 18 17 16 17 19 22 26 27 27 25 22 18 17 25 26 27 26 25 26 26 27 26 26 27 35 33 34 35 35 35 34 34 33 34
1 5 7 6 10 6 4 3 7 9 13 17 15 15 15 18 18 18 18 20 24 25 25 27 27 24 21 14 15 23 25 28 27 27 27 27 27 27 28 28 26 31 32 32 32 31 31 31 34
8 3 2 2 3 5 5 2 4 12 16 16 16 15 17 18 18 17 17 23 23 22 27 26 27 25 23 18 9 19 23 25 28 28 30 29 29 28 25 25 26 28 28 29 29 28 29 29 29
2 3 5 4 4 3 2 1 5 9 12 13 14 15 14 16 16 15 16 24 22 25 29 30 30 30 29 27 14 9 20 24 25 26 28 26 24 24 20 23 27 24 22 22 24 26 26 28 30
7 4 3 1 2 4 2 2 6 8 10 13 15 17 17 14 16 14 14 20 26 25 26 27 29 30 30 27 23 4 14 18 21 23 23 22 22 17 17 21 19 19 18 18 19 22 26 29 28

GFSSGP_925_spd_111.txt.gz
Wind_Speed
4 4 4 3 2 1 2 5 0 5 4 3 1 5 9 11 8 7 9 11 7 25 34 33 31 31 29 27 27 27 27 27 28 29 28 28 28 28 28 26 24 21 19 19 18 16 16 15 16
5 7 3 2 3 4 5 3 10 8 3 6 4 3 4 4 6 9 9 3 16 32 36 35 33 32 29 27 26 26 26 26 27 28 28 28 29 28 28 26 24 21 19 18 18 16 16 16 16
8 4 2 2 2 7 4 4 5 3 5 3 3 2 4 6 11 10 10 8 16 31 33 34 34 33 30 27 26 25 24 24 24 27 28 30 29 27 26 25 23 21 20 19 17 17 17 17 16
5 3 3 3 7 5 6 2 1 7 1 1 3 4 5 7 13 15 16 8 19 28 31 33 33 32 30 28 26 25 24 24 24 25 28 29 28 27 26 24 24 22 21 19 17 17 17 17 17
4 2 2 3 4 6 6 5 5 5 7 6 2 3 8 5 16 18 8 9 15 20 31 33 33 32 30 28 27 25 24 24 25 26 27 27 26 26 25 24 24 22 21 18 18 18 18 18 17
2 1 2 5 7 6 6 5 5 6 5 6 2 5 5 9 27 20 9 9 15 20 26 31 31 31 29 28 27 26 24 24 25 25 26 26 25 25 25 24 23 22 21 19 18 20 19 19 18
3 3 3 3 2 5 4 2 4 4 3 4 4 8 6 12 21 18 9 7 14 20 22 28 28 29 28 28 27 26 25 24 24 25 25 25 25 24 24 23 22 21 19 18 17 20 20 20 20
3 2 5 4 6 8 4 2 3 3 5 7 1 2 7 16 20 16 9 5 11 17 13 18 25 26 26 26 26 25 25 24 24 24 24 25 24 23 23 22 22 21 19 19 19 21 21 21 20
3 2 4 7 7 4 1 3 3 4 7 6 3 5 14 23 14 12 6 1 5 11 14 11 14 19 23 24 25 24 24 25 24 24 23 23 22 23 23 23 23 21 20 19 20 22 22 22 20
4 3 9 5 5 3 3 4 8 7 16 17 18 9 15 17 16 18 14 5 5 6 11 10 12 16 20 19 24 24 24 23 24 25 23 23 23 24 22 23 22 21 20 19 21 23 23 22 19
5 5 6 5 8 5 10 14 9 14 15 13 17 17 14 15 21 15 15 11 9 12 13 18 18 18 18 18 21 23 24 26 26 25 25 22 22 22 25 21 22 20 21 20 22 23 24 21 20
4 7 5 3 3 3 5 5 10 13 16 15 15 16 11 14 13 17 14 12 12 14 16 19 22 21 22 19 20 21 21 25 28 29 30 28 27 25 26 21 23 20 23 20 23 25 24 21 21
4 4 4 5 11 8 11 14 13 11 16 14 9 10 12 12 15 21 16 16 12 14 16 21 23 28 26 26 23 21 23 25 29 30 31 32 30 27 27 26 22 22 21 22 24 24 22 20 20
2 4 9 7 10 10 11 10 5 7 6 7 8 11 11 10 13 16 19 19 17 21 16 20 24 30 33 34 29 27 27 26 27 31 31 33 31 29 28 28 27 24 25 27 24 25 23 21 20
2 6 8 9 0 2 5 7 6 4 10 16 16 17 14 13 15 15 19 21 24 28 28 17 23 28 30 34 36 33 30 30 32 31 29 32 30 29 28 31 29 31 31 29 27 24 23 19 19
3 1 4 1 7 3 3 9 8 3 15 16 16 14 17 18 14 18 22 23 26 28 30 30 22 25 30 33 33 39 39 35 29 25 28 32 31 27 30 31 31 31 34 30 27 23 21 19 19
1 4 3 5 5 5 5 11 12 14 12 13 16 17 15 16 17 19 21 23 23 25 29 32 30 24 30 32 38 35 40 40 36 29 33 32 31 36 34 33 32 31 33 34 30 23 21 20 18
4 5 3 6 4 14 17 24 11 9 13 17 16 15 16 18 19 23 19 18 22 26 28 30 32 30 25 29 32 28 29 31 31 37 34 33 35 35 33 33 35 32 33 33 34 28 24 20 19
3 5 10 9 12 10 11 27 22 12 14 15 15 17 19 20 20 19 11 15 17 17 20 21 23 30 24 24 27 28 30 31 32 36 38 33 33 36 36 31 35 34 34 35 34 30 26 19 22
5 7 8 8 4 9 16 30 27 13 7 14 17 17 21 24 19 13 18 17 16 18 16 17 16 20 22 27 28 30 32 33 35 35 33 34 36 38 41 36 38 38 33 34 34 32 19 21 26
4 5 6 11 8 11 16 22 6 9 10 9 12 14 16 16 18 18 20 22 23 21 21 22 21 20 19 24 27 26 26 27 28 29 33 42 41 38 40 38 35 39 35 34 35 34 29 21 23
7 9 10 7 7 7 4 12 21 2 11 14 14 15 15 17 18 19 20 25 27 27 24 26 25 25 23 19 27 31 31 29 33 35 35 37 42 38 40 42 38 36 35 32 36 36 33 24 19
5 5 8 8 9 10 12 6 13 18 7 12 13 15 16 17 17 19 19 26 26 26 29 26 27 27 25 22 26 32 34 32 32 32 32 34 37 40 40 45 42 36 35 37 35 34 34 32 24
3 5 7 8 5 7 6 9 11 5 5 8 13 14 15 17 18 18 25 26 26 27 29 29 27 26 23 20 27 36 36 33 30 32 30 30 31 35 38 36 41 41 38 36 39 37 36 33 28
3 4 3 4 5 6 2 8 6 3 7 9 12 14 16 18 18 17 20 23 28 29 30 29 27 26 22 21 23 36 36 33 32 31 30 29 29 31 37 43 41 39 40 37 36 36 35 35 33
3 3 4 5 3 4 12 8 2 5 7 11 13 14 16 18 18 17 18 24 26 28 29 30 27 25 22 19 12 28 31 31 30 29 26 27 28 30 29 37 34 37 36 35 34 32 36 35 35
3 7 6 12 13 9 6 2 5 7 11 14 15 17 18 19 20 19 21 25 28 29 30 30 27 25 22 21 14 14 25 28 26 24 25 26 27 29 32 33 36 33 35 33 31 31 33 32 33
13 1 3 4 3 5 5 9 3 13 16 16 17 17 18 18 19 18 18 25 28 28 29 26 25 24 23 23 19 9 22 26 25 26 25 26 25 30 30 29 31 31 31 30 29 27 27 29 29
3 4 6 4 6 4 4 1 6 8 10 13 14 15 16 17 17 16 18 26 26 26 27 24 24 25 28 30 27 18 10 20 23 24 22 22 25 28 28 26 25 26 26 27 26 25 25 26 25
9 4 3 2 2 3 5 3 8 8 9 11 13 14 16 14 16 15 18 24 25 26 26 25 33 32 30 29 27 24 12 13 16 18 21 23 22 22 22 23 23 23 25 23 20 22 21 22 21

GFSSGP_925_spd_114.txt.gz
Wind_Speed
5 4 4 6 6 6 7 3 3 5 3 2 2 6 9 10 4 7 14 10 8 15 21 30 29 28 27 24 21 22 24 26 26 26 27 25 25 26 25 24 23 21 20 18 15 16 15 14 14
6 6 6 2 7 10 7 5 8 4 2 4 5 4 9 3 4 12 14 20 5 15 23 24 29 29 27 26 24 24 25 25 26 26 26 24 25 25 24 23 22 20 19 18 16 15 14 15 15
7 7 5 4 8 11 10 3 6 1 0 2 3 4 4 4 10 13 21 17 4 14 21 24 31 30 28 26 25 24 24 25 25 26 25 25 25 25 24 22 21 19 19 19 16 15 15 16 15
8 6 4 8 14 9 9 2 2 2 3 2 5 8 2 9 9 18 22 9 5 15 20 22 31 30 28 27 25 25 24 24 25 25 25 25 26 25 23 22 20 18 19 19 17 16 15 16 15
6 3 8 11 15 13 11 7 6 8 6 9 8 6 5 5 15 20 21 8 4 13 16 16 29 30 29 27 26 24 24 23 24 26 26 27 26 25 23 21 20 19 19 19 17 17 16 16 15
6 4 8 12 15 13 14 8 9 11 10 9 9 8 5 0 21 21 19 9 3 11 13 15 26 28 28 27 26 24 23 22 22 25 26 26 25 24 23 21 20 19 19 18 17 17 17 16 16
12 8 14 14 12 11 13 1 7 8 10 9 4 9 5 4 20 16 16 11 2 8 12 13 18 23 27 26 25 25 24 23 22 24 25 25 24 23 23 21 21 20 19 17 17 18 18 17 16
6 6 12 10 12 17 9 8 7 9 6 5 4 4 5 14 19 14 13 10 3 7 13 14 14 18 19 21 24 24 23 23 24 23 24 23 23 22 22 22 21 20 18 16 15 18 18 18 17
3 7 12 14 12 12 4 8 5 4 9 7 6 9 13 19 19 15 14 7 4 6 12 13 13 15 18 18 20 23 22 22 23 23 23 22 18 19 20 20 20 20 18 16 15 18 18 18 17
9 10 12 7 11 12 10 12 12 9 13 13 15 13 13 16 16 15 14 12 6 8 13 14 13 15 17 17 17 19 19 20 20 20 21 20 19 19 19 20 21 20 18 16 16 17 18 17 14
6 13 10 9 13 10 13 15 16 17 17 15 14 16 13 14 14 13 13 14 12 6 13 17 16 14 16 17 17 20 20 21 22 22 22 22 21 19 21 18 19 19 19 15 16 17 17 17 15
10 12 11 9 8 11 14 14 17 16 18 15 14 14 11 11 10 11 11 10 11 7 10 14 19 19 19 18 16 17 19 21 23 25 25 24 24 22 22 20 20 20 20 18 19 18 18 18 16
13 11 9 11 12 13 14 16 18 20 17 14 5 7 8 9 10 11 11 10 8 7 7 10 16 19 22 23 21 20 23 22 23 22 26 26 23 23 24 23 21 21 20 20 20 19 20 18 17
2 7 10 11 15 15 16 17 13 8 2 4 3 6 9 11 11 14 14 13 12 10 8 9 13 19 20 24 26 26 24 25 24 24 25 28 26 25 24 24 24 23 21 21 20 20 20 19 18
7 12 13 13 11 8 6 12 12 8 5 7 9 10 11 12 15 14 15 17 16 15 12 10 13 17 21 25 25 25 28 26 25 27 26 29 28 25 24 26 25 25 24 22 21 20 19 18 18
9 7 10 6 4 4 5 13 4 7 7 13 17 15 14 15 12 15 16 17 19 18 17 13 12 16 21 24 25 26 27 27 28 25 26 27 35 29 26 26 28 25 25 24 24 22 20 20 19
7 13 8 8 3 6 6 11 4 9 14 17 16 18 16 13 14 16 16 19 19 19 20 19 16 15 21 24 26 27 26 27 28 27 28 29 31 33 28 27 27 27 28 27 24 24 23 21 19
12 9 10 11 5 13 19 21 17 8 16 17 17 19 14 15 13 16 18 16 18 20 20 22 19 17 17 24 25 26 26 27 29 29 29 31 33 33 32 28 25 29 29 27 27 24 24 22 19
11 13 16 14 12 15 16 19 18 18 18 20 17 14 13 14 16 16 17 16 19 19 21 19 21 16 16 20 25 26 28 29 32 32 32 32 32 33 33 30 28 33 35 33 29 25 24 22 19
13 15 16 12 6 12 20 30 21 20 10 7 11 10 11 13 14 15 18 19 19 20 21 21 21 20 18 18 23 26 27 30 32 33 33 32 32 32 35 34 33 35 31 31 31 32 22 19 25
13 14 13 14 15 17 21 27 8 12 3 3 5 9 11 13 16 17 19 20 21 22 22 23 24 23 23 21 21 25 28 28 29 30 30 33 35 36 39 36 33 34 33 33 33 33 30 23 25
15 9 10 11 11 12 9 15 19 12 8 2 8 11 14 16 17 16 19 23 22 23 23 24 25 26 24 23 23 25 29 30 31 30 32 35 37 36 36 36 37 36 35 34 36 33 33 26 21
11 5 10 12 15 16 19 10 17 12 7 7 9 13 15 16 18 18 18 24 27 24 24 24 25 27 25 24 25 27 30 31 30 30 31 34 34 38 37 37 37 37 37 37 33 33 33 33 25
8 12 16 14 12 12 21 16 16 4 4 5 10 13 16 18 18 18 23 24 24 25 26 27 27 26 27 24 25 29 32 35 31 31 30 31 33 35 39 39 38 39 37 36 38 34 34 32 28
10 8 6 8 8 10 3 6 14 10 3 5 9 12 13 16 18 19 20 23 25 27 28 28 28 29 27 27 26 27 33 39 37 33 31 28 29 31 35 38 39 38 38 35 34 33 33 35 32
8 7 7 10 9 10 8 8 0 6 7 8 9 13 15 16 16 18 20 25 26 28 27 27 28 29 30 30 28 27 29 34 38 34 31 30 27 30 33 39 38 38 36 35 36 35 34 33 33
5 9 11 16 16 13 11 10 6 5 8 14 15 16 16 18 19 20 22 26 27 29 29 29 29 30 31 32 30 25 23 29 34 33 29 26 27 28 29 34 34 35 35 36 35 34 34 33 35
13 2 4 8 5 8 7 11 3 9 13 14 15 16 18 18 20 19 20 27 28 29 30 29 29 30 31 31 26 22 20 23 29 25 24 25 24 27 29 31 35 34 35 35 35 33 31 31 30
7 11 10 7 8 4 5 2 6 8 9 13 14 15 14 17 17 16 19 28 29 30 30 30 29 29 29 26 23 18 13 17 22 24 23 24 23 24 25 29 29 31 32 33 32 29 29 29 24
12 10 12 9 6 7 6 6 7 7 8 11 13 15 16 16 17 17 22 26 28 30 32 30 31 27 26 25 20 20 19 11 14 17 21 20 20 20 22 23 28 28 28 27 29 28 25 24 22

GFSSGP_925_spd_117.txt.gz
Wind_Speed
5 6 9 7 7 7 14 12 5 4 7 5 7 7 11 11 7 4 16 14 13 7 16 29 27 25 23 20 18 18 18 20 21 22 22 20 19 19 19 19 17 16 15 14 13 13 11 10 11
7 7 10 7 8 12 12 10 8 6 9 2 5 5 9 2 4 8 16 24 14 5 13 22 28 27 25 22 20 19 19 22 22 23 23 21 21 21 20 19 17 16 15 12 11 14 12 11 12
6 10 10 5 13 14 13 8 7 9 2 4 4 1 6 4 9 11 20 18 9 5 13 20 28 28 26 23 21 21 22 23 23 23 24 22 22 23 21 20 17 16 14 13 12 13 13 13 12
9 7 7 11 18 13 12 3 4 2 6 3 2 8 5 6 6 13 18 15 6 4 12 20 25 27 27 26 23 23 23 23 23 23 24 23 23 23 22 20 17 16 15 14 12 13 13 14 12
12 8 12 16 18 19 13 9 2 10 8 7 8 12 4 10 7 12 16 14 6 4 11 14 21 26 26 25 24 23 23 23 23 24 25 24 24 24 21 19 18 16 15 14 13 12 13 14 13
8 6 13 14 17 15 10 10 8 12 12 10 9 13 9 6 11 13 14 13 5 3 10 9 17 25 25 24 23 23 23 22 23 23 24 24 25 24 22 20 18 16 16 16 13 13 13 13 13
15 12 16 18 18 17 5 4 7 10 11 7 5 6 6 7 11 13 13 11 7 4 10 8 13 19 24 23 22 21 21 22 22 23 23 24 24 23 22 20 18 17 17 16 14 14 13 13 12
12 13 21 18 15 16 11 7 6 10 12 6 4 7 10 11 15 14 10 9 5 3 9 11 13 16 17 19 22 21 21 21 21 22 23 23 23 22 21 20 18 18 17 16 14 15 14 13 12
10 12 14 17 16 15 10 5 12 3 9 13 6 10 11 17 16 15 11 9 4 2 6 8 13 17 19 18 18 21 20 19 19 20 22 22 17 17 18 18 18 19 18 17 14 16 15 14 13
10 12 20 14 15 12 13 13 12 13 12 13 12 14 10 13 14 14 12 10 10 5 8 15 13 16 18 20 18 18 16 18 19 18 19 19 18 18 19 18 20 19 18 17 15 15 16 15 11
13 16 20 17 9 13 16 16 14 16 17 16 14 13 13 12 13 14 13 12 10 9 7 13 15 17 18 18 19 19 20 19 20 20 20 20 19 19 20 20 20 18 20 16 15 16 16 16 16
17 17 16 18 14 13 14 15 16 18 17 17 13 12 10 12 9 10 8 11 10 8 5 11 16 16 20 21 20 20 23 22 22 23 24 23 22 19 21 21 19 21 20 18 17 17 18 19 17
14 17 18 14 15 15 15 17 19 20 19 17 15 7 10 8 9 11 11 11 9 6 5 4 12 16 19 21 19 22 22 24 23 22 25 25 25 22 23 22 23 22 21 22 21 20 20 20 19
16 13 16 15 16 16 18 19 19 19 10 9 8 10 6 8 10 11 13 13 9 9 7 6 8 13 17 20 21 22 23 23 25 26 25 27 24 23 23 24 24 24 24 22 20 21 24 20 18
11 18 18 18 18 16 5 16 23 17 12 10 10 11 8 11 13 13 12 12 13 13 11 7 9 11 15 19 21 23 22 25 25 26 23 32 26 26 25 25 23 22 22 24 22 20 20 23 20
18 19 18 16 4 9 7 15 17 6 8 11 11 13 13 14 13 13 12 13 15 13 12 10 9 11 14 18 20 22 24 24 26 26 26 29 36 28 25 28 27 23 23 22 22 23 21 22 20
16 17 19 14 14 7 11 15 10 6 11 14 16 17 15 14 11 12 11 14 14 15 16 14 13 16 16 18 21 23 24 27 27 27 27 30 33 35 30 27 30 27 23 21 25 24 23 23 21
18 17 16 12 11 13 16 21 19 18 20 14 18 17 14 14 8 17 17 18 19 18 18 18 16 15 15 16 20 24 25 27 27 28 29 31 34 34 34 28 27 32 26 23 26 25 24 24 20
16 18 21 21 17 20 19 22 21 18 21 21 19 18 13 7 11 14 16 17 18 18 20 20 18 16 16 16 17 23 26 28 28 32 30 31 33 33 34 33 32 33 33 31 30 27 26 24 19
16 20 22 22 20 12 19 24 23 24 26 20 10 3 9 9 11 13 16 18 19 20 21 21 21 19 17 17 19 20 24 28 30 30 33 34 33 34 36 36 32 33 31 32 32 31 26 24 24
18 19 20 21 19 21 22 30 23 15 5 7 7 4 5 10 13 14 17 20 20 21 21 22 23 22 20 18 21 23 26 29 26 32 32 34 36 35 38 38 36 33 31 32 32 32 29 24 23
20 14 17 14 15 17 20 21 26 22 24 12 7 6 9 12 14 16 18 23 23 24 22 21 23 24 22 20 20 22 25 26 27 28 31 33 36 38 37 38 38 33 33 32 37 36 34 28 23
16 12 10 16 18 20 30 14 26 19 13 14 6 8 11 13 15 17 19 26 28 26 25 25 24 24 23 22 22 23 25 27 30 31 33 35 32 38 37 38 36 35 33 35 34 34 35 33 28
12 11 16 18 17 17 25 20 22 5 9 7 7 9 12 15 18 18 24 27 28 28 27 28 27 25 23 22 22 23 26 28 29 30 29 32 34 34 37 38 37 35 34 33 34 35 35 33 31
11 13 11 13 12 16 20 12 8 9 10 11 13 16 16 17 18 19 21 26 29 31 31 29 27 28 26 26 24 24 26 28 31 33 34 28 30 33 36 38 37 37 37 36 33 34 35 35 32
15 14 12 19 15 17 21 9 4 11 10 11 11 12 14 16 17 19 21 25 27 29 30 30 30 29 27 26 26 26 27 27 30 33 35 36 32 33 32 35 37 38 39 36 34 33 33 34 34
7 14 12 17 18 16 17 20 12 9 11 13 13 13 15 16 17 18 22 25 28 28 30 29 29 28 27 27 27 28 29 29 31 35 35 36 40 33 30 31 36 37 35 37 36 34 35 35 35
14 10 6 7 6 12 11 14 3 9 11 13 13 14 15 16 17 17 21 26 28 30 29 28 27 26 28 27 26 27 30 30 33 37 36 34 37 27 27 30 34 35 36 35 34 32 31 32 33
12 12 13 13 11 9 10 2 4 6 8 11 13 16 14 15 16 13 18 25 26 27 29 30 29 29 29 27 29 30 25 25 29 36 34 32 34 28 26 29 32 33 34 33 33 31 29 32 30
14 16 15 11 13 7 13 7 5 5 6 9 12 13 14 15 16 14 20 24 25 29 30 31 32 33 31 29 32 24 20 17 16 10 25 26 26 26 25 28 28 29 29 28 29 27 26 29 27

GFSSGP_925_spd_120.txt.gz
Wind_Speed
7 7 10 15 6 7 14 17 19 7 3 12 10 8 9 8 8 5 17 21 13 4 17 25 22 22 20 19 17 16 16 17 17 17 18 16 15 15 15 15 13 12 10 10 9 10 8 7 7
7 11 11 6 8 10 13 15 4 15 14 7 1 4 6 2 10 7 17 22 13 2 14 21 23 22 20 19 18 17 16 17 17 18 19 17 16 16 16 15 13 12 10 9 8 10 8 8 9
8 11 6 5 11 13 15 11 13 13 9 4 1 4 4 4 11 6 17 18 11 2 12 15 21 20 19 18 17 17 17 18 19 20 20 17 16 17 17 16 14 13 11 9 8 9 8 8 10
8 7 5 6 16 19 18 11 9 4 7 3 3 6 2 9 5 9 14 16 12 3 9 14 17 20 18 16 16 16 16 17 18 19 20 19 17 18 18 17 15 14 12 10 9 9 9 9 9
13 6 10 12 16 19 17 18 2 3 7 7 6 10 6 15 10 9 11 14 11 6 9 14 12 20 19 17 16 15 16 18 18 19 20 19 18 18 18 17 15 14 13 12 10 9 9 9 8
7 7 10 12 16 17 12 7 12 10 8 12 11 8 5 16 14 10 11 10 9 5 8 10 11 19 19 18 16 16 17 17 17 18 19 19 18 19 19 18 15 14 13 13 10 10 10 9 9
12 10 16 18 17 17 18 7 3 8 14 10 12 3 2 16 14 11 9 9 6 3 5 7 7 19 20 19 17 16 16 17 18 18 19 19 19 20 20 18 16 15 14 13 11 11 11 10 9
10 10 20 17 15 16 13 10 10 6 9 7 4 5 7 8 12 11 9 6 1 3 4 6 6 16 22 21 19 17 16 17 18 19 19 19 20 20 19 18 16 15 14 14 13 12 12 11 11
10 8 12 17 17 11 17 12 5 6 4 11 10 10 11 20 14 14 15 10 1 6 9 7 10 13 16 18 21 20 18 16 17 17 19 19 20 20 19 19 16 16 15 14 13 12 13 12 12
9 10 16 14 14 13 13 13 13 14 15 13 11 11 10 12 14 14 15 14 10 6 10 15 12 15 18 19 19 23 22 21 19 18 19 20 17 16 16 17 18 16 17 16 14 12 14 14 13
14 15 16 17 18 14 12 14 14 14 14 12 13 12 11 12 12 10 15 17 14 10 4 13 16 15 21 23 26 23 22 23 23 22 21 23 18 19 18 21 19 18 18 18 17 15 17 17 13
16 18 18 17 14 13 15 14 16 15 14 14 15 13 5 8 9 8 13 11 10 12 12 8 12 16 23 21 21 25 24 25 24 25 25 23 25 23 21 22 24 22 20 20 18 18 19 17 20
14 16 16 16 17 11 14 15 16 19 17 15 17 16 2 8 7 11 11 14 13 9 5 3 8 13 17 24 22 19 25 26 26 26 28 26 28 26 25 24 23 21 21 21 20 20 18 19 19
18 20 17 17 18 19 17 17 16 19 18 19 6 8 8 5 7 8 10 14 11 10 9 4 5 9 14 18 21 22 24 17 26 27 29 31 26 26 30 29 24 25 24 25 22 23 21 21 22
12 17 18 18 20 21 18 15 15 23 18 13 7 8 9 6 7 9 10 7 10 12 13 14 6 10 8 16 20 23 23 27 17 26 22 31 31 27 26 28 25 26 26 28 25 23 23 24 22
19 19 19 19 19 3 4 14 17 4 3 7 9 11 6 9 10 12 10 19 25 26 25 25 24 20 17 17 16 21 25 24 25 23 34 31 30 28 29 27 27 25 25 31 27 25 23 26 25
15 17 20 19 9 6 10 13 15 16 7 10 12 11 13 11 7 20 22 24 25 25 27 27 25 24 23 20 22 22 21 25 27 32 29 33 36 40 24 30 35 30 19 25 31 29 28 24 27
17 18 20 19 11 9 16 17 17 15 16 16 16 11 10 12 10 16 18 19 22 23 24 25 26 26 27 24 23 24 27 24 28 29 33 33 34 35 41 26 32 40 28 22 30 31 30 27 25
20 21 21 19 19 19 20 21 21 16 17 18 16 16 17 8 12 15 17 18 20 23 25 25 25 25 26 24 23 23 21 25 26 28 28 31 33 35 37 39 29 35 40 28 28 29 30 29 25
21 19 20 21 21 19 21 20 20 18 20 23 22 8 15 13 13 15 18 20 22 21 22 25 24 22 23 25 26 27 28 28 29 26 33 36 33 36 38 39 36 34 35 35 27 29 26 24 30
20 18 19 22 21 20 18 22 20 23 21 15 11 14 14 13 13 15 18 21 22 23 25 25 26 25 24 26 26 26 28 27 27 28 26 36 40 39 40 40 40 36 35 37 39 34 30 26 28
20 17 21 22 17 15 18 17 20 22 21 21 17 16 12 13 15 15 18 20 21 23 25 26 27 28 27 26 26 24 24 25 28 30 29 26 38 40 40 42 39 39 39 35 38 40 38 27 25
21 15 14 16 15 16 28 13 17 21 18 13 14 12 13 15 16 16 18 23 24 25 26 27 28 27 30 29 26 24 25 26 28 30 29 30 29 37 42 42 43 41 38 39 39 36 37 38 30
10 11 15 15 14 14 23 17 17 4 10 12 10 12 13 13 14 15 22 24 25 27 27 27 29 28 29 31 30 28 28 27 29 31 31 30 27 29 40 43 43 43 44 42 31 34 35 37 36
13 9 8 8 10 14 19 16 13 14 11 12 11 11 12 12 14 16 18 24 26 28 29 28 29 29 30 30 29 30 29 29 29 31 33 31 30 27 33 39 43 43 41 38 34 33 34 37 35
15 12 8 16 14 17 20 14 6 14 14 13 11 11 12 15 16 18 22 25 27 29 30 29 29 29 29 29 28 29 30 30 30 30 33 35 33 30 30 38 43 45 45 39 38 34 35 36 37
7 11 14 17 14 13 12 19 11 14 13 13 13 15 16 17 16 17 23 25 26 28 30 30 30 29 28 29 29 28 29 29 31 33 33 36 40 36 36 35 40 45 42 41 36 33 35 36 38
11 11 10 5 8 13 9 5 3 8 11 12 12 13 12 14 14 14 19 23 25 27 29 28 29 29 29 28 27 26 28 30 31 32 35 37 41 40 37 30 37 39 38 41 36 34 32 34 35
11 12 11 11 10 10 13 3 3 4 6 8 10 11 11 13 13 12 17 23 24 26 27 29 29 29 30 30 26 26 22 21 21 24 31 40 39 39 39 32 22 19 31 38 40 31 33 32 32
16 15 15 9 10 11 10 5 6 3 3 7 9 11 14 14 14 13 19 24 25 28 26 28 32 33 33 29 26 25 25 23 23 21 21 8 35 37 35 31 33 31 44 39 36 33 32 32 29